[[{"header":{"parameterUnit":"m.s-1","parameterCategory":1,"la1":30.6,"la2":28.766,"lo1":-90.7593,"lo2":-88.6598,"dy":0.0162,"dx":0.0183,"nx":116,"ny":114,"refTime":"2024-06-19T06:00:00:Z","depth":0,"parameterNumber":2,"parameterNumberName":"U-component_of_WINDS"},"data":[0.0,0.0,0.0,0.0,0.0,0.0,0.0,0.0,0.0,0.0,0.0,0.0,0.0,0.0,0.0,0.0,0.0,0.0,0.0,0.0,0.0,0.0,0.0,0.0,0.0,0.0,0.0,0.0,0.0,0.0,0.0,0.0,0.0,0.0,0.0,0.0,0.0,0.0,0.0,0.0,0.0,0.0,0.0,0.0,0.0,0.0,0.0,0.0,0.0,0.0,0.0,0.0,0.0,0.0,0.0,0.0,0.0,0.0,0.0,0.0,0.0,0.0,0.0,0.0,0.0,0.0,0.0,0.0,0.0,0.0,0.0,0.0,0.0,0.0,0.0,0.0,0.0,0.0,0.0,0.0,0.0,0.0,0.0,0.0,0.0,0.0,0.0,0.0,0.0,0.0,0.0,0.0,0.0,0.0,0.0,0.0,0.0,0.0,0.0,0.0,0.0,0.0,0.0,0.0,0.0,0.0,0.0,0.0,0.0,0.0,0.0,0.0,0.0,0.0,0.0,0.0,0.0,0.0,0.0,0.0,0.0,0.0,0.0,0.0,0.0,0.0,0.0,0.0,0.0,0.0,0.0,0.0,0.0,0.0,0.0,0.0,0.0,0.0,0.0,0.0,0.0,0.0,0.0,0.0,0.0,0.0,0.0,0.0,0.0,0.0,0.0,0.0,0.0,0.0,0.0,0.0,0.0,0.0,0.0,0.0,0.0,0.0,0.0,0.0,0.0,0.0,0.0,0.0,0.0,0.0,0.0,0.0,0.0,0.0,0.0,0.0,0.0,0.0,0.0,0.0,0.0,0.0,0.0,0.0,0.0,0.0,0.0,0.0,0.0,0.0,0.0,0.0,0.0,0.0,0.0,0.0,0.0,0.0,0.0,0.0,0.0,0.0,0.0,0.0,0.0,0.0,0.0,0.0,0.0,0.0,0.0,0.0,0.0,0.0,0.0,0.0,0.0,0.0,0.0,0.0,0.0,0.0,0.0,0.0,0.0,0.0,0.0,0.0,0.0,0.0,0.0,0.0,0.0,0.0,0.0,0.0,0.0,0.0,0.0,0.0,0.0,0.0,0.0,0.0,0.0,0.0,0.0,0.0,0.0,0.0,0.0,0.0,0.0,0.0,0.0,0.0,0.0,0.0,0.0,0.0,0.0,0.0,0.0,0.0,0.0,0.0,0.0,0.0,0.0,0.0,0.0,0.0,0.0,0.0,0.0,0.0,0.0,0.0,0.0,0.0,0.0,0.0,0.0,0.0,0.0,0.0,0.0,0.0,0.0,0.0,0.0,0.0,0.0,0.0,0.0,0.0,0.0,0.0,0.0,0.0,0.0,0.0,0.0,0.0,0.0,0.0,0.0,0.0,0.0,0.0,0.0,0.0,0.0,0.0,0.0,0.0,0.0,0.0,0.0,0.0,0.0,0.0,0.0,0.0,0.0,0.0,0.0,0.0,0.0,0.0,0.0,0.0,0.0,0.0,0.0,0.0,0.0,0.0,0.0,0.0,0.0,0.0,0.0,0.0,0.0,0.0,0.0,0.0,0.0,0.0,0.0,0.0,0.0,0.0,0.0,0.0,0.0,0.0,0.0,0.0,0.0,0.0,0.0,0.0,0.0,0.0,0.0,0.0,0.0,0.0,0.0,0.0,0.0,0.0,0.0,0.0,0.0,0.0,0.0,0.0,0.0,0.0,0.0,0.0,0.0,0.0,0.0,0.0,0.0,0.0,0.0,0.0,0.0,0.0,0.0,0.0,0.0,0.0,0.0,0.0,0.0,0.0,0.0,0.0,0.0,0.0,0.0,0.0,0.0,0.0,0.0,0.0,0.0,0.0,0.0,0.0,0.0,0.0,0.0,0.0,0.0,0.0,0.0,0.0,0.0,0.0,0.0,0.0,0.0,0.0,0.0,0.0,0.0,0.0,0.0,0.0,0.0,0.0,0.0,0.0,0.0,0.0,0.0,0.0,0.0,0.0,0.0,0.0,0.0,0.0,0.0,0.0,0.0,0.0,0.0,0.0,0.0,0.0,0.0,0.0,0.0,0.0,0.0,0.0,0.0,0.0,0.0,0.0,0.0,0.0,0.0,0.0,0.0,0.0,0.0,0.0,0.0,0.0,0.0,0.0,0.0,0.0,0.0,0.0,0.0,0.0,0.0,0.0,0.0,0.0,0.0,0.0,0.0,0.0,0.0,0.0,0.0,0.0,0.0,0.0,0.0,0.0,0.0,0.0,0.0,0.0,0.0,0.0,0.0,0.0,0.0,0.0,0.0,0.0,0.0,0.0,0.0,0.0,0.0,0.0,0.0,0.0,0.0,0.0,0.0,0.0,0.0,0.0,0.0,0.0,0.0,0.0,0.0,0.0,0.0,0.0,0.0,0.0,0.0,0.0,0.0,0.0,0.0,0.0,0.0,0.0,0.0,0.0,0.0,0.0,0.0,0.0,0.0,0.0,0.0,0.0,0.0,0.0,0.0,0.0,0.0,0.0,0.0,0.0,0.0,0.0,0.0,0.0,0.0,0.0,0.0,0.0,0.0,0.0,0.0,0.0,0.0,0.0,0.0,0.0,0.0,0.0,0.0,0.0,0.0,0.0,0.0,0.0,0.0,0.0,0.0,0.0,0.0,0.0,0.0,0.0,0.0,0.0,0.0,0.0,0.0,0.0,0.0,0.0,0.0,0.0,0.0,0.0,0.0,0.0,0.0,0.0,0.0,0.0,0.0,0.0,0.0,0.0,0.0,0.0,0.0,0.0,0.0,0.0,0.0,0.0,0.0,0.0,0.0,0.0,0.0,0.0,0.0,0.0,0.0,0.0,0.0,0.0,0.0,0.0,0.0,0.0,0.0,0.0,0.0,0.0,0.0,0.0,0.0,0.0,0.0,0.0,0.0,0.0,0.0,0.0,0.0,0.0,0.0,0.0,0.0,0.0,0.0,0.0,0.0,0.0,0.0,0.0,0.0,0.0,0.0,0.0,0.0,0.0,0.0,0.0,0.0,0.0,0.0,0.0,0.0,0.0,0.0,0.0,0.0,0.0,0.0,0.0,0.0,0.0,0.0,0.0,0.0,0.0,0.0,0.0,0.0,0.0,0.0,0.0,0.0,0.0,0.0,0.0,0.0,0.0,0.0,0.0,0.0,0.0,0.0,0.0,0.0,0.0,0.0,0.0,0.0,0.0,0.0,0.0,0.0,0.0,0.0,0.0,0.0,0.0,0.0,0.0,0.0,0.0,0.0,0.0,0.0,0.0,0.0,0.0,0.0,0.0,0.0,0.0,0.0,0.0,0.0,0.0,0.0,0.0,0.0,0.0,0.0,0.0,0.0,0.0,0.0,0.0,0.0,0.0,0.0,0.0,0.0,0.0,0.0,0.0,0.0,0.0,0.0,0.0,0.0,0.0,0.0,0.0,0.0,0.0,0.0,0.0,0.0,0.0,0.0,0.0,0.0,0.0,0.0,0.0,0.0,0.0,0.0,0.0,0.0,0.0,0.0,0.0,0.0,0.0,0.0,0.0,0.0,0.0,0.0,0.0,0.0,0.0,0.0,0.0,0.0,0.0,0.0,0.0,0.0,0.0,0.0,0.0,0.0,0.0,0.0,0.0,0.0,0.0,0.0,0.0,0.0,0.0,0.0,0.0,0.0,0.0,0.0,0.0,0.0,0.0,0.0,0.0,0.0,0.0,0.0,0.0,0.0,0.0,0.0,0.0,0.0,0.0,0.0,0.0,0.0,0.0,0.0,0.0,0.0,0.0,0.0,0.0,0.0,0.0,0.0,0.0,0.0,0.0,0.0,0.0,0.0,0.0,0.0,0.0,0.0,0.0,0.0,0.0,0.0,0.0,0.0,0.0,0.0,0.0,0.0,0.0,0.0,0.0,0.0,0.0,0.0,0.0,0.0,0.0,0.0,0.0,0.0,0.0,0.0,0.0,0.0,0.0,0.0,0.0,0.0,0.0,0.0,0.0,0.0,0.0,0.0,0.0,0.0,0.0,0.0,0.0,0.0,0.0,0.0,0.0,0.0,0.0,0.0,0.0,0.0,0.0,0.0,0.0,0.0,0.0,0.0,0.0,0.0,0.0,0.0,0.0,0.0,0.0,0.0,0.0,0.0,0.0,0.0,0.0,0.0,0.0,0.0,0.0,0.0,0.0,0.0,0.0,0.0,0.0,0.0,0.0,0.0,0.0,0.0,0.0,0.0,0.0,0.0,0.0,0.0,0.0,0.0,0.0,0.0,0.0,0.0,0.0,0.0,0.0,0.0,0.0,0.0,0.0,0.0,0.0,0.0,0.0,0.0,0.0,0.0,0.0,0.0,0.0,0.0,0.0,0.0,0.0,0.0,0.0,0.0,0.0,0.0,0.0,0.0,0.0,0.0,0.0,0.0,0.0,0.0,0.0,0.0,0.0,0.0,0.0,0.0,0.0,0.0,0.0,0.0,0.0,0.0,0.0,0.0,0.0,0.0,0.0,0.0,0.0,0.0,0.0,0.0,0.0,0.0,0.0,0.0,0.0,0.0,0.0,0.0,0.0,0.0,0.0,0.0,0.0,0.0,0.0,0.0,0.0,0.0,0.0,0.0,0.0,0.0,0.0,0.0,0.0,0.0,0.0,0.0,0.0,0.0,0.0,0.0,0.0,0.0,0.0,0.0,0.0,0.0,0.0,0.0,0.0,0.0,0.0,0.0,0.0,0.0,0.0,0.0,0.0,0.0,0.0,0.0,0.0,0.0,0.0,0.0,0.0,0.0,0.0,0.0,0.0,0.0,0.0,0.0,0.0,0.0,0.0,0.0,0.0,0.0,0.0,0.0,0.0,0.0,0.0,0.0,0.0,0.0,0.0,0.0,0.0,0.0,0.0,0.0,0.0,0.0,0.0,0.0,0.0,0.0,0.0,0.0,0.0,0.0,0.0,0.0,0.0,0.0,0.0,0.0,0.0,0.0,0.0,0.0,0.0,0.0,0.0,0.0,0.0,0.0,0.0,0.0,0.0,0.0,0.0,0.0,0.0,0.0,0.0,0.0,0.0,0.0,0.0,0.0,0.0,0.0,0.0,0.0,0.0,0.0,0.0,0.0,0.0,0.0,0.0,0.0,0.0,0.0,0.0,0.0,0.0,0.0,0.0,0.0,0.0,0.0,0.0,0.0,0.0,0.0,0.0,0.0,0.0,0.0,0.0,0.0,0.0,0.0,0.0,0.0,0.0,0.0,0.0,0.0,0.0,0.0,0.0,0.0,0.0,0.0,0.0,0.0,0.0,0.0,0.0,0.0,0.0,0.0,0.0,0.0,0.0,0.0,0.0,0.0,0.0,0.0,0.0,0.0,0.0,0.0,0.0,0.0,0.0,0.0,0.0,0.0,0.0,0.0,0.0,0.0,0.0,0.0,0.0,0.0,0.0,0.0,0.0,0.0,0.0,0.0,0.0,0.0,0.0,0.0,0.0,0.0,0.0,0.0,0.0,0.0,0.0,0.0,0.0,0.0,0.0,0.0,0.0,0.0,0.0,0.0,0.0,0.0,0.0,0.0,0.0,0.0,0.0,0.0,0.0,0.0,0.0,0.0,0.0,0.0,0.0,0.0,0.0,0.0,0.0,0.0,0.0,0.0,0.0,0.0,0.0,0.0,0.0,0.0,0.0,0.0,0.0,0.0,0.0,0.0,0.0,0.0,0.0,0.0,0.0,0.0,0.0,0.0,0.0,0.0,0.0,0.0,0.0,0.0,0.0,0.0,0.0,0.0,0.0,0.0,0.0,0.0,0.0,0.0,0.0,0.0,0.0,0.0,0.0,0.0,0.0,0.0,0.0,0.0,0.0,0.0,0.0,0.0,0.0,0.0,0.0,0.0,0.0,0.0,0.0,0.0,0.0,0.0,0.0,0.0,0.0,0.0,0.0,0.0,0.0,0.0,0.0,0.0,0.0,0.0,0.0,0.0,0.0,0.0,0.0,0.0,0.0,0.0,0.0,0.0,0.0,0.0,0.0,0.0,0.0,0.0,0.0,0.0,0.0,0.0,0.0,0.0,0.0,0.0,0.0,0.0,0.0,0.0,0.0,0.0,0.0,0.0,0.0,0.0,0.0,0.0,0.0,0.0,0.0,0.0,0.0,-0.5719,0.0,0.0,0.0,0.0,0.0,0.0,0.0,0.0,0.0,0.0,0.0,0.0,0.0,0.0,0.0,0.0,0.0,0.0,0.0,0.0,0.0,0.0,0.0,0.0,-0.343,-0.364,-0.3869,-0.4078,-0.4188,-0.4188,-0.4298,-0.4328,-0.4188,-0.4124,-0.4028,-0.3909,-0.3889,-0.4007,-0.4188,-0.4375,-0.4625,-0.4885,-0.4262,-0.3576,-0.289,0.0,0.0,0.0,0.0,0.0,0.0,0.0,0.0,0.0,0.0,0.0,0.0,0.0,0.0,0.0,0.0,0.0,0.0,0.0,0.0,0.0,0.0,0.0,0.0,0.0,0.0,0.0,0.0,0.0,0.0,0.0,0.0,0.0,0.0,0.0,0.0,0.0,0.0,0.0,0.0,0.0,0.0,0.0,0.0,0.0,0.0,0.0,0.0,0.0,0.0,0.0,0.0,0.0,0.0,0.0,0.0,0.0,0.0,0.0,0.0,0.0,0.0,0.0,0.0,0.0,0.0,0.0,0.0,0.0,0.0,0.0,-0.6742,0.0,0.0,0.0,0.0,0.0,0.0,0.0,0.0,0.0,0.0,0.0,0.0,0.0,0.0,0.0,0.0,0.0,0.0,0.0,0.0,0.0,-0.3577,-0.3583,-0.3828,-0.4039,-0.4097,-0.4414,-0.4601,-0.4601,-0.4923,-0.4962,-0.462,-0.4601,-0.4453,-0.4117,-0.4117,-0.4305,-0.4727,-0.5215,-0.5745,-0.628,-0.5675,-0.4829,-0.3751,-0.3171,0.0,0.0,0.0,0.0,0.0,0.0,0.0,0.0,0.0,0.0,0.0,0.0,0.0,0.0,0.0,0.0,0.0,0.0,0.0,0.0,0.0,0.0,0.0,0.0,0.0,0.0,0.0,0.0,0.0,0.0,0.0,0.0,0.0,0.0,0.0,0.0,0.0,0.0,0.0,0.0,0.0,0.0,0.0,0.0,0.0,0.0,0.0,0.0,0.0,0.0,0.0,0.0,0.0,0.0,0.0,0.0,0.0,0.0,0.0,0.0,0.0,0.0,0.0,-0.9474,-0.9531,-0.9473,-0.9786,-0.9981,-0.9982,-0.8819,-0.8476,-0.867,0.0,0.0,0.0,0.0,0.0,0.0,0.0,0.0,0.0,0.0,0.0,0.0,0.0,0.0,0.0,0.0,0.0,0.0,0.0,0.0,-0.3659,-0.4278,-0.4383,-0.4562,-0.4923,-0.4991,-0.501,-0.501,-0.5069,-0.5069,-0.501,-0.501,-0.4991,-0.4942,-0.4942,-0.5166,-0.5627,-0.6445,-0.7063,-0.7473,-0.7137,-0.6664,-0.5997,-0.4722,-0.4482,-0.4955,0.0,0.0,0.0,0.0,0.0,0.0,0.0,0.0,0.0,0.0,0.0,0.0,0.0,0.0,0.0,0.0,0.0,0.0,0.0,0.0,0.0,0.0,0.0,0.0,0.0,0.0,0.0,0.0,0.0,0.0,0.0,0.0,0.0,0.0,0.0,0.0,0.0,0.0,0.0,0.0,0.0,-0.6215,-0.6649,0.0,0.0,0.0,0.0,0.0,0.0,0.0,0.0,0.0,0.0,0.0,0.0,0.0,-0.9572,-1.0038,-1.0841,-1.1056,-1.0664,-1.1424,-1.1602,-1.1273,-1.131,-1.1523,-1.1853,-1.1647,0.0,-0.9982,-0.9128,0.0,0.0,0.0,0.0,0.0,0.0,0.0,0.0,0.0,0.0,0.0,0.0,0.0,0.0,0.0,0.0,0.0,0.0,0.0,0.0,0.0,-0.5118,-0.5462,-0.5499,-0.5692,-0.5731,-0.5508,-0.5488,-0.538,-0.5108,-0.5108,-0.5108,-0.5108,-0.5361,-0.5937,-0.6875,-0.7754,-0.8262,-0.8422,-0.8084,-0.7741,-0.7413,-0.6338,-0.5571,-0.5026,-0.4312,0.0,0.0,0.0,0.0,0.0,0.0,0.0,0.0,0.0,0.0,0.0,0.0,0.0,0.0,0.0,0.0,0.0,0.0,0.0,0.0,0.0,0.0,0.0,0.0,0.0,0.0,0.0,0.0,0.0,0.0,0.0,0.0,0.0,0.0,0.0,0.0,0.0,0.0,0.0,-0.5865,-0.6582,-0.7051,-0.7115,-0.7135,0.0,0.0,0.0,0.0,0.0,0.0,0.0,0.0,0.0,-1.0293,-1.0586,-1.1076,-1.176,-1.2367,-1.2676,-1.271,-1.3081,-1.3178,-1.3008,-1.3008,-1.3081,-1.3276,-1.3276,-1.2944,-1.2344,-1.1017,-1.0175,-0.9668,0.0,0.0,0.0,0.0,-0.8913,-0.8707,0.0,0.0,0.0,0.0,0.0,0.0,0.0,0.0,0.0,0.0,0.0,0.0,-0.5083,-0.5694,-0.6103,-0.6105,-0.6289,-0.6305,-0.6114,-0.5906,-0.5655,-0.5292,-0.5166,-0.5146,-0.5273,-0.5937,-0.6914,-0.8172,-0.8965,-0.9453,-0.9668,-0.9355,-0.9096,-0.8836,-0.8043,-0.6852,-0.5376,-0.4919,-0.4476,-0.4024,0.0,0.0,0.0,0.0,0.0,0.0,0.0,0.0,0.0,0.0,0.0,0.0,0.0,0.0,0.0,0.0,0.0,0.0,0.0,0.0,0.0,0.0,0.0,0.0,0.0,0.0,0.0,0.0,0.0,0.0,0.0,0.0,0.0,0.0,0.0,0.0,0.0,-0.666,-0.7246,-0.7681,-0.811,-0.8324,0.0,0.0,0.0,0.0,0.0,0.0,-1.0215,-1.039,-1.0839,-1.1677,-1.2051,-1.2563,-1.3203,-1.3516,-1.3802,-1.4114,-1.4114,-1.4114,-1.4114,-1.4114,-1.4114,-1.4114,-1.4114,-1.4114,-1.3997,-1.2543,-1.1545,-1.0919,-1.0332,-0.9941,-0.9746,-1.0391,-1.029,-1.0013,0.0,0.0,0.0,0.0,0.0,0.0,0.0,0.0,0.0,0.0,0.0,-0.5095,-0.6024,-0.5946,-0.6136,-0.6877,-0.6611,-0.6563,-0.6919,-0.623,-0.5783,-0.5764,-0.5341,-0.5322,-0.5764,-0.6979,-0.823,-0.9495,-1.0,-1.0665,-1.1469,-1.1447,-1.1166,-1.0644,-0.9894,-0.8632,-0.7015,-0.6037,-0.5608,-0.5515,-0.4676,0.0,0.0,0.0,0.0,0.0,0.0,0.0,0.0,0.0,0.0,0.0,0.0,0.0,0.0,0.0,0.0,0.0,0.0,0.0,0.0,0.0,0.0,0.0,0.0,0.0,0.0,0.0,0.0,0.0,0.0,0.0,0.0,0.0,0.0,0.0,0.0,0.0,0.0,-0.9417,-0.9883,0.0,0.0,0.0,0.0,-0.9534,-1.0312,-1.1151,-1.2028,-1.25,-1.3105,-1.3919,-1.3958,-1.3997,-1.4036,-1.4075,-1.4094,-1.4114,-1.4114,-1.4114,-1.4114,-1.4114,-1.4114,-1.4114,-1.4114,-1.4114,-1.4036,-1.3184,-1.2817,-1.268,-1.1819,-1.1489,-1.1489,-1.1528,-1.1758,-1.2064,0.0,0.0,0.0,-0.3212,-0.3194,-0.3291,-0.3624,-0.4107,-0.4574,-0.4929,-0.5642,-0.6222,-0.6484,-0.6986,-0.7312,-0.7392,-0.7565,-0.7512,-0.7089,-0.6498,-0.6309,-0.6621,-0.618,-0.6531,-0.7832,-0.8558,-0.9417,-1.0429,-1.0919,-1.1312,-1.1606,-1.1606,-1.1302,-1.0794,-1.053,-0.9614,-0.8208,-0.6856,-0.6191,-0.5936,-0.5022,-0.4489,0.0,0.0,0.0,0.0,0.0,0.0,0.0,0.0,0.0,0.0,0.0,0.0,0.0,0.0,0.0,0.0,0.0,0.0,0.0,0.0,0.0,0.0,0.0,0.0,0.0,0.0,0.0,0.0,0.0,0.0,0.0,0.0,0.0,0.0,0.0,0.0,0.0,-1.0351,-1.084,0.0,-1.0899,-1.1112,-1.1404,-1.1699,-1.2246,-1.2808,-1.3393,-1.3568,-1.3802,-1.4094,-1.4114,-1.425,-1.4551,-1.4551,-1.4687,-1.4933,-1.4933,-1.4933,-1.4933,-1.4933,-1.4933,-1.4933,-1.4933,-1.4933,-1.4874,-1.4336,-1.3945,-1.3627,-1.334,-1.3223,-1.3223,-1.3223,-1.3295,-1.3432,-0.2962,-0.299,0.0,-0.3155,-0.3221,-0.3408,-0.3818,-0.4387,-0.4885,-0.5199,-0.6098,-0.6754,-0.6925,-0.7679,-0.8205,-0.8276,-0.8354,-0.8186,-0.7743,-0.7038,-0.6777,-0.709,-0.709,-0.7754,-0.9162,-0.9747,-1.0468,-1.1326,-1.1641,-1.1878,-1.2034,-1.2034,-1.1833,-1.1513,-1.1242,-1.055,-0.9462,-0.8363,-0.7403,-0.6572,-0.5745,-0.5251,-0.4958,0.0,0.0,0.0,0.0,0.0,0.0,0.0,0.0,0.0,0.0,0.0,0.0,0.0,0.0,0.0,0.0,0.0,0.0,0.0,0.0,0.0,0.0,0.0,0.0,0.0,0.0,0.0,0.0,0.0,0.0,0.0,0.0,0.0,0.0,0.0,-1.0527,-1.1248,-1.1875,-1.225,-1.225,-1.2617,-1.2964,-1.3281,-1.3555,-1.4011,-1.4667,-1.4582,-1.4739,-1.5127,-1.5315,-1.5564,-1.5894,-1.6161,-1.6304,-1.6287,-1.6287,-1.6108,-1.5829,-1.5829,-1.5829,-1.5829,-1.5829,-1.5829,-1.581,-1.5566,-1.5273,-1.4933,-1.4328,-1.4114,-1.4114,-1.4114,-1.4114,-1.4114,-0.2785,-0.2796,-0.282,-0.2894,-0.3281,-0.3765,-0.4297,-0.4564,-0.4978,-0.5789,-0.616,-0.6594,-0.7323,-0.7942,-0.8668,-0.9501,-0.8852,-0.8532,-0.8834,-0.7758,-0.7109,-0.7168,-0.8003,-0.8848,-0.9651,-1.0507,-1.1346,-1.2223,-1.2223,-1.2437,-1.2915,-1.2915,-1.2915,-1.2871,-1.2153,-1.1466,-1.0822,-1.0523,-0.9307,-0.7522,-0.6895,-0.6478,-0.6115,0.0,0.0,0.0,0.0,0.0,0.0,0.0,0.0,0.0,0.0,0.0,0.0,0.0,0.0,0.0,0.0,0.0,0.0,0.0,0.0,0.0,0.0,0.0,0.0,0.0,0.0,0.0,0.0,0.0,0.0,0.0,0.0,0.0,-1.0371,-1.1095,-1.18,-1.2203,-1.3003,-1.3535,-1.3535,-1.3899,-1.4153,-1.4153,-1.4172,-1.4673,-1.5867,-1.5615,-1.5998,-1.7134,-1.7693,-1.7985,-1.7985,-1.8865,-1.8895,-1.8047,-1.8016,-1.7575,-1.6738,-1.6707,-1.6707,-1.6707,-1.6707,-1.6707,-1.6707,-1.6707,-1.6707,-1.6531,-1.4855,-1.4172,-1.4172,-1.4172,-1.4153,-1.4153,-0.2782,-0.2838,-0.288,-0.2903,-0.3212,-0.3601,-0.4051,-0.4533,-0.5029,-0.5541,-0.6433,-0.7101,-0.7306,-0.8163,-0.8722,-0.8653,-0.851,-0.8304,-0.8044,-0.7458,-0.752,-0.8437,-0.959,-1.0625,-1.1482,-1.1716,-1.2125,-1.2695,-1.2695,-1.2754,-1.2915,-1.2915,-1.2915,-1.2871,-1.27,-1.2197,-1.1491,-1.0939,-1.0119,-0.9082,-0.8312,-0.7375,-0.6445,0.0,0.0,0.0,0.0,0.0,0.0,0.0,0.0,0.0,0.0,0.0,0.0,0.0,0.0,0.0,0.0,0.0,0.0,0.0,0.0,0.0,0.0,0.0,0.0,0.0,0.0,0.0,0.0,0.0,0.0,0.0,0.0,-1.1677,-1.1677,-1.2168,-1.2793,-1.349,-1.3782,-1.3938,-1.3938,-1.4601,-1.503,-1.503,-1.5634,-1.6135,-1.6446,-1.6401,-1.6488,-1.6823,-1.7585,-1.7985,-1.7985,-1.8865,-1.9194,-1.8925,-1.8291,-1.7863,-1.7637,-1.7002,-1.6707,-1.6707,-1.6707,-1.6707,-1.6707,-1.6707,-1.6707,-1.6648,-1.618,-1.582,-1.5557,-1.5557,-1.5332,-1.503,-0.2713,-0.2751,-0.2817,-0.2986,-0.3345,-0.3776,-0.4285,-0.4715,-0.5107,-0.5461,-0.6468,-0.7193,-0.7206,-0.822,-0.8818,-0.8618,-0.864,-0.8457,-0.8027,-0.793,-0.8398,-0.9492,-1.0605,-1.1504,-1.2184,-1.2379,-1.2637,-1.2915,-1.2915,-1.2915,-1.2915,-1.2915,-1.2915,-1.2915,-1.2915,-1.2486,-1.1789,-1.1708,-1.0956,-0.9787,-0.954,-0.861,-0.7316,-0.6908,-0.6532,-0.6177,-0.5936,-0.5762,-0.5658,-0.5521,0.0,0.0,0.0,0.0,0.0,0.0,0.0,0.0,0.0,0.0,0.0,0.0,0.0,0.0,0.0,0.0,0.0,0.0,0.0,0.0,0.0,0.0,0.0,0.0,-1.232,-1.312,-1.349,-1.3477,-1.3652,-1.4289,-1.4523,-1.4718,-1.4922,-1.5566,-1.5927,-1.5927,-1.6414,-1.6813,-1.7139,-1.7054,-1.712,-1.7451,-1.8154,-1.8543,-1.8543,-1.9399,-1.9647,-1.9275,-1.8775,-1.8353,-1.797,-1.7493,-1.7233,0.0,-1.7233,-1.7233,-1.7233,-1.7233,-1.7233,0.0,0.0,0.0,0.0,0.0,-1.6191,-1.5927,-0.2578,-0.2583,-0.2719,-0.3121,-0.3594,-0.4109,-0.4751,-0.4989,-0.5195,-0.5416,-0.636,-0.7,-0.7012,-0.8109,-0.8828,-0.8861,-0.8906,-0.8809,-0.8551,-0.8906,-0.9531,-1.041,-1.1232,-1.1878,-1.2281,-1.2695,-1.2915,-1.2915,-1.2915,-1.2915,-1.2915,-1.2915,-1.2915,-1.2915,-1.2915,-1.2535,-1.1963,-1.2535,-1.1701,-1.0064,-1.0585,-0.9839,-0.8335,-0.7892,-0.7639,-0.7486,-0.7024,-0.6652,-0.6357,-0.6052,0.0,0.0,0.0,0.0,0.0,0.0,0.0,0.0,0.0,0.0,0.0,0.0,0.0,0.0,0.0,0.0,0.0,0.0,0.0,0.0,0.0,0.0,0.0,0.0,-1.3529,-1.4601,-1.542,-1.4874,-1.4543,-1.4961,-1.5332,-1.5723,-1.6124,-1.6543,-1.6765,-1.6765,-1.6863,-1.7221,-1.7843,0.0,0.0,0.0,0.0,-1.9556,-1.9788,-2.0423,-2.039,-1.9755,-1.9556,-1.9042,-1.8281,-1.8179,-1.8164,-1.8144,-1.8105,-1.8086,-1.8086,-1.8027,-1.8008,-1.793,-1.7096,-1.6765,-1.6765,-1.6726,-1.6707,-1.6707,-0.2417,-0.2437,-0.2598,-0.3109,-0.3594,-0.4061,-0.4509,-0.4882,-0.5127,-0.5175,-0.6251,-0.6888,-0.656,-0.7647,-0.8298,-0.7984,-0.8301,-0.875,-0.9338,-0.9785,-1.043,-1.1312,-1.1816,-1.2305,-1.2734,-1.2832,-1.2915,-1.2915,-1.2915,-1.2915,-1.2915,-1.2915,-1.2915,-1.2915,-1.2915,-1.2822,-1.2657,-1.2203,-1.1765,-1.1391,-1.0965,-0.9839,-0.8439,-0.8878,-0.8533,-0.7863,-0.83,-0.807,-0.7552,-0.7499,-0.7113,-0.662,-0.6346,-0.5919,0.0,0.0,0.0,0.0,0.0,0.0,0.0,0.0,0.0,0.0,0.0,0.0,0.0,0.0,0.0,0.0,0.0,0.0,0.0,-1.416,-1.5078,-1.5879,-1.6375,-1.6297,-1.6239,-1.6317,-1.6395,-1.6473,-1.6602,-1.7012,-1.7266,-1.7266,-1.7891,-1.8296,-1.8434,-1.8742,-1.9369,-2.033,-2.0359,-2.1094,-2.2651,-2.2015,-2.1925,-2.2495,0.0,0.0,-2.0071,-1.9382,-1.9043,-1.9023,-1.8637,-1.8481,-1.8461,-1.811,-1.8008,-1.7949,-1.7461,-1.7266,-1.7227,-1.6824,-1.6707,-1.6707,-0.2354,-0.2557,-0.286,-0.3371,-0.3869,-0.4344,-0.4737,-0.4981,-0.5108,-0.5108,-0.5864,-0.6311,-0.6117,-0.6856,-0.7263,-0.707,-0.7661,-0.8594,-0.9883,-1.0352,-1.0977,-1.1855,-1.2324,-1.2656,-1.2895,-1.2915,-1.2915,-1.2915,-1.2915,-1.2915,-1.2915,-1.2915,-1.2915,-1.2915,-1.2915,-1.2915,-1.2871,-1.251,-1.2129,-1.1765,-1.1441,-1.0614,-0.9592,-0.9592,-0.9487,-0.9352,-0.9352,-0.9272,-0.916,-0.916,-0.8837,-0.8397,-0.8125,-0.7844,-0.7511,0.0,0.0,0.0,0.0,0.0,0.0,0.0,0.0,0.0,0.0,0.0,0.0,0.0,0.0,-1.209,-1.2734,0.0,-1.495,-1.5381,-1.5977,-1.6543,-1.6992,-1.7051,-1.6973,-1.6726,-1.6902,-1.7051,-1.7051,-1.7637,-1.8008,-1.8008,-1.8594,-1.8965,-1.8965,-1.916,-1.9532,-2.0017,-1.9981,-2.0425,-2.1411,-2.0885,-2.085,-2.1285,-2.0389,-1.9945,-1.9945,-1.9495,-1.9297,-1.9277,-1.9062,-1.8965,-1.8945,-1.873,-1.8516,-1.8266,-1.8086,-1.7891,-1.7676,-1.7461,-1.733,-1.733,-0.2303,-0.2763,-0.3238,-0.3694,-0.4139,-0.4578,-0.503,-0.5108,-0.5108,-0.5108,-0.5508,-0.5803,-0.5803,-0.6152,-0.6472,-0.6628,-0.7369,-0.8558,-1.0293,-1.0801,-1.1426,-1.2301,-1.2695,-1.2915,-1.2915,-1.2915,-1.2915,-1.2915,-1.2915,-1.2915,-1.2915,-1.2915,-1.2915,-1.2915,-1.2915,-1.2915,-1.2915,-1.2915,-1.2559,-1.2005,-1.2005,-1.169,-1.1133,-1.0448,-1.0432,-1.0737,-1.0346,-1.0275,-1.0374,-1.0464,-1.0248,-0.9927,-0.9731,-0.9673,-0.9555,-0.8908,-0.8675,0.0,0.0,0.0,0.0,0.0,0.0,0.0,0.0,-1.084,-1.1291,-1.2152,-1.3248,-1.4102,-1.4426,-1.5508,-1.6359,-1.6359,-1.6699,-1.7077,-1.7461,-1.75,-1.7383,-1.6999,-1.7285,-1.7539,-1.7617,-1.8208,-1.8637,-1.8715,-1.916,-1.9414,-1.9414,-1.9492,-1.9642,-1.9826,-1.9642,-1.9752,-2.0099,-1.9752,-1.9642,-1.9806,-1.9642,-1.9531,-1.9531,-1.9531,-1.9531,-1.9531,-1.9453,-1.9355,-1.9297,-1.9297,-1.9082,-1.8734,-1.8734,-1.8461,-1.8125,-1.8047,-1.8008,-1.8008,-0.221,-0.2884,-0.3576,-0.3982,-0.4113,-0.4355,-0.5001,-0.5108,-0.5108,-0.5108,-0.5508,-0.5803,-0.5803,-0.6152,-0.6706,-0.7472,-0.8027,-0.904,-1.0723,-1.1271,-1.1897,-1.2773,-1.2876,-1.2915,-1.2915,-1.2915,-1.2915,-1.2915,-1.2915,-1.2915,-1.2915,-1.2915,-1.2915,-1.2915,-1.2915,-1.2915,-1.2915,-1.2915,-1.2847,-1.2774,-1.2774,-1.2725,-1.2584,-1.1857,-1.1266,-1.0864,-1.1391,-1.1001,-1.0286,-1.0623,-1.0491,-1.0171,-1.0264,-1.0312,-1.0254,-0.9974,-0.9654,-0.9462,-0.9906,-1.0058,-1.0352,-1.1541,-1.1562,-1.1819,0.0,-1.3945,-1.3919,-1.4805,-1.5439,-1.5811,-1.587,-1.6633,-1.7259,-1.7259,-1.7598,-1.7891,-1.793,-1.7949,-1.793,-1.7871,-1.791,-1.8086,-1.8422,-1.8539,-1.8754,-1.918,-1.9609,-1.9844,-1.9844,-2.0215,-2.0833,-2.1665,-2.0889,-2.127,-2.3018,-2.1308,-2.0871,-2.1703,-2.0851,-2.0449,-2.0449,-2.0449,-2.0449,-2.0449,-2.0019,-1.9629,-1.9297,-1.9297,-1.9258,-1.9219,-1.9219,-1.8945,-1.8481,-1.8144,-1.8008,-1.8008,-0.2396,-0.2876,-0.342,-0.3905,-0.4111,-0.4315,-0.4599,-0.4626,-0.4686,-0.4844,-0.5033,-0.5217,-0.539,-0.5556,-0.6004,-0.6862,-0.7583,-0.8597,-1.0059,-1.1056,-1.1858,-1.248,-1.2734,-1.2915,-1.2915,-1.2915,-1.2915,-1.2915,-1.2915,-1.2915,-1.2915,-1.2915,-1.2915,-1.2915,-1.2915,-1.2915,-1.2915,-1.2915,-1.2915,-1.2915,-1.2915,-1.2915,-1.2871,-1.2559,-1.2097,-1.1604,-1.149,-1.1405,0.0,-1.1282,-1.1318,-1.1336,-1.115,-1.126,-1.138,-1.1073,-1.0856,-1.0822,-1.1283,-1.1602,-1.2031,-1.3061,-1.3379,-1.3756,-1.4883,-1.5195,-1.5352,-1.5752,-1.6378,-1.6868,-1.6868,-1.7344,-1.7832,0.0,-1.8227,-1.8344,-1.8344,-1.8344,-1.8247,-1.8047,-1.8008,-1.8184,-1.8559,-1.8867,-1.9199,-1.9609,-2.0059,-2.0293,-2.0293,-2.0507,-2.0779,-2.1145,-2.0779,-2.0972,-2.1794,-2.1011,-2.0779,-2.1183,-2.0799,-2.0605,-2.0605,-2.0605,-2.0605,-2.0586,-2.041,-2.0195,-2.0077,-2.0077,-1.9883,-1.9648,-1.9648,-1.9394,-1.8965,-1.85,-1.8188,-1.8008,-0.2389,-0.2739,-0.3136,-0.3598,-0.3834,-0.404,-0.4264,-0.4295,-0.4366,-0.4557,-0.4646,-0.4795,-0.5078,-0.502,-0.5327,-0.616,-0.7037,-0.8075,-0.9357,-1.0586,-1.1526,-1.2184,-1.2539,-1.2778,-1.2915,-1.2915,-1.2915,-1.2915,-1.2915,-1.2915,-1.2915,-1.2915,-1.2915,-1.2915,-1.2915,-1.2915,-1.2915,-1.2915,-1.2915,-1.2915,-1.2915,-1.2915,-1.2895,-1.2778,-1.25,-1.2134,-1.1654,-1.1639,-1.1794,-1.1506,-1.1602,-1.1794,-1.1506,-1.168,-1.2012,-1.1819,-1.1858,-1.2015,-1.2301,-1.2812,-1.3437,-1.425,-1.4805,-1.5302,-1.584,-1.6191,-1.6496,-1.6613,-1.7142,-1.7559,-1.7559,-1.7812,-1.8144,-1.8539,-1.8598,-1.8637,-1.8754,-1.8676,-1.8481,-1.8188,-1.8086,-1.8223,-1.8734,-1.9102,-1.9512,-2.0059,-2.0429,-2.0605,-2.0605,-2.0605,-2.0605,-2.0605,-2.0605,-2.0605,-2.0605,-2.0605,-2.0605,-2.0605,-2.0605,-2.0605,-2.0605,-2.0605,-2.0605,-2.0605,-2.0605,-2.0605,-2.0605,-2.0605,-2.0391,-2.0098,-2.0098,-1.9844,-1.9414,-1.9065,-1.8617,-1.8184,-0.2014,-0.2393,-0.2799,-0.3079,-0.3132,-0.3408,-0.4173,-0.4295,-0.4295,-0.4305,-0.4537,-0.4795,-0.5078,-0.4864,-0.5019,-0.5762,-0.6614,-0.7656,-0.8945,-0.9844,-1.0898,-1.2145,-1.2223,-1.2418,-1.2895,-1.2915,-1.2915,-1.2915,-1.2915,-1.2915,-1.2915,-1.2915,-1.2915,-1.2915,-1.2915,-1.2915,-1.2915,-1.2915,-1.2915,-1.2915,-1.2915,-1.2915,-1.2856,-1.2379,-1.2223,-1.2203,-1.218,-1.1635,-1.0957,-1.0937,-1.0937,-1.0957,-1.0937,-1.1252,-1.1682,-1.2067,-1.25,-1.2876,-1.2876,-1.3477,-1.427,-1.5128,-1.5703,-1.6281,-1.7129,-1.7357,-1.7461,-1.7871,-1.7969,-1.7988,-1.7988,-1.8008,-1.8144,-1.8539,-1.8598,-1.8754,-1.9199,-1.8906,-1.8598,-1.8578,-1.8227,-1.834,0.0,-1.9277,-1.9666,-2.0527,-2.0605,-2.0605,-2.0605,-2.0605,-2.0605,-2.0605,-2.0605,-2.0605,-2.0605,-2.0605,-2.0605,-2.0605,-2.0605,-2.0605,-2.0605,-2.0605,-2.0605,-2.0605,-2.0605,-2.0605,-2.0605,-2.0605,-2.0605,-2.0586,-2.0586,-2.0273,-1.9883,-1.9883,-1.9299,-1.8578,-0.2132,-0.2437,-0.2735,-0.2821,-0.2982,-0.3196,-0.3458,-0.3661,-0.3828,-0.4014,-0.4264,0.0,0.0,0.0,0.0,0.0,-0.6038,-0.6882,-0.8055,-0.9201,-1.0176,-1.0898,-1.1736,-1.2281,-1.2418,-1.2734,-1.2915,-1.2915,-1.2915,-1.2915,-1.2915,-1.2915,-1.2915,-1.2915,-1.2915,-1.2915,-1.2915,-1.2915,-1.2915,-1.2915,-1.2915,-1.2915,-1.2895,-1.2715,-1.2109,-1.1326,0.0,-1.0977,-1.0449,-1.0137,-1.0235,-1.0488,-1.0488,-1.0997,-1.1663,-1.2067,-1.2905,-1.3685,-1.3685,-1.4551,-1.5547,-1.6102,-1.6621,-1.7122,-1.7676,-1.7793,-1.7754,-1.7617,-1.7598,-1.75,-1.7174,-1.7402,-1.7812,-1.8481,-1.8851,-1.9219,-1.9648,-1.957,-1.9241,-1.8676,-1.8769,0.0,0.0,0.0,0.0,-2.0507,-2.0293,-2.0391,-2.0977,-2.1016,-2.1133,-2.1426,-2.1445,-2.1445,-2.1445,-2.1445,-2.1289,-2.0996,-2.0742,-2.0605,-2.0605,-2.0605,-2.0605,-2.0605,-2.0605,-2.0605,-2.0605,-2.0605,-2.0605,-2.0605,-2.0605,-2.0507,-2.0352,-2.0352,-1.998,-1.9358,-0.1983,-0.22,-0.24,-0.2498,-0.266,0.0,0.0,0.0,0.0,0.0,0.0,0.0,0.0,0.0,0.0,0.0,0.0,-0.6063,-0.7029,-0.8017,-0.8955,-0.9805,-1.0619,-1.1195,-1.1502,-1.1816,-1.2054,-1.2187,-1.2187,-1.2289,-1.2426,-1.2578,-1.2656,-1.2656,-1.2837,-1.2915,-1.2915,-1.2915,-1.2915,-1.2895,-1.2715,-1.2656,-1.2598,-1.2152,-1.1447,0.0,-1.0176,-0.9922,-0.9785,-0.9494,-0.9805,-1.0293,-1.0293,-1.0997,-1.1917,-1.2324,-1.3237,-1.4172,-1.4484,-1.543,-1.6406,-1.6855,-1.7285,-1.7676,-1.7949,-1.7891,-1.7656,-1.7246,-1.7031,-1.6777,-1.6317,-1.6484,-1.7051,-1.8188,-1.8652,-1.9141,-2.0019,-2.0019,-1.967,-1.9124,-1.9336,-1.9512,0.0,0.0,0.0,-2.0527,-2.0449,-2.0586,-2.1171,-2.1346,-2.1602,-2.1875,-2.1894,-2.1894,-2.1894,-2.1894,-2.1738,-2.1465,-2.1172,-2.0997,-2.0801,-2.0801,-2.0762,-2.0605,-2.0605,-2.0605,-2.0605,-2.0605,-2.0605,-2.0605,-2.0605,-2.0605,-2.0605,-2.0605,-2.0429,-2.0039,-0.161,-0.171,-0.1876,0.0,0.0,0.0,0.0,0.0,0.0,0.0,0.0,0.0,0.0,0.0,0.0,0.0,0.0,0.0,-0.5893,-0.6393,-0.7333,-0.8856,-0.8964,-0.9376,-1.0254,-1.0293,-1.0488,-1.0879,-1.0879,-1.1115,-1.1547,-1.1934,-1.2106,-1.2125,-1.2578,-1.2798,-1.2798,-1.2837,-1.2817,-1.2758,-1.2301,-1.2125,-1.1969,-1.0762,-1.0273,-1.0078,-0.8864,-0.8669,-0.8984,-0.9023,-0.9629,-1.041,-1.043,-1.1289,-1.2359,-1.2852,-1.3574,-1.4387,-1.5225,-1.6102,-1.6863,-1.7305,-1.7715,-1.8008,-1.7988,-1.7656,-1.7227,-1.6726,-1.6309,-1.5889,-1.543,-1.5391,-1.5996,-1.7695,-1.8027,-1.8652,-2.037,-2.0234,-1.998,0.0,0.0,0.0,0.0,0.0,0.0,-2.0644,0.0,-2.119,-2.1249,-2.1699,-2.1934,-2.1953,-2.1953,-2.1953,-2.1953,-2.1934,-2.1914,-2.1914,-2.1894,-2.166,-2.1229,-2.1229,-2.1035,-2.0664,-2.0644,-2.0644,-2.0644,-2.0625,-2.0605,-2.0605,-2.0605,-2.0605,-2.0605,-2.0605,-2.0605,-2.0546,0.0,0.0,0.0,0.0,0.0,0.0,0.0,0.0,0.0,0.0,0.0,0.0,0.0,0.0,0.0,0.0,0.0,0.0,-0.5206,-0.5646,-0.6428,-0.7688,-0.835,-0.9035,-0.9767,-1.0117,-1.0352,-1.0449,-1.0449,-1.0528,-1.0625,-1.0743,-1.0781,-1.0801,-1.123,-1.1406,-1.1426,-1.178,-1.1741,-1.1406,-1.1289,-1.1055,-1.0742,-1.043,-0.9901,-0.9297,-0.8965,-0.8711,-0.8649,-0.924,-1.0468,-1.1775,-1.2132,-1.2656,-1.332,-1.4082,-1.493,-1.5684,-1.6219,-1.6999,-1.7715,-1.7812,-1.793,-1.793,-1.7617,-1.7207,-1.6648,-1.5868,-1.541,-1.498,-1.4523,-1.5254,-1.6281,-1.7363,-1.834,0.0,-2.0449,-2.0762,0.0,-2.0468,0.0,-2.125,-2.0898,-2.1191,0.0,0.0,-2.1035,-2.1172,-2.2129,-2.2285,-2.25,-2.2769,-2.2769,-2.2769,-2.2769,-2.25,-2.2363,-2.2344,-2.2031,-2.1836,-2.1719,-2.1719,-2.166,-2.1523,-2.1211,-2.1055,-2.1035,-2.0703,-2.0605,-2.0605,-2.0605,-2.0605,-2.0605,-2.0605,-2.0605,-2.0586,0.0,0.0,0.0,0.0,0.0,0.0,0.0,0.0,0.0,0.0,0.0,0.0,0.0,0.0,0.0,0.0,0.0,0.0,0.0,-0.4763,-0.5315,-0.6247,-0.6766,-0.7344,-0.8001,-0.8469,-0.8776,-0.8898,-0.9106,-0.9296,-0.9468,-0.9639,-0.9829,-1.002,-1.0449,-1.0645,-1.0645,-1.0919,-1.088,0.0,0.0,-1.0196,-0.9961,-0.9608,-0.9158,-0.873,-0.873,-0.9062,-0.9629,-1.0468,-1.1658,-1.2866,-1.3516,-1.4004,-1.4473,-1.5185,-1.5987,-1.677,-1.7168,-1.791,-1.8516,-1.8286,-1.8144,-1.7852,-1.7246,-1.6602,-1.5829,-1.4785,-1.4394,-1.3965,-1.3164,-1.4062,-1.5293,0.0,0.0,0.0,-2.0117,-2.084,-2.1093,0.0,-2.1621,0.0,-2.1562,-2.1914,-2.2168,0.0,-2.1699,-2.1738,-2.248,-2.2695,-2.2847,-2.3081,-2.3101,-2.3101,-2.3101,-2.2867,-2.275,-2.275,-2.2539,-2.2344,-2.2168,-2.2168,-2.207,-2.1875,0.0,-2.1523,-2.1484,-2.1035,-2.0859,-2.084,-2.0683,-2.0605,-2.0605,-2.0605,-2.0605,-2.0605,0.0,0.0,0.0,0.0,0.0,0.0,0.0,0.0,0.0,-0.2929,-0.3037,0.0,0.0,0.0,0.0,0.0,0.0,0.0,0.0,0.0,-0.423,-0.4916,-0.4952,-0.5265,-0.5923,-0.6345,-0.6716,-0.7042,-0.7393,-0.7788,-0.8238,-0.8531,-0.8874,-0.9288,-0.975,-0.9982,-1.0058,-1.0117,-1.0097,-1.0019,-0.9611,-0.9398,-0.9279,0.0,-0.8297,-0.8316,-0.8434,-0.9473,-1.0977,-1.195,-1.2905,-1.3809,-1.4609,-1.5195,-1.5664,-1.6144,-1.6848,-1.7559,-1.7988,-1.8672,-1.918,-1.8715,-1.8286,-1.7773,-1.6824,-1.5888,-1.4874,-1.3672,-1.334,-1.293,-1.1858,-1.2676,-1.3945,-1.5273,0.0,-1.7969,-1.9668,-2.0644,-2.121,-2.1268,-2.2029,-2.2441,-2.209,-2.2383,-2.2598,-2.2598,-2.2598,-2.2598,-2.2598,-2.2906,-2.3101,-2.3101,-2.3101,-2.3101,-2.3101,-2.3101,-2.3101,-2.3101,-2.3101,-2.2906,-2.2598,-2.2598,-2.2402,-2.2051,-2.1992,0.0,-2.1934,-2.1504,-2.1249,-2.1151,-2.0801,-2.0664,-2.0605,-2.0605,-2.0605,-2.0605,0.0,0.0,0.0,0.0,0.0,0.0,0.0,0.0,-0.2027,-0.2471,-0.2669,-0.2789,-0.2832,-0.3036,0.0,0.0,0.0,0.0,0.0,0.0,0.0,-0.4641,-0.4669,-0.4981,-0.565,-0.5744,-0.6114,-0.6767,-0.6519,-0.6705,-0.732,-0.7049,-0.7146,-0.7553,-0.7959,-0.8361,-0.8747,-0.9082,-0.9023,-0.8727,-0.8649,-0.8379,-0.8016,-0.7876,0.0,0.0,-0.8633,-0.9531,-1.0645,-1.2227,-1.36,-1.4648,-1.5156,-1.5859,-1.6551,-1.7031,-1.75,-1.7988,-1.8383,-1.8906,-1.918,-1.8715,-1.8286,-1.7695,-1.6496,-1.5234,-1.4075,-1.3184,-1.2426,-1.1956,-1.209,-1.2871,-1.4043,-1.5713,-1.6789,-1.7969,-1.9668,-2.0644,-2.1327,0.0,0.0,0.0,0.0,0.0,0.0,0.0,0.0,-2.2984,-2.2984,-2.3062,-2.3101,-2.3101,-2.3101,-2.3101,-2.3101,-2.3101,-2.3101,-2.3101,-2.3101,-2.3062,-2.2984,-2.2984,-2.2945,-2.2847,-2.2559,0.0,-2.2363,-2.1953,-2.1562,-2.119,-2.1112,-2.0898,-2.0605,-2.0605,-2.0605,-2.0605,0.0,0.0,0.0,0.0,0.0,0.0,0.0,-0.1817,-0.2002,-0.2266,-0.238,-0.2538,-0.2771,-0.2863,-0.295,0.0,0.0,0.0,0.0,0.0,0.0,-0.4016,-0.4027,-0.4245,-0.4701,-0.5094,-0.5433,-0.5702,0.0,-0.6264,-0.679,-0.6381,-0.6624,-0.7421,-0.7397,-0.7627,-0.8047,-0.8246,-0.8207,-0.8047,-0.8047,-0.7895,-0.7705,-0.7705,0.0,0.0,-0.885,-0.9687,-1.0762,-1.1858,-1.3071,-1.4316,-1.541,-1.6211,-1.6785,-1.7246,-1.7832,-1.8403,-1.8867,-1.9453,-1.9805,-1.9141,-1.8496,-1.7598,-1.6074,-1.4727,-1.3496,-1.2445,-1.19,-1.1506,-1.125,-1.2285,-1.3457,-1.4304,-1.5508,-1.6953,-1.8672,-1.9826,0.0,0.0,0.0,0.0,0.0,0.0,0.0,0.0,0.0,-2.3101,-2.3101,-2.3101,-2.3101,-2.3101,-2.3101,-2.3101,-2.3101,-2.3101,-2.3101,-2.3101,-2.3101,-2.3101,-2.3101,-2.3101,-2.3101,-2.3081,-2.2886,0.0,-2.2769,-2.2383,-2.209,-2.1814,-2.1366,-2.1054,-2.0879,-2.0683,-2.0605,-2.0605,0.0,0.0,0.0,0.0,0.0,0.0,-0.1429,-0.1711,-0.196,-0.2094,-0.2169,-0.234,-0.2705,-0.2686,-0.271,0.0,0.0,0.0,0.0,0.0,0.0,0.0,-0.3495,-0.3601,-0.3807,0.0,0.0,0.0,-0.5399,0.0,0.0,0.0,0.0,0.0,-0.7163,-0.7285,-0.7583,-0.7656,-0.7705,0.0,0.0,-0.7705,-0.7705,0.0,0.0,0.0,0.0,-0.9844,-1.0859,-1.1408,-1.2269,-1.3379,-1.5028,-1.6016,-1.668,-1.7109,-1.7852,-1.8578,-1.9141,-1.9844,-2.0234,-1.9473,-1.8574,-1.7441,-1.5781,-1.4277,-1.291,-1.1819,-1.1449,-1.1155,-1.0547,-1.1623,-1.2719,-1.2969,-1.4297,-1.5918,-1.7754,-1.9102,0.0,0.0,0.0,0.0,0.0,0.0,0.0,0.0,0.0,0.0,-2.3101,-2.3101,-2.3101,-2.3101,-2.3101,-2.3101,-2.3101,-2.3101,-2.3101,-2.3101,-2.3101,-2.3101,-2.3101,-2.3101,-2.3101,-2.3101,-2.3101,0.0,0.0,-2.2773,-2.2598,-2.2441,-2.1736,-2.1346,-2.1151,-2.084,-2.0683,-2.0605,0.0,0.0,0.0,0.0,0.0,0.0,-0.0958,-0.1342,-0.1686,-0.1827,-0.2052,-0.2218,-0.2259,-0.2358,-0.2389,0.0,0.0,0.0,0.0,0.0,0.0,0.0,0.0,0.0,0.0,0.0,0.0,0.0,0.0,0.0,0.0,0.0,0.0,0.0,0.0,0.0,-0.7178,-0.7554,0.0,0.0,0.0,0.0,0.0,0.0,0.0,0.0,0.0,-0.9884,-1.0488,-1.1332,-1.1685,-1.1995,-1.332,-1.4844,-1.6242,-1.6629,-1.7369,-1.8242,-1.9062,-1.9629,-1.9863,-1.9394,-1.8359,-1.709,-1.5723,-1.3802,-1.2184,-1.1682,-1.0958,-1.0508,-1.0801,-1.133,-1.2093,-1.3262,-1.4238,-1.5586,-1.7715,-1.9102,0.0,0.0,0.0,0.0,0.0,0.0,0.0,0.0,0.0,0.0,-2.3101,-2.3101,-2.3101,-2.3101,-2.3101,-2.3101,-2.3101,-2.3101,-2.3101,-2.3101,-2.3101,-2.3101,-2.3101,-2.3101,-2.3101,-2.3101,-2.3101,0.0,0.0,-2.3062,-2.2808,-2.25,-2.2422,-2.1873,-2.119,-2.1151,-2.0918,-2.0605,0.0,0.0,0.0,0.0,0.0,0.0,-0.0763,-0.107,-0.1353,-0.1478,-0.1834,-0.2044,-0.1967,-0.215,-0.2264,-0.2196,0.0,0.0,0.0,0.0,0.0,0.0,0.0,0.0,0.0,0.0,-0.4378,0.0,0.0,0.0,0.0,0.0,0.0,0.0,0.0,0.0,0.0,-0.7163,0.0,0.0,0.0,0.0,0.0,0.0,0.0,0.0,0.0,0.0,-1.0352,-1.0704,-1.0978,-1.127,-1.1777,-1.2969,-1.4402,-1.5586,-1.6531,-1.7389,-1.8281,-1.9023,-1.9434,-1.9004,-1.793,-1.6719,-1.5644,-1.3743,-1.2086,-1.1682,-1.0899,-1.041,-1.084,-1.1055,-1.1523,-1.2554,-1.3003,-1.3906,-1.5801,-1.7187,0.0,0.0,0.0,0.0,0.0,0.0,0.0,0.0,0.0,0.0,-2.3101,-2.3101,-2.3101,-2.3101,-2.3101,-2.3101,-2.3101,-2.3101,-2.3101,-2.3101,-2.3101,-2.3101,-2.3101,-2.3101,-2.3101,-2.3101,-2.3101,0.0,0.0,-2.3101,-2.3003,-2.2828,-2.2617,-2.2305,-2.1892,-2.1385,-2.1093,-2.0937,0.0,0.0,0.0,0.0,0.0,-0.033,-0.047,-0.0768,-0.1012,-0.1113,-0.1595,-0.191,-0.1808,-0.2001,-0.2147,-0.2142,-0.2182,0.0,0.0,0.0,0.0,0.0,0.0,0.0,0.0,0.0,-0.4436,-0.4516,-0.5052,0.0,0.0,0.0,0.0,0.0,0.0,0.0,0.0,0.0,0.0,0.0,0.0,0.0,0.0,0.0,0.0,0.0,0.0,0.0,0.0,0.0,0.0,-1.0742,-1.0859,-1.1543,-1.2637,-1.4336,-1.5537,-1.6531,-1.7559,-1.8359,-1.8828,-1.8535,-1.7447,-1.6309,-1.543,-1.3574,-1.1934,-1.1643,-1.0899,-1.041,-1.084,-1.1016,-1.1348,-1.2086,-1.2418,-1.3178,-1.495,-1.6191,0.0,0.0,0.0,0.0,0.0,0.0,0.0,0.0,0.0,0.0,-2.3101,-2.3101,-2.3101,-2.3101,-2.3101,-2.3101,-2.3101,-2.3101,-2.3101,-2.3101,-2.3101,-2.3101,-2.3101,-2.3101,-2.3101,-2.3101,-2.3101,0.0,0.0,-2.3101,-2.3101,-2.3062,-2.2769,-2.2617,-2.2441,-2.1795,-2.1405,-2.1151,0.0,0.0,0.0,0.0,0.0,0.0,-0.0011,-0.0408,-0.0703,-0.0703,-0.1349,-0.1802,-0.1797,-0.1914,-0.2002,-0.2008,-0.2119,0.0,0.0,0.0,0.0,0.0,0.0,0.0,0.0,0.0,-0.4529,-0.4793,-0.513,-0.5293,-0.5309,0.0,0.0,0.0,0.0,0.0,0.0,0.0,0.0,0.0,0.0,0.0,-0.7849,0.0,0.0,0.0,0.0,0.0,0.0,0.0,0.0,0.0,0.0,-1.0918,-1.1248,-1.3008,-1.4434,-1.5723,-1.7031,-1.7695,-1.8027,-1.8008,-1.7031,-1.587,-1.498,-1.315,-1.1606,-1.1606,-1.0899,-1.041,-1.084,-1.1291,-1.1721,-1.2125,-1.2905,-1.4102,-1.5831,-1.6848,0.0,0.0,0.0,0.0,0.0,0.0,0.0,0.0,0.0,0.0,-2.3101,-2.3101,-2.3101,-2.3101,-2.3101,-2.3101,-2.3101,-2.3101,-2.3101,-2.3101,-2.3101,-2.3101,-2.3101,-2.3101,-2.3101,0.0,0.0,0.0,0.0,-2.3101,-2.3101,-2.3101,-2.3081,-2.2828,-2.2519,-2.25,-2.1912,-2.119,0.0,0.0,0.0,0.0,0.0,0.0,0.0,-0.0126,-0.0221,-0.0221,-0.0709,-0.1116,-0.1301,-0.1562,-0.1803,-0.1983,-0.1958,0.0,0.0,0.0,0.0,0.0,0.0,0.0,0.0,-0.4275,-0.4649,-0.5144,-0.5438,-0.5695,-0.5914,-0.5817,-0.5688,0.0,0.0,0.0,0.0,0.0,0.0,0.0,0.0,-0.7494,-0.7833,0.0,0.0,0.0,0.0,0.0,0.0,0.0,0.0,0.0,0.0,0.0,0.0,-1.1562,-1.2852,-1.4258,-1.4933,-1.5654,-1.6172,-1.5879,-1.5273,-1.4668,-1.4367,-1.2915,-1.1606,-1.1606,-1.0899,-1.0528,-1.1252,-1.1252,-1.1641,-1.3237,-1.349,-1.4004,-1.541,0.0,0.0,0.0,0.0,0.0,0.0,0.0,0.0,0.0,0.0,0.0,-2.3101,-2.3101,-2.3101,-2.3101,-2.3101,-2.3101,-2.3101,-2.3101,-2.3101,-2.3101,-2.3101,-2.3101,-2.3101,-2.3101,-2.3101,0.0,0.0,0.0,0.0,-2.3101,-2.3101,-2.3101,-2.3101,-2.3023,-2.2867,-2.2617,-2.2344,-2.207,0.0,0.0,0.0,0.0,0.0,0.0,0.0,0.0,0.0,0.0,-0.0339,-0.0719,-0.1067,-0.1334,-0.1627,-0.1964,-0.1884,0.0,0.0,0.0,0.0,0.0,0.0,0.0,-0.3979,-0.416,-0.4643,-0.5454,-0.5625,-0.5865,-0.6196,-0.599,-0.5825,-0.5688,-0.5531,0.0,0.0,0.0,0.0,0.0,-0.7005,-0.7131,-0.7241,0.0,0.0,0.0,0.0,0.0,0.0,0.0,0.0,0.0,0.0,0.0,0.0,0.0,-1.168,-1.2734,-1.3627,-1.4367,-1.4874,-1.4805,-1.4336,-1.3821,-1.3665,-1.2441,-1.133,-1.133,-1.0782,-1.0567,-1.1449,-1.1349,-1.1699,-1.3398,-1.3549,-1.3945,-1.5234,0.0,0.0,0.0,0.0,0.0,0.0,0.0,0.0,0.0,0.0,0.0,-2.3101,-2.3101,-2.3101,-2.3101,-2.3101,-2.3101,-2.3101,-2.3101,-2.3101,-2.3101,-2.3101,-2.3101,-2.3101,-2.3101,-2.3101,0.0,0.0,0.0,0.0,-2.3101,-2.3101,-2.3101,-2.3101,-2.3101,-2.3062,-2.2808,-2.2656,-2.248,0.0,0.0,0.0,0.0,0.0,0.0,0.0,0.0,0.0,0.0,-0.0234,-0.0573,-0.104,-0.1216,-0.1485,-0.1944,-0.1877,0.0,0.0,0.0,0.0,0.0,0.0,0.0,-0.3986,-0.3998,-0.4575,-0.5728,-0.5741,-0.5932,-0.629,-0.629,-0.6097,-0.5754,-0.5741,-0.5588,0.0,0.0,0.0,0.0,-0.6798,-0.6684,0.0,0.0,0.0,0.0,0.0,0.0,0.0,0.0,0.0,0.0,0.0,0.0,0.0,0.0,0.0,0.0,0.0,-1.3607,-1.4016,-1.4414,-1.3926,-1.3262,-1.2895,-1.1816,0.0,-1.0918,-1.0605,-1.0606,-1.1467,-1.1623,-1.1959,-1.2895,-1.3359,-1.4082,-1.5371,-1.6758,0.0,0.0,0.0,0.0,0.0,0.0,0.0,0.0,0.0,0.0,-2.3101,-2.3101,-2.3101,-2.3101,-2.3101,-2.3101,-2.3101,-2.3101,-2.3101,-2.3101,-2.3101,-2.3101,-2.3101,-2.3101,-2.3101,0.0,0.0,0.0,0.0,-2.3101,-2.3101,-2.3101,-2.3101,-2.3101,-2.3101,-2.3101,-2.2847,-2.2559,0.0,0.0,0.0,0.0,0.0,0.0,0.0,0.0,0.0,0.0,-0.0234,-0.054,-0.0904,-0.1154,-0.1452,0.0,0.0,0.0,0.0,0.0,0.0,0.0,0.0,0.0,-0.3986,-0.3998,-0.4678,-0.6088,-0.6298,-0.6673,-0.7204,-0.7204,-0.6901,-0.6373,-0.6164,-0.5965,0.0,0.0,0.0,0.0,-0.6455,-0.6559,0.0,0.0,0.0,0.0,-0.8277,-0.8711,0.0,0.0,0.0,0.0,0.0,0.0,0.0,0.0,-1.043,-1.0586,-1.1328,0.0,-1.2132,-1.1875,-1.1914,-1.2015,0.0,-1.1367,-1.0918,-1.0918,-1.082,-1.1035,-1.1892,-1.2047,-1.2578,-1.4082,-1.4687,-1.543,-1.6738,0.0,0.0,0.0,0.0,0.0,0.0,0.0,0.0,0.0,0.0,-2.3101,-2.3101,-2.3101,-2.3101,-2.3101,-2.3101,-2.3101,-2.3101,-2.3101,-2.3101,-2.3101,-2.3101,-2.3101,-2.3101,-2.3101,-2.3101,0.0,0.0,0.0,-2.3101,-2.3101,-2.3101,-2.3101,-2.3101,-2.3101,-2.3101,-2.3101,-2.3042,-2.2945,0.0,0.0,0.0,0.0,0.0,0.0,0.0,0.0,0.0,0.0,-0.0234,-0.0522,-0.0859,-0.1141,-0.1441,0.0,0.0,0.0,0.0,0.0,0.0,0.0,0.0,-0.2756,-0.3748,-0.3773,-0.4568,-0.6196,-0.6357,-0.678,-0.7513,-0.7343,-0.7027,-0.6579,-0.6017,-0.5837,0.0,0.0,0.0,-0.6007,-0.6165,0.0,0.0,0.0,0.0,0.0,-0.7928,-0.8477,0.0,-0.924,-0.9766,-1.0293,0.0,0.0,0.0,0.0,-1.0293,-1.0352,-1.0566,-1.123,-1.1855,-1.1816,-1.1836,-1.1914,-1.2152,-1.1523,-1.0977,-1.1193,-1.1232,-1.1406,-1.2086,-1.2379,-1.2949,-1.4277,-1.5,-1.6152,0.0,0.0,0.0,0.0,0.0,0.0,0.0,0.0,0.0,0.0,0.0,-2.3101,-2.3101,-2.3101,-2.3101,-2.3101,-2.3101,-2.3101,-2.3101,-2.3101,-2.3101,-2.3101,-2.3101,-2.3101,-2.3101,-2.3101,-2.3101,0.0,0.0,0.0,-2.3101,-2.3101,-2.3101,-2.3101,-2.3101,-2.3101,-2.3101,-2.3101,-2.3101,-2.3101,0.0,0.0,0.0,0.0,0.0,0.0,0.0,0.0,0.0,0.0,0.0,0.0,0.0,0.0,0.0,0.0,0.0,0.0,0.0,0.0,0.0,0.0,-0.1829,-0.2387,-0.355,-0.3547,-0.4408,-0.6196,-0.629,-0.6734,-0.7513,-0.7348,-0.7046,-0.6613,-0.5749,-0.5524,-0.5781,-0.5451,-0.5574,-0.5959,-0.5922,0.0,0.0,0.0,0.0,0.0,0.0,0.0,0.0,-0.8984,-0.9531,-1.0215,-1.0273,0.0,0.0,0.0,0.0,0.0,-1.0469,-1.1387,-1.234,-1.2539,-1.2402,-1.2281,-1.2641,-1.1816,-1.1113,-1.1528,-1.1665,-1.1839,-1.2301,-1.2773,-1.3379,-1.425,-1.5312,0.0,0.0,0.0,0.0,0.0,0.0,0.0,0.0,0.0,0.0,0.0,0.0,-2.3101,-2.3101,-2.3101,-2.3101,-2.3101,-2.3101,-2.3101,-2.3101,-2.3101,-2.3101,-2.3101,-2.3101,-2.3101,-2.3101,-2.3101,-2.3101,-2.3101,0.0,0.0,-2.3101,-2.3101,-2.3101,-2.3101,-2.3101,-2.3101,-2.3101,-2.3101,-2.3101,-2.3101,0.0,0.0,0.0,0.0,0.0,0.0,0.0,0.0,0.0,0.0,0.0,0.0,0.0,0.0,0.0,0.0,0.0,0.0,0.0,0.0,0.0,-0.1967,-0.1974,-0.2591,-0.3898,-0.3818,-0.4549,-0.6196,-0.6653,-0.7081,-0.7527,-0.8203,-0.7939,-0.69,-0.6021,-0.5537,-0.5388,-0.5325,-0.5345,-0.5459,-0.5782,0.0,0.0,0.0,0.0,0.0,0.0,0.0,0.0,-0.8887,-0.9318,-0.9786,-1.0156,0.0,0.0,0.0,0.0,0.0,-1.1214,-1.2074,-1.2539,-1.1484,-1.1697,-1.2125,-1.1858,-1.1645,-1.1528,-1.1587,-1.1855,-1.234,-1.3139,-1.3627,-1.4336,0.0,0.0,0.0,0.0,0.0,0.0,0.0,0.0,0.0,0.0,0.0,0.0,0.0,0.0,0.0,-2.3101,-2.3101,-2.3101,-2.3101,-2.3101,-2.3101,-2.3101,-2.3101,-2.3101,-2.3101,-2.3101,-2.3101,-2.3101,-2.3101,-2.3101,-2.3101,0.0,-2.3101,-2.3101,-2.3101,-2.3101,-2.3101,-2.3101,-2.3101,-2.3101,-2.3101,-2.3101,-2.3101,0.0,0.0,0.0,0.0,0.0,0.0,0.0,0.0,0.0,0.0,0.0,0.0,0.0,0.0,0.0,0.0,0.0,0.0,0.0,0.0,-0.1886,-0.2097,-0.249,-0.3141,-0.4085,-0.4183,-0.5022,-0.6627,-0.7054,-0.7517,-0.7986,-0.8067,-0.7558,-0.6553,-0.5959,-0.5544,-0.5293,-0.5293,-0.5419,-0.5641,0.0,0.0,0.0,0.0,0.0,0.0,0.0,0.0,0.0,0.0,-0.9102,-0.9631,-0.9845,0.0,0.0,0.0,0.0,0.0,-1.0782,-1.168,-1.2383,-1.1755,-1.2418,-1.3295,-1.3574,-1.3281,-1.3008,-1.3287,-1.3477,-1.373,-1.4121,0.0,-1.5762,0.0,0.0,0.0,0.0,0.0,0.0,0.0,0.0,0.0,0.0,0.0,0.0,0.0,0.0,0.0,-2.3101,-2.3101,-2.3101,-2.3101,-2.3101,-2.3101,-2.3101,-2.3101,-2.3101,-2.3101,-2.3101,-2.3101,-2.3101,-2.3101,-2.3101,-2.3101,0.0,-2.3101,-2.3101,-2.3101,-2.3101,-2.3101,-2.3101,-2.3101,-2.3101,-2.3101,-2.3101,-2.3101,0.0,0.0,0.0,0.0,0.0,0.0,0.0,0.0,0.0,0.0,0.0,0.0,0.0,0.0,0.0,0.0,0.0,0.0,0.0,-0.1829,-0.2002,-0.2349,-0.2883,-0.3565,-0.4445,-0.4751,-0.564,-0.7121,-0.7428,-0.7879,-0.8389,-0.7705,-0.6981,-0.6277,-0.5878,-0.5544,-0.5293,-0.5293,-0.5482,-0.5765,0.0,0.0,0.0,0.0,0.0,0.0,0.0,0.0,0.0,0.0,0.0,0.0,0.0,0.0,0.0,-1.0293,-1.0293,-1.0352,-1.0547,-1.1387,-1.2262,-1.2457,-1.3237,-1.4211,-1.5195,-1.4796,-1.4445,-1.5117,-1.5234,-1.5234,-1.5234,-1.6016,0.0,0.0,0.0,0.0,0.0,0.0,0.0,0.0,0.0,0.0,0.0,0.0,0.0,0.0,0.0,0.0,-2.3101,-2.3101,-2.3101,-2.3101,-2.3101,-2.3101,-2.3101,-2.3101,-2.3101,-2.3101,-2.3101,-2.3101,-2.3101,-2.3101,-2.3101,-2.3101,-2.3101,-2.3101,-2.3101,-2.3101,-2.3101,-2.3101,-2.3101,-2.3101,-2.3101,-2.3101,-2.3101,-2.3101,0.0,0.0,0.0,0.0,0.0,0.0,0.0,0.0,0.0,0.0,0.0,0.0,0.0,0.0,0.0,0.0,0.0,0.0,0.0,-0.1913,-0.224,-0.2828,-0.2789,-0.3524,-0.5191,-0.5602,-0.6342,-0.745,-0.7749,-0.8056,-0.8375,-0.7468,-0.688,-0.6553,-0.5959,-0.5544,-0.5293,-0.5293,-0.5309,-0.534,-0.534,0.0,0.0,0.0,0.0,0.0,0.0,0.0,0.0,0.0,0.0,0.0,0.0,0.0,-1.0293,-1.0293,-1.0293,-1.0469,-1.1292,-1.1836,-1.2398,-1.3198,-1.3477,-1.3887,-1.5137,-1.5059,-1.5098,-1.6297,-1.657,-1.657,-1.657,-1.7584,0.0,0.0,0.0,0.0,0.0,0.0,0.0,0.0,0.0,0.0,0.0,0.0,0.0,0.0,0.0,0.0,-2.3101,-2.3101,-2.3101,-2.3101,-2.3101,-2.3101,-2.3101,-2.3101,-2.3101,-2.3101,-2.3101,-2.3101,-2.3101,-2.3101,-2.3101,-2.3101,-2.3101,-2.3101,-2.3101,-2.3101,-2.3101,-2.3101,-2.3101,-2.3101,-2.3101,-2.3101,-2.3101,-2.3101,0.0,0.0,0.0,0.0,0.0,0.0,0.0,0.0,0.0,0.0,0.0,0.0,0.0,0.0,0.0,0.0,0.0,0.0,-0.1806,-0.185,-0.2102,-0.263,-0.2919,-0.3731,-0.5135,-0.5694,-0.6429,-0.7388,-0.7954,-0.8176,-0.8083,-0.7548,-0.7062,-0.6593,-0.6359,-0.611,-0.5846,-0.5641,-0.5544,-0.5581,-0.5902,-0.6075,0.0,0.0,0.0,0.0,0.0,0.0,0.0,0.0,-0.8538,-0.9062,-0.9395,-0.9862,-1.0293,-1.0293,-1.0293,-1.0371,-1.0704,-1.1702,-1.2715,-1.3047,-1.3906,-1.4961,-1.5966,-1.6523,-1.709,-1.8105,-1.832,-1.832,-1.832,0.0,0.0,0.0,0.0,0.0,0.0,0.0,0.0,0.0,0.0,0.0,0.0,0.0,0.0,0.0,0.0,0.0,0.0,-2.3101,-2.3101,-2.3101,-2.3101,-2.3101,-2.3101,-2.3101,-2.3101,-2.3101,-2.3101,-2.3101,-2.3101,-2.3101,-2.3101,-2.3101,-2.3101,-2.3101,-2.3101,-2.3101,-2.3101,-2.3101,-2.3101,-2.3101,-2.3101,-2.3101,-2.3101,-2.3101,0.0,0.0,0.0,0.0,0.0,0.0,0.0,0.0,0.0,0.0,0.0,0.0,0.0,0.0,0.0,0.0,0.0,0.0,-0.1806,-0.1836,-0.2082,-0.2601,-0.3062,-0.3803,-0.4843,-0.5653,-0.6499,-0.7364,-0.7864,-0.8013,-0.7776,-0.7397,-0.7048,-0.672,-0.6553,-0.6419,-0.6303,-0.5878,-0.5772,-0.5877,-0.6141,-0.6166,0.0,0.0,0.0,0.0,0.0,0.0,0.0,0.0,-0.8418,-0.9023,-0.9143,-0.9707,-1.0293,-1.0293,-1.0391,-1.0488,-1.0488,-1.1562,-1.2734,-1.3008,-1.4258,-1.5712,-1.6999,-1.7793,-1.8535,-1.9668,-1.9785,-1.9766,-2.0059,0.0,0.0,0.0,0.0,0.0,0.0,0.0,0.0,0.0,0.0,0.0,0.0,0.0,0.0,0.0,0.0,0.0,0.0,-2.3101,-2.3101,-2.3101,-2.3101,-2.3101,-2.3101,-2.3101,-2.3101,-2.3101,-2.3101,-2.3101,-2.3101,-2.3101,-2.3101,-2.3101,-2.3101,-2.3101,-2.3101,-2.3101,-2.3101,-2.3101,-2.3101,-2.3101,-2.3101,-2.3101,-2.3101,-2.3101,0.0,0.0,0.0,0.0,0.0,0.0,0.0,0.0,-0.1003,-0.1274,-0.1596,0.0,0.0,0.0,0.0,0.0,0.0,0.0,-0.1806,-0.1926,-0.2268,-0.2882,-0.3159,-0.3646,-0.4385,-0.5569,-0.6622,-0.7513,-0.7513,-0.7491,-0.7486,-0.6888,-0.6747,-0.698,-0.6445,-0.6371,-0.656,-0.5972,-0.5909,-0.6169,-0.5838,-0.5943,-0.6351,0.0,0.0,0.0,0.0,0.0,0.0,0.0,-0.8669,-0.9082,-0.9456,-0.9922,-1.0293,-1.0293,-1.0586,-1.0918,-1.0918,-1.1541,-1.2437,-1.3301,-1.4492,-1.5966,-1.813,-1.8672,-1.9196,-2.0859,-2.0898,-2.0899,-2.1719,-2.1212,0.0,0.0,0.0,0.0,0.0,0.0,0.0,0.0,0.0,0.0,0.0,0.0,0.0,0.0,0.0,0.0,0.0,-2.3101,-2.3101,-2.3101,-2.3101,-2.3101,-2.3101,-2.3101,-2.3101,-2.3101,-2.3101,-2.3101,-2.3101,-2.3101,-2.3101,-2.3101,-2.3101,-2.3101,-2.3101,-2.3101,-2.3101,-2.3101,-2.3101,-2.3101,-2.3101,-2.3101,-2.3101,-2.3101,0.0,0.0,0.0,0.0,0.0,0.0,0.0,0.0,-0.1296,-0.1607,-0.174,0.0,0.0,0.0,0.0,0.0,0.0,0.0,-0.1806,-0.1836,-0.2166,-0.2873,-0.2982,-0.3493,-0.4514,-0.5407,-0.6389,-0.7513,-0.7513,-0.7383,-0.7148,-0.6953,-0.6913,-0.7006,-0.7075,-0.7035,-0.6847,-0.6493,-0.6386,-0.6478,-0.648,-0.6588,-0.6787,0.0,0.0,0.0,0.0,0.0,0.0,0.0,0.0,0.0,-0.9062,-0.9687,-1.0293,-1.0293,-1.0821,-1.133,-1.0996,-1.2184,-1.3685,-1.4258,-1.584,-1.7637,-1.918,-1.9785,-2.0449,-2.1836,-2.2031,-2.1934,-2.1894,-2.168,0.0,0.0,0.0,0.0,0.0,0.0,0.0,0.0,0.0,0.0,0.0,0.0,0.0,0.0,0.0,0.0,0.0,-2.3101,-2.3101,-2.3101,-2.3101,-2.3101,-2.3101,-2.3101,-2.3101,-2.3101,-2.3101,-2.3101,-2.3101,-2.3101,-2.3101,-2.3101,-2.3101,-2.3101,-2.3101,-2.3101,-2.3101,-2.3101,-2.3101,-2.3101,-2.3101,-2.3101,-2.3101,-2.3101,0.0,0.0,0.0,0.0,0.0,0.0,0.0,0.0,-0.1419,-0.1762,-0.1806,-0.1806,0.0,0.0,0.0,-0.1806,-0.1806,0.0,-0.1806,-0.2024,-0.2375,-0.2873,-0.3282,-0.3987,-0.5016,-0.5711,-0.6293,-0.6794,-0.6922,-0.6941,-0.6854,-0.6953,-0.7126,-0.7366,-0.7575,-0.7482,-0.7174,-0.688,-0.6693,-0.6613,-0.6691,-0.6757,-0.684,0.0,0.0,0.0,0.0,0.0,0.0,0.0,0.0,0.0,-0.8926,-0.9473,-1.0059,-1.0254,-1.092,-1.1665,-1.1875,-1.2983,-1.4367,-1.5527,-1.7051,-1.8695,-2.0527,-2.1152,-2.1602,-2.2559,-2.2617,-2.248,-2.2402,-2.2246,0.0,0.0,0.0,0.0,0.0,0.0,0.0,0.0,0.0,0.0,0.0,0.0,0.0,0.0,0.0,0.0,0.0,-2.3101,-2.3101,-2.3101,-2.3101,-2.3101,-2.3101,-2.3101,-2.3101,-2.3101,-2.3101,-2.3101,-2.3101,-2.3101,-2.3101,-2.3101,-2.3101,-2.3101,-2.3101,-2.3101,-2.3101,-2.3101,-2.3101,-2.3101,-2.3101,-2.3101,-2.3101,-2.3101,0.0,0.0,-0.0112,-0.0357,0.0,0.0,0.0,-0.133,-0.1452,-0.1762,-0.1806,-0.1806,0.0,0.0,0.0,-0.1806,-0.1806,-0.1806,-0.1806,-0.2369,-0.2781,-0.2941,-0.396,-0.4906,-0.5728,-0.6253,-0.6266,-0.5758,-0.607,-0.6357,-0.6579,-0.6894,-0.7339,-0.7872,-0.7899,-0.7749,-0.7424,-0.7108,-0.6814,-0.6579,-0.6593,-0.6613,-0.6656,-0.676,0.0,0.0,0.0,0.0,0.0,0.0,0.0,0.0,-0.9026,-0.9338,-0.9747,-1.0156,-1.0939,-1.1917,-1.3125,-1.3821,-1.4738,-1.6914,-1.8203,-1.9533,-2.1973,-2.2539,-2.2676,-2.3023,0.0,-2.2695,-2.3023,0.0,0.0,0.0,0.0,0.0,0.0,0.0,0.0,0.0,0.0,0.0,0.0,0.0,0.0,0.0,0.0,0.0,0.0,-2.3101,-2.3101,-2.3101,-2.3101,-2.3101,-2.3101,-2.3101,-2.3101,-2.3101,-2.3101,-2.3101,-2.3101,-2.3101,-2.3101,-2.3101,-2.3101,-2.3101,-2.3101,-2.3101,-2.3101,-2.3101,-2.3101,-2.3101,-2.3101,-2.3101,-2.3101,-2.3101,0.0,0.0,-0.0335,-0.0389,0.0,0.0,-0.1274,-0.1519,-0.1718,-0.1795,-0.1806,-0.1806,-0.1806,-0.1806,0.0,-0.1806,-0.1806,-0.1806,-0.1806,-0.2369,-0.2907,-0.336,-0.4688,-0.5623,-0.6088,-0.5959,-0.5959,-0.6102,-0.6378,-0.6432,-0.6303,-0.7035,-0.7464,-0.7598,-0.7792,-0.7606,-0.7073,-0.68,-0.6539,-0.6303,-0.6512,-0.6728,-0.6911,-0.6837,-0.7105,0.0,0.0,0.0,0.0,0.0,0.0,0.0,-0.9252,-0.9767,-1.0175,-1.0273,-1.1133,-1.2203,-1.2852,-1.4043,-1.5556,-1.7422,-1.9551,-2.1426,-2.2305,-2.273,-2.2984,-2.3081,-2.3023,-2.2984,0.0,0.0,0.0,0.0,0.0,0.0,0.0,0.0,0.0,0.0,0.0,0.0,0.0,0.0,0.0,0.0,0.0,0.0,-2.3101,-2.3101,-2.3101,-2.3101,-2.3101,-2.3101,-2.3101,-2.3101,-2.3101,0.0,-2.3101,-2.3101,-2.3101,-2.3101,-2.3101,-2.3101,-2.3101,-2.3101,-2.3101,-2.3101,-2.3101,-2.3101,-2.3101,-2.3101,-2.3101,-2.3101,-2.3101,-2.3101,0.0,0.0,0.0,0.0,0.0,0.0,0.0,0.0,-0.1806,-0.1806,-0.1806,-0.1806,-0.1806,-0.1806,0.0,0.0,-0.1806,-0.1861,-0.1986,-0.2675,-0.3473,-0.4321,-0.5222,-0.5718,-0.5766,-0.5718,-0.5785,-0.5963,-0.6258,-0.6472,-0.6606,-0.7209,-0.7651,-0.7933,-0.807,-0.7722,-0.6993,-0.6854,-0.6566,-0.6223,-0.6499,-0.6687,-0.6786,-0.6588,-0.6737,-0.6983,-0.6578,0.0,0.0,0.0,0.0,0.0,0.0,0.0,-0.9746,-1.0175,-1.0898,-1.1853,-1.3145,-1.4434,-1.5946,-1.834,-2.041,-2.1992,-2.2422,-2.2789,-2.3101,-2.3101,-2.3101,0.0,0.0,0.0,0.0,0.0,0.0,0.0,0.0,0.0,0.0,0.0,0.0,0.0,0.0,0.0,0.0,0.0,0.0,-2.3101,-2.3101,-2.3101,-2.3101,-2.3101,-2.3101,-2.3101,-2.3101,-2.3101,-2.3101,-2.3101,-2.3101,-2.3101,-2.3101,-2.3101,-2.3101,-2.3101,-2.3101,-2.3101,-2.3101,-2.3101,-2.3101,-2.3101,-2.3101,-2.3101,-2.3101,-2.3101,-2.3101,-2.3101,0.0,0.0,0.0,0.0,0.0,0.0,0.0,0.0,0.0,-0.1806,-0.1806,-0.1806,-0.1806,-0.1806,-0.1806,0.0,0.0,0.0,-0.2117,-0.2988,-0.4057,-0.5315,-0.5585,-0.5625,-0.5454,-0.5611,-0.5741,-0.5865,-0.6084,-0.6553,-0.7233,-0.7455,-0.7866,-0.8402,-0.8348,-0.7856,-0.7073,-0.6934,-0.6573,-0.6142,-0.6365,-0.6432,-0.6365,-0.6182,-0.6173,-0.6197,-0.5958,-0.6803,-0.8052,-0.8193,0.0,0.0,0.0,0.0,-0.9118,-0.9829,-1.0409,-1.123,-1.3139,-1.4648,-1.6297,-1.9199,-2.0801,-2.1816,-2.2383,-2.2773,-2.3003,-2.3081,-2.3101,0.0,0.0,0.0,0.0,0.0,0.0,0.0,0.0,0.0,0.0,0.0,0.0,0.0,0.0,0.0,0.0,0.0,0.0,-2.3101,-2.3101,-2.3101,-2.3101,-2.3101,-2.3101,-2.3101,-2.3101,-2.3101,-2.3101,-2.3101,-2.3101,-2.3101,-2.3101,-2.3101,-2.3101,-2.3101,-2.3101,-2.3101,-2.3101,-2.3101,-2.3101,-2.3101,-2.3101,-2.295,-2.2775,-2.2775,-2.2775,-2.2775,0.0,0.0,0.0,0.0,0.0,0.0,0.0,0.0,0.0,0.0,-0.1806,-0.1806,-0.1806,-0.1806,-0.1806,-0.1806,-0.2008,-0.2062,-0.1865,0.0,0.0,-0.5578,-0.5674,-0.5812,-0.6075,-0.5825,-0.5959,-0.6466,-0.6303,-0.6895,-0.8214,-0.7976,-0.8056,-0.8389,-0.811,-0.7776,-0.7383,-0.6639,-0.6097,-0.5772,-0.5794,-0.5678,-0.5494,-0.5691,-0.5851,-0.5932,-0.5788,-0.6099,-0.6672,-0.7309,-0.7617,0.0,0.0,0.0,-0.8839,-0.8966,-0.9658,-1.0606,-1.1643,-1.418,-1.7058,-1.9319,-2.0332,-2.1094,-2.2246,0.0,-2.2695,0.0,0.0,0.0,0.0,0.0,0.0,0.0,0.0,0.0,0.0,0.0,0.0,0.0,0.0,0.0,0.0,0.0,0.0,0.0,-2.3101,-2.3101,-2.3101,-2.3101,-2.3101,-2.3101,-2.3101,-2.3101,-2.3101,-2.3101,-2.3101,-2.3101,-2.3101,-2.3101,-2.3101,-2.3101,-2.3101,-2.3101,-2.3101,-2.3101,-2.3101,-2.3101,-2.3101,-2.3101,-2.3101,-2.2448,-2.1525,-2.1525,-2.1525,-2.1525,0.0,0.0,0.0,0.0,0.0,0.0,0.0,0.0,0.0,0.0,0.0,-0.1806,-0.1806,-0.1806,-0.1806,-0.1806,-0.204,-0.2435,-0.299,-0.3633,-0.4447,-0.5438,-0.5478,-0.5548,-0.5699,-0.5548,-0.5678,-0.6106,-0.5972,-0.6667,-0.8123,-0.8163,-0.851,-0.9112,-0.8631,-0.8163,-0.7669,-0.6794,-0.6244,-0.5963,-0.5785,-0.5914,-0.6212,-0.5834,-0.5943,-0.6226,-0.5665,-0.6003,-0.6735,-0.7073,-0.7613,-0.8194,-0.8594,0.0,0.0,0.0,-0.9338,-1.0371,-1.2441,-1.4445,-1.6414,-1.8359,-1.9531,-2.041,-2.123,-2.1992,-2.2559,0.0,0.0,0.0,0.0,0.0,0.0,0.0,0.0,0.0,0.0,0.0,0.0,0.0,0.0,0.0,0.0,0.0,0.0,0.0,-2.3101,-2.3101,-2.3101,-2.3101,-2.3101,-2.3101,-2.3101,-2.3101,-2.3101,-2.3101,-2.3101,-2.3101,-2.3101,-2.3101,-2.3101,-2.3101,-2.3101,-2.3101,-2.3101,-2.3101,-2.3101,-2.3101,-2.3101,-2.3101,-2.3101,-2.2359,-2.1302,-2.1302,-2.0881,-2.0296,0.0,0.0,0.0,0.0,0.0,0.0,0.0,0.0,0.0,0.0,0.0,-0.1806,-0.1806,0.0,0.0,0.0,-0.2117,-0.2829,-0.4027,-0.4224,-0.4593,-0.5266,-0.5293,-0.5293,-0.5293,-0.5293,-0.544,-0.5701,-0.5785,-0.6587,-0.8019,-0.835,-0.9018,-0.9916,-0.9299,-0.8657,-0.7965,-0.7161,-0.67,-0.6505,-0.6159,-0.642,-0.6953,-0.6546,-0.6667,-0.6955,-0.6137,-0.6397,-0.7091,-0.6948,-0.7464,-0.8174,-0.8174,-0.803,0.0,0.0,0.0,-0.9868,-1.245,-1.3944,-1.5176,-1.6914,-1.832,-1.9473,0.0,0.0,0.0,0.0,0.0,0.0,0.0,0.0,0.0,0.0,0.0,0.0,0.0,0.0,0.0,0.0,0.0,0.0,0.0,0.0,0.0,0.0,-2.3101,-2.3101,-2.3101,-2.3101,-2.3101,-2.3101,-2.3101,-2.3101,-2.3101,-2.2775,-2.2643,-2.2624,-2.2624,-2.2624,-2.2624,-2.295,-2.3101,-2.3101,-2.2775,-2.2624,-2.2643,-2.2315,-2.2183,-2.2183,-2.2183,-2.1454,-2.0387,-2.0387,-1.9815,-1.9039,0.0,0.0,0.0,0.0,0.0,0.0,0.0,0.0,0.0,0.0,0.0,-0.1806,-0.1806,-0.1806,-0.1806,-0.1806,-0.2335,-0.3152,-0.4303,-0.4158,-0.4398,-0.5266,-0.5293,0.0,-0.5293,-0.5293,-0.544,-0.5701,-0.6017,-0.6935,-0.8389,-0.8644,-0.9406,-1.0519,-0.993,-0.9193,-0.8335,-0.7705,-0.7459,-0.7397,-0.7081,-0.6966,-0.7086,-0.7946,-0.8281,-0.8228,-0.7598,0.0,0.0,0.0,0.0,0.0,0.0,-0.6786,-0.6802,0.0,0.0,0.0,-1.0113,-1.1738,-1.3418,-1.5117,-1.6543,-1.7949,0.0,0.0,0.0,0.0,0.0,0.0,0.0,0.0,0.0,0.0,0.0,0.0,0.0,0.0,0.0,0.0,0.0,0.0,0.0,0.0,0.0,0.0,-2.3101,-2.3101,-2.3101,-2.3101,-2.3101,-2.3101,-2.3101,-2.3101,-2.3101,-2.1961,-2.1409,-2.1391,-2.1391,-2.1391,-2.1436,-2.258,-2.3101,-2.3057,-2.1898,-2.1391,-2.1302,-2.0178,-1.9679,-1.9679,-1.9679,-1.8948,-1.787,-1.787,-1.787,-1.7777,0.0,0.0,0.0,0.0,0.0,0.0,0.0,0.0,0.0,0.0,0.0,0.0,0.0,-0.2324,-0.2388,-0.2088,-0.268,-0.3541,-0.458,-0.4564,-0.4748,-0.528,-0.5293,-0.5293,-0.5293,-0.5293,-0.5347,-0.5438,-0.5561,-0.6271,-0.7522,-0.7992,-0.8577,-0.9206,-0.9554,-0.9406,-0.8858,-0.8096,-0.7642,-0.75,-0.737,-0.7762,-0.8418,-0.839,-0.8871,-0.9392,0.0,0.0,0.0,0.0,0.0,0.0,0.0,-0.6826,-0.6802,-0.6813,-0.7444,-0.8463,-0.9915,-1.1042,-1.2263,-1.4084,-1.5566,-1.6868,-1.8027,0.0,0.0,0.0,0.0,0.0,0.0,0.0,0.0,0.0,0.0,0.0,0.0,0.0,0.0,0.0,0.0,0.0,0.0,0.0,0.0,0.0,0.0,-2.3101,-2.3101,-2.3101,-2.3101,-2.3101,-2.3101,-2.3101,-2.3101,-2.1898,-2.1302,-2.1284,-2.0522,-2.0116,-2.0161,-2.0584,-2.0809,-2.0719,-1.9497,-1.9861,-2.1212,-1.998,-1.9497,-1.9497,-1.9497,-1.878,-1.7684,-1.7684,-1.7185,-1.648,0.0,0.0,0.0,-0.1603,0.0,-0.1933,-0.1933,-0.1933,-0.1974,-0.2063,0.0,0.0,0.0,0.0,-0.2645,-0.2576,-0.3163,-0.3902,-0.4751,-0.4807,-0.4955,-0.528,-0.5293,-0.5293,-0.5293,-0.5293,-0.5293,-0.5293,-0.54,-0.5919,-0.6894,-0.7495,-0.7989,-0.8415,-0.8884,-0.9098,-0.9031,-0.8445,-0.811,-0.796,-0.8161,-0.8684,-0.9377,-0.9619,-1.0114,-1.0621,0.0,0.0,0.0,0.0,0.0,0.0,0.0,-0.6825,-0.6441,-0.6597,-0.719,-0.8028,-0.9044,-1.014,-1.1422,-1.3207,-1.4266,-1.535,-1.7019,0.0,0.0,0.0,0.0,0.0,0.0,0.0,0.0,0.0,0.0,0.0,0.0,0.0,0.0,0.0,0.0,0.0,0.0,0.0,0.0,0.0,0.0,0.0,-2.3101,-2.3101,-2.3101,-2.3101,-2.3101,-2.2906,-2.2492,-2.1302,-2.0477,-2.007,-1.9268,-1.8902,-1.8902,-1.9314,-1.9497,-1.9451,-1.8226,-1.8596,-1.998,-1.8764,-1.8257,-1.8257,-1.8257,-1.7762,-1.7044,-1.7044,-1.6527,-1.5784,-0.2123,-0.2197,-0.2197,-0.2197,-0.2197,-0.2204,-0.2204,-0.2204,-0.2204,-0.2217,0.0,0.0,0.0,0.0,0.0,-0.3316,-0.3778,-0.4268,-0.4793,-0.4821,-0.4968,-0.528,-0.5293,-0.5293,-0.5306,-0.5293,-0.5293,-0.5306,-0.5571,-0.5999,-0.6593,-0.7182,-0.7772,-0.8335,-0.8019,-0.8205,-0.8764,-0.8764,-0.8791,-0.8884,-0.9432,-0.9729,-0.994,-1.1623,0.0,0.0,-1.1583,-1.1289,0.0,-0.9684,0.0,0.0,0.0,-0.67,-0.5728,-0.5728,-0.6531,-0.7423,0.0,0.0,0.0,0.0,0.0,0.0,0.0,0.0,0.0,0.0,0.0,0.0,0.0,0.0,0.0,0.0,0.0,0.0,0.0,0.0,0.0,0.0,0.0,0.0,0.0,0.0,0.0,0.0,-2.3101,-2.3101,-2.3057,-2.3101,-2.3101,-2.3057,-2.3057,-2.2492,-2.1239,-2.0042,-1.8856,-1.7684,-1.7638,-1.7638,-1.7684,-1.8856,-1.9405,-1.9314,-1.8133,-1.7638,-1.7544,-1.6292,-1.5784,-1.5784,-1.5784,-1.5784,-1.5784,-1.5784,-1.5784,-1.5784,-0.2176,-0.2197,-0.2197,-0.2197,-0.2327,-0.2424,-0.2424,-0.2424,-0.2491,0.0,0.0,0.0,-0.3481,-0.3902,-0.4496,-0.5324,-0.502,-0.4979,-0.5415,-0.5277,-0.5213,-0.5293,-0.5293,-0.54,-0.5585,-0.54,-0.54,-0.5598,-0.5464,-0.5585,-0.5959,-0.6365,-0.676,-0.7115,-0.7464,-0.7705,-0.7866,-0.7866,-0.8482,-0.9419,-0.9152,-0.994,0.0,0.0,0.0,0.0,0.0,-1.2385,-1.1891,0.0,-1.0701,-0.9497,0.0,0.0,-0.6593,-0.6413,-0.7024,-0.7767,-0.7759,0.0,0.0,0.0,0.0,0.0,0.0,0.0,0.0,0.0,0.0,0.0,0.0,0.0,0.0,0.0,0.0,0.0,0.0,0.0,0.0,0.0,0.0,0.0,0.0,0.0,0.0,0.0,-2.2624,-2.2731,-2.1854,-2.2624,-2.2687,-2.1854,-2.181,-2.1212,-1.9997,-1.8826,-1.8056,-1.7684,-1.6763,-1.6339,-1.6339,-1.6655,-1.6842,-1.6796,-1.648,-1.6339,-1.6292,-1.5974,-1.5784,-1.5784,-1.5784,-1.5784,-1.5784,-1.5784,-1.5784,-1.5784,-0.2472,-0.2532,-0.2572,-0.2572,-0.271,-0.2829,-0.2829,-0.2829,-0.291,0.0,0.0,0.0,-0.4644,-0.5204,-0.5685,-0.6041,-0.5857,-0.5721,-0.5697,-0.5558,-0.5427,-0.5306,-0.5414,-0.5544,-0.5688,-0.5682,-0.5682,-0.5701,-0.5544,-0.5491,-0.5544,-0.5856,-0.6084,-0.6239,-0.6606,-0.6955,-0.7268,-0.7048,-0.7799,-0.9193,-0.9566,0.0,0.0,-1.2131,-1.2667,0.0,0.0,0.0,-1.2679,-1.2679,-1.1623,0.0,0.0,-0.8045,-0.7495,-0.7102,-0.7508,0.0,-0.794,-0.8549,0.0,0.0,0.0,0.0,0.0,-1.2371,0.0,0.0,0.0,0.0,0.0,0.0,0.0,0.0,0.0,0.0,0.0,0.0,0.0,0.0,0.0,0.0,0.0,-2.1873,-2.1472,-2.0456,-2.1023,-2.1184,-2.0567,-2.1212,-2.1257,-2.0567,-2.0522,-1.9997,-1.878,-1.8056,-1.7404,-1.6904,-1.615,-1.5784,-1.5784,-1.5784,-1.5784,-1.5784,-1.5784,-1.5784,-1.5784,-1.5784,-1.5784,-1.5784,-1.5784,-1.5784,-1.5784,-1.5784,-1.5784,-1.5784,0.0,-0.3013,-0.3108,-0.3121,-0.3236,-0.3336,-0.335,-0.3356,-0.3453,0.0,-0.4336,-0.5079,-0.5936,-0.6385,-0.6514,-0.6206,-0.6472,-0.6413,-0.5874,-0.5754,-0.5611,-0.54,-0.5598,-0.5728,-0.5794,-0.6057,-0.6057,-0.5794,-0.5728,-0.5598,-0.54,-0.5611,-0.5701,-0.5701,-0.5768,-0.6207,-0.6886,-0.6566,-0.7223,-0.863,-1.0167,-1.0969,0.0,0.0,-1.348,-1.3467,-1.4001,-1.3854,-1.3387,-1.3293,-1.2184,0.0,0.0,-0.9085,-0.8563,-0.7879,-0.812,0.0,-0.8179,-0.8672,0.0,0.0,0.0,0.0,-1.1873,-1.1614,0.0,0.0,0.0,0.0,0.0,0.0,0.0,0.0,0.0,0.0,0.0,0.0,0.0,0.0,0.0,0.0,-2.0298,-2.0196,-1.9873,-1.909,-1.8902,-1.9006,-1.9414,-1.9476,-1.9401,-1.9314,-1.9314,-1.8734,-1.7498,-1.7498,-1.6904,-1.5784,-1.5784,-1.5784,-1.5784,-1.5784,-1.5784,-1.5784,-1.5784,-1.5784,-1.5784,-1.5784,-1.5784,-1.5784,-1.5784,-1.5784,-1.5784,-1.5784,-1.5784,-1.5784,-0.3054,-0.3081,-0.3141,-0.3242,-0.3411,-0.3575,-0.369,-0.3704,-0.3967,-0.4718,-0.6028,-0.7229,-0.8088,-0.807,-0.7986,-0.7909,-0.7317,-0.6873,-0.6753,-0.6087,-0.5798,-0.6008,-0.5812,-0.5932,-0.6413,-0.629,-0.6277,-0.6413,-0.5945,-0.5812,-0.6021,-0.5798,-0.5701,-0.5714,-0.6212,-0.6405,-0.6438,-0.7504,-0.8377,-0.9071,-0.9417,0.0,-1.2812,-1.316,-1.3841,-1.4673,-1.4794,-1.4767,-1.4509,0.0,-1.3134,-1.2452,0.0,0.0,0.0,-0.9178,0.0,-0.9713,-0.9419,-0.9638,-0.986,-0.9576,0.0,0.0,0.0,-0.9618,0.0,0.0,0.0,0.0,0.0,0.0,0.0,0.0,0.0,0.0,0.0,0.0,0.0,0.0,0.0,0.0,-2.0196,-2.0196,-1.9724,-1.8609,-1.7739,-1.7793,-1.9095,-1.9201,-1.8839,-1.8087,-1.8056,-1.7451,-1.6197,-1.615,-1.6069,-1.5784,-1.5784,-1.5784,-1.5784,-1.5784,-1.5784,-1.5784,-1.5784,-1.5784,-1.5784,-1.5784,-1.5784,-1.5784,-1.5784,-1.5784,-1.5784,-1.5784,-1.5784,-1.5784,-0.3196,-0.333,-0.348,-0.3532,-0.3735,-0.4056,-0.4472,-0.4239,-0.4557,-0.6089,-0.7433,-0.8497,-0.919,-0.8978,-0.8751,-0.8604,-0.8043,-0.7508,-0.7033,-0.6593,-0.6306,-0.6196,-0.6177,-0.6293,-0.6606,-0.6587,-0.6587,-0.6606,-0.6293,-0.6177,-0.6196,-0.6017,-0.6092,-0.6354,-0.652,-0.678,-0.7081,-0.7692,-0.843,-0.9297,-1.0323,0.0,-1.328,-1.3854,-1.4456,-1.5022,-1.5169,-1.5177,-1.5017,-1.3946,-1.3413,0.0,0.0,-1.1471,-1.1223,0.0,-1.0207,-1.0461,0.0,0.0,-1.0083,-1.0114,0.0,0.0,0.0,0.0,-0.9325,0.0,0.0,0.0,0.0,0.0,0.0,0.0,0.0,0.0,0.0,0.0,0.0,0.0,0.0,0.0,-1.7787,-1.7763,-1.7372,-1.65,-1.6126,-1.6241,-1.7026,-1.707,-1.6921,-1.6568,-1.6536,-1.6327,-1.5784,-1.5784,-1.5784,-1.5784,-1.5784,-1.5784,-1.5784,-1.5784,-1.5784,-1.5784,-1.5784,-1.5784,-1.5784,-1.5784,-1.5784,-1.5784,-1.5784,-1.5784,-1.5784,-1.5784,-1.5784,-1.5784,-0.335,-0.3609,-0.3799,-0.3832,-0.4038,-0.4463,-0.5222,-0.4835,-0.5257,-0.7486,-0.873,-0.9575,-1.0053,-0.9804,-0.9577,-0.9486,-0.8978,-0.8337,-0.7646,-0.7326,-0.6987,-0.6539,-0.6633,-0.6693,-0.678,-0.6934,-0.6886,-0.6667,-0.6613,-0.6512,-0.6357,-0.6303,-0.6539,-0.6993,-0.6894,-0.7281,-0.7979,-0.7869,-0.8591,-0.995,0.0,-1.2612,-1.3093,-1.4365,-1.4874,-1.4923,-1.5337,-1.5484,-1.5311,-1.4146,0.0,-1.3293,-1.2278,-1.2074,0.0,0.0,0.0,0.0,0.0,0.0,0.0,0.0,0.0,-1.0127,0.0,0.0,0.0,-0.9459,0.0,0.0,0.0,0.0,0.0,0.0,0.0,0.0,0.0,0.0,0.0,0.0,0.0,0.0,0.0,-1.5082,-1.4816,-1.4314,-1.4429,-1.466,-1.4834,-1.4888,-1.5044,-1.5391,-1.5391,-1.5538,-1.5784,-1.5784,-1.5784,-1.5784,-1.5784,-1.5784,-1.5784,-1.5784,-1.5784,-1.5784,-1.5784,-1.5784,-1.5784,-1.5784,-1.5784,-1.5784,-1.5784,-1.5784,-1.5784,-1.5784,-1.5784,-1.5784,-0.3576,-0.3683,-0.3832,-0.3944,-0.4112,-0.4499,-0.5352,-0.5404,-0.6183,-0.8516,-0.9958,-1.1009,-1.1605,-1.1356,-1.1335,-1.1864,-1.0448,-0.9593,-0.9724,-0.8525,-0.7779,-0.7712,-0.7219,-0.7094,-0.7383,-0.7134,-0.698,-0.6953,-0.672,-0.6707,-0.69,-0.6667,-0.6707,-0.702,-0.7526,-0.7976,-0.8375,-0.8805,-1.0137,0.0,-1.2529,-1.2462,0.0,-1.3627,-1.4349,-1.4683,-1.5484,-1.5731,-1.5645,0.0,-1.4402,-1.4122,0.0,-1.2625,-1.2826,0.0,0.0,0.0,0.0,0.0,0.0,0.0,-1.1503,0.0,0.0,0.0,-0.9766,-0.9058,0.0,0.0,0.0,0.0,0.0,0.0,0.0,0.0,0.0,0.0,0.0,0.0,0.0,0.0,0.0,-1.423,-1.3849,-1.3386,-1.3172,-1.3387,-1.4148,-1.4429,-1.483,-1.5378,-1.5391,-1.5538,-1.5784,-1.5784,-1.5784,-1.5784,-1.5784,-1.5784,-1.5784,-1.5784,-1.5784,-1.5784,-1.5784,-1.5784,-1.5784,-1.5784,-1.5784,-1.5784,-1.5784,-1.5784,-1.5784,-1.5784,-1.5784,-1.5784,-0.3617,-0.3765,-0.4063,-0.4546,-0.4803,-0.5381,-0.6585,-0.7999,-0.9072,-0.9452,-1.0977,-1.2141,-1.2382,-1.1957,0.0,-1.2265,0.0,-1.0747,0.0,0.0,-0.8951,-0.8432,-0.8029,-0.7789,-0.7736,-0.7442,-0.7201,-0.7006,-0.6873,-0.6886,-0.7006,-0.7089,-0.737,-0.7829,-0.8405,-0.9045,-0.9675,-0.9713,-1.0341,0.0,0.0,0.0,0.0,-1.4202,-1.5177,-1.5278,-1.5651,-1.5784,-1.5651,0.0,-1.4402,0.0,0.0,0.0,0.0,0.0,0.0,0.0,0.0,0.0,0.0,0.0,0.0,0.0,-0.99,0.0,-0.9352,0.0,0.0,0.0,0.0,0.0,0.0,0.0,0.0,0.0,0.0,0.0,0.0,0.0,0.0,0.0,0.0,0.0,0.0,0.0,-1.2559,-1.2812,-1.3534,-1.3813,-1.4362,-1.5124,-1.5196,-1.5364,-1.5784,-1.5784,-1.5784,-1.5784,-1.5784,-1.5784,-1.5784,-1.5784,-1.5784,-1.5784,-1.5784,-1.5784,-1.5784,-1.5784,-1.5784,-1.5784,-1.5784,-1.5784,-1.5784,-1.5784,-1.5784,-1.5784,-0.3993,-0.4028,-0.4278,-0.5023,-0.5361,-0.6037,-0.7686,-0.9709,-1.0824,-1.028,-1.167,-1.2744,-1.2971,-1.2891,0.0,0.0,-1.2665,-1.1997,0.0,0.0,-1.0163,-0.9552,-0.8938,0.0,-0.8392,-0.7973,-0.7598,-0.7246,-0.7246,-0.7246,-0.7259,-0.7495,-0.7893,-0.8429,-0.9072,-0.99,-1.0814,0.0,-1.1049,-1.1832,-1.2051,-1.2345,-1.2801,-1.4705,-1.5571,-1.5784,-1.5784,-1.5784,-1.5664,-1.491,-1.4496,0.0,-1.4135,0.0,0.0,0.0,0.0,0.0,-1.3092,0.0,0.0,0.0,0.0,0.0,0.0,0.0,0.0,0.0,0.0,0.0,0.0,0.0,0.0,0.0,0.0,0.0,0.0,0.0,0.0,0.0,0.0,0.0,0.0,0.0,0.0,0.0,0.0,-1.2198,-1.3039,-1.332,-1.3961,-1.4981,-1.5008,-1.5244,-1.5771,-1.5784,-1.5784,-1.5784,-1.5784,-1.5784,-1.5784,-1.5784,-1.5784,-1.5784,-1.5784,-1.5784,-1.5784,-1.5784,-1.5784,-1.5784,-1.5784,-1.5784,-1.5784,-1.5784,-1.5784,-1.5784,-0.4906,-0.4583,-0.4423,-0.5164,-0.5419,-0.6193,-0.8271,-0.9402,-1.0287,-1.0969,0.0,0.0,0.0,0.0,0.0,0.0,0.0,-1.3533,-1.3493,0.0,-1.1335,0.0,0.0,-0.9311,0.0,-0.8817,-0.8203,-0.7872,-0.7872,-0.7872,-0.7872,-0.7885,-0.8083,-0.8442,-0.9313,-1.0314,-1.1375,-1.169,-1.3025,-1.4821,-1.4229,-1.4683,-1.5558,0.0,-1.5097,-1.5784,-1.5784,0.0,0.0,-1.515,-1.4981,0.0,0.0,0.0,0.0,0.0,0.0,0.0,0.0,0.0,0.0,-1.1921,0.0,0.0,0.0,0.0,-0.9884,0.0,0.0,0.0,0.0,0.0,0.0,-0.9257,0.0,0.0,0.0,0.0,0.0,0.0,0.0,0.0,0.0,0.0,0.0,0.0,0.0,0.0,-1.2717,-1.3053,-1.3761,-1.4968,-1.5008,-1.5244,-1.5771,-1.5784,-1.5784,-1.5784,-1.5784,-1.5784,-1.5784,-1.5784,-1.5784,-1.5784,-1.5784,-1.5784,-1.5784,-1.5784,-1.5784,-1.5784,-1.5784,-1.5784,-1.5784,-1.5784,-1.5784,-1.5784,-0.4653,-0.5004,-0.5563,-0.6581,-0.686,-0.7639,-0.9614,-1.0837,0.0,0.0,0.0,0.0,0.0,-1.4469,-1.5084,0.0,0.0,-1.4563,-1.3975,-1.324,0.0,0.0,0.0,-1.0929,0.0,-0.998,-0.9192,-0.8485,-0.8323,-0.8123,-0.7912,-0.8136,-0.8308,-0.8456,-0.9729,-1.0841,0.0,0.0,0.0,0.0,0.0,-1.479,-1.5744,0.0,-1.5518,-1.5784,-1.5784,-1.5784,0.0,-1.5605,-1.5284,-1.5035,-1.5177,-1.4776,-1.4309,-1.4696,-1.4736,0.0,0.0,0.0,-1.4696,-1.3026,0.0,0.0,0.0,0.0,0.0,0.0,0.0,0.0,0.0,0.0,0.0,-0.9257,0.0,0.0,0.0,0.0,0.0,0.0,0.0,0.0,0.0,0.0,0.0,0.0,-1.0533,0.0,0.0,-1.2826,-1.3574,-1.4405,-1.4807,-1.515,-1.5538,-1.5725,-1.5784,-1.5784,-1.5784,-1.5784,-1.5784,-1.5784,-1.5784,-1.5784,-1.5784,-1.5784,-1.5784,-1.5784,-1.5784,-1.5784,-1.5784,-1.5784,-1.5784,-1.5784,-1.5784,-1.5784,-0.5438,-0.6133,-0.6791,-0.7207,-0.8086,-0.9212,-1.0651,0.0,0.0,0.0,-1.4335,0.0,-1.5324,0.0,-1.5792,0.0,-1.5858,-1.5418,-1.4603,-1.4282,0.0,-1.3694,-1.2826,0.0,0.0,0.0,-1.0408,-0.9432,-0.9138,-0.8738,-0.8218,-0.8444,-0.8524,-0.8616,-0.9983,-1.1136,-1.2114,-1.2918,-1.3681,0.0,0.0,-1.515,0.0,0.0,-1.5784,-1.5784,0.0,-1.5784,-1.5784,-1.5784,-1.5578,-1.5337,-1.5712,-1.5311,-1.4803,-1.5257,-1.5204,-1.4977,-1.5008,-1.5223,0.0,-1.3707,-1.3066,0.0,-1.0782,0.0,0.0,0.0,0.0,0.0,0.0,0.0,0.0,-0.983,-0.9484,0.0,0.0,0.0,0.0,0.0,0.0,0.0,0.0,0.0,-0.9379,-0.975,-0.998,0.0,0.0,0.0,-1.3253,-1.4055,-1.47,-1.5156,-1.5391,-1.5685,-1.5784,-1.5784,-1.5784,-1.5784,-1.5784,-1.5784,-1.5784,-1.5784,-1.5784,-1.5784,-1.5784,-1.5784,-1.5784,-1.5784,-1.5784,-1.5784,-1.5784,-1.5784,-1.5784,-1.5784,-0.7101,-0.7819,-0.808,-0.7297,-0.9084,0.0,0.0,0.0,-1.3935,0.0,-1.4856,-1.6339,-1.7462,-1.7582,-1.7288,-1.654,-1.646,0.0,-1.5511,-1.519,0.0,0.0,-1.3788,-1.344,-1.368,0.0,0.0,0.0,-1.0274,-0.9673,-0.8844,-0.8818,-0.8804,-0.8858,-1.005,-1.1216,-1.2358,-1.3561,-1.475,-1.5784,-1.5784,-1.5784,-1.5784,-1.5784,-1.5784,-1.5784,-1.5784,-1.5784,-1.5784,-1.5784,-1.5784,-1.5784,-1.5784,-1.5784,-1.5731,-1.5498,-1.5618,-1.5712,-1.5196,-1.5204,-1.515,-1.3973,-1.3653,0.0,0.0,0.0,-1.2211,0.0,0.0,0.0,0.0,0.0,0.0,-1.0862,-0.9963,0.0,0.0,0.0,0.0,0.0,0.0,0.0,0.0,0.0,-0.8644,-0.9164,-0.9244,0.0,0.0,0.0,-1.2826,-1.3988,-1.4673,-1.5142,-1.5378,-1.5671,-1.5784,-1.5784,-1.5784,-1.5784,-1.5784,-1.5784,-1.5784,-1.5784,-1.5784,-1.5784,-1.5784,-1.5784,-1.5784,-1.5784,-1.5784,-1.5784,-1.5784,-1.5784,-1.5784,-1.5784,-0.6675,-0.8549,-1.0137,0.0,-1.0961,-1.1623,0.0,0.0,0.0,0.0,-1.6486,-1.7248,-1.7555,-1.7582,-1.7502,-1.7301,-1.7021,0.0,0.0,0.0,0.0,-1.6139,-1.5311,-1.487,-1.495,-1.3467,0.0,-1.185,0.0,-0.9673,-0.9446,-0.9018,-0.8804,-0.8844,-0.9806,-1.0889,-1.21,-1.3253,-1.4519,-1.5784,-1.5784,-1.5784,-1.5784,0.0,-1.5784,-1.5784,-1.5784,-1.5784,-1.5784,-1.5784,-1.5784,-1.5784,-1.5784,-1.5784,-1.5771,-1.5738,-1.5765,-1.5744,-1.5645,-1.5658,-1.5591,-1.507,-1.4456,-1.3801,0.0,0.0,0.0,0.0,0.0,0.0,0.0,0.0,0.0,0.0,0.0,0.0,0.0,0.0,0.0,0.0,0.0,0.0,0.0,-0.8804,-0.9058,-0.9204,-0.9617,0.0,0.0,0.0,0.0,-1.3105,-1.4352,-1.5048,-1.5115,-1.5578,-1.5784,-1.5784,-1.5784,-1.5784,-1.5784,-1.5784,-1.5784,-1.5784,-1.5784,-1.5784,-1.5784,-1.5784,-1.5784,-1.5784,-1.5784,-1.5784,-1.5784,-1.5784,-1.5784,-1.5784,-0.8351,0.0,0.0,-1.2921,0.0,0.0,-1.4108,0.0,0.0,-1.6072,-1.7141,0.0,-1.7969,-1.7983,-1.8009,-1.8103,-1.7903,0.0,0.0,0.0,0.0,-1.6526,-1.6166,-1.5912,-1.5778,-1.4593,0.0,-1.2529,0.0,-1.0114,-0.9486,-0.9018,-0.8804,-0.8844,-0.986,-1.0822,-1.1784,-1.3494,-1.4843,-1.5784,-1.5784,-1.5784,0.0,-1.5784,-1.5784,-1.5784,-1.5784,-1.5784,-1.5784,-1.5784,-1.5784,-1.5784,-1.5784,-1.5784,-1.5784,-1.5784,-1.5784,-1.5784,-1.5784,-1.5784,-1.5744,-1.5631,-1.5217,-1.4696,-1.4106,-1.4162,-1.4135,0.0,0.0,0.0,0.0,0.0,0.0,0.0,0.0,0.0,0.0,0.0,0.0,0.0,0.0,0.0,-0.8442,-0.8671,-0.8858,-0.8858,-0.9377,0.0,0.0,0.0,0.0,-1.2808,-1.411,-1.483,-1.5008,-1.5538,-1.5784,-1.5784,-1.5784,-1.5784,-1.5784,-1.5784,-1.5784,-1.5784,-1.5784,-1.5784,-1.5784,-1.5784,-1.5784,-1.5784,-1.5784,-1.5784,-1.5784,-1.5784,-1.5784,-1.5784,0.0,0.0,0.0,0.0,0.0,0.0,0.0,-1.5698,0.0,-1.6064,0.0,-1.8223,-1.8504,-1.8571,-1.8651,-1.8771,0.0,-1.833,-1.7407,-1.7568,-1.7301,-1.6536,-1.6687,-1.6687,-1.6442,-1.5698,0.0,0.0,0.0,-1.0643,-0.9324,-0.8951,-0.8831,-0.8911,-0.9997,-1.0902,0.0,-1.3988,-1.5257,-1.5784,-1.5784,-1.5784,-1.5784,-1.5784,-1.5784,-1.5784,-1.5784,-1.5784,-1.5784,-1.5784,-1.5784,-1.5784,-1.5784,-1.5784,-1.5784,-1.5784,-1.5784,-1.5784,-1.5784,-1.5784,-1.5784,-1.5784,-1.5784,-1.5584,-1.4825,-1.4696,-1.4696,-1.4696,-1.4082,-1.3908,0.0,0.0,0.0,0.0,0.0,0.0,0.0,0.0,0.0,0.0,0.0,0.0,0.0,-0.8523,-0.8536,-0.8456,-0.8911,0.0,0.0,0.0,0.0,-1.2703,-1.3881,-1.4669,-1.5008,-1.5538,-1.5784,-1.5784,-1.5784,-1.5784,-1.5784,-1.5784,-1.5784,-1.5784,-1.5784,-1.5784,-1.5784,-1.5784,-1.5784,-1.5784,-1.5784,-1.5784,-1.5784,-1.5784,-1.5784,-1.5784,0.0,0.0,0.0,0.0,0.0,-1.6059,-1.6981,-1.7058,-1.7101,-1.7543,-1.7675,-1.7956,-1.8651,-1.9025,-1.9092,-1.8811,-1.8637,0.0,0.0,0.0,0.0,-1.7368,-1.7395,-1.734,-1.7058,-1.5759,-1.47,0.0,-1.1984,-1.0688,-0.991,-0.9165,-0.8911,-0.9151,-0.9633,-1.0982,-1.2973,-1.4108,0.0,-1.5784,-1.5784,-1.5784,-1.5784,-1.5784,-1.5784,-1.5784,-1.5784,-1.5784,-1.5784,-1.5784,-1.5784,-1.5784,-1.5784,-1.5784,-1.5784,-1.5784,-1.5784,-1.5784,-1.5784,-1.5784,-1.5784,-1.5784,-1.5784,-1.5744,-1.5584,-1.5558,-1.5558,-1.5558,-1.5425,-1.5185,-1.4763,0.0,0.0,0.0,0.0,0.0,0.0,0.0,0.0,0.0,0.0,0.0,0.0,0.0,-0.9259,0.0,0.0,0.0,0.0,0.0,0.0,0.0,-1.3774,0.0,0.0,0.0,-1.5784,-1.5784,-1.5784,-1.5784,-1.5784,-1.5784,-1.5784,-1.5784,-1.5784,-1.5784,-1.5784,-1.5784,-1.5784,-1.5784,-1.5784,-1.5784,-1.5784,-1.5784,-1.5784,-1.5784,0.0,0.0,0.0,0.0,0.0,0.0,0.0,-1.805,0.0,-1.8691,-1.825,-1.805,-1.8437,-1.9011,-1.935,-1.9162,-1.8998,-1.8905,-1.8811,-1.8811,-1.8624,-1.8223,-1.8103,0.0,-1.7434,-1.638,-1.5284,-1.4082,-1.2465,-1.1142,-1.007,-0.9351,-0.9084,-0.9257,-1.0341,-1.1877,-1.3721,0.0,0.0,-1.6072,-1.6219,-1.6286,-1.6286,-1.6286,-1.6286,-1.6286,-1.6286,-1.6286,-1.6233,-1.5925,-1.5784,-1.5784,-1.5784,-1.5784,-1.5784,-1.5784,-1.5784,-1.5784,-1.5784,-1.5784,-1.5784,-1.5784,-1.5784,-1.5784,-1.5784,-1.5784,-1.5784,-1.5784,-1.5784,-1.5518,-1.4683,-1.3588,0.0,0.0,0.0,0.0,0.0,0.0,0.0,0.0,0.0,0.0,0.0,0.0,0.0,0.0,0.0,0.0,0.0,0.0,0.0,0.0,0.0,0.0,0.0,0.0,-1.5784,-1.5784,-1.5784,-1.5784,-1.5784,-1.5784,-1.5784,-1.5784,-1.5784,-1.5784,-1.5784,-1.5784,-1.5784,-1.5784,-1.5784,-1.5784,-1.5784,-1.5784,-1.5784,-1.5784,0.0,-1.6032,0.0,0.0,-1.6834,0.0,-1.8263,-1.9132,-1.9693,-1.9573,-1.9011,-1.8584,-1.8464,-1.8998,-1.943,-1.943,-1.943,-1.943,-1.943,-1.943,-1.9283,-1.8918,-1.8704,-1.833,-1.7782,-1.7194,-1.6086,0.0,-1.3267,-1.1931,-1.0474,-0.9857,-0.9644,-0.9844,-1.145,-1.2946,0.0,0.0,-1.5778,-1.638,-1.6607,-1.67,-1.67,-1.67,-1.67,-1.67,-1.67,-1.67,-1.6633,-1.6166,-1.5931,-1.5925,-1.5925,-1.5885,-1.5784,-1.5784,-1.5784,-1.5784,-1.5784,-1.5784,-1.5784,-1.5784,-1.5784,-1.5784,-1.5784,-1.5784,-1.5784,-1.5784,-1.5784,-1.5518,-1.4683,-1.3854,0.0,0.0,0.0,0.0,0.0,0.0,0.0,0.0,0.0,0.0,0.0,0.0,0.0,0.0,0.0,0.0,0.0,0.0,0.0,0.0,0.0,-1.4001,-1.4821,0.0,-1.5784,-1.5784,-1.5784,-1.5784,-1.5784,-1.5784,-1.5784,-1.5784,-1.5784,-1.5784,-1.5784,-1.5784,-1.5784,-1.5784,-1.5784,-1.5784,-1.5784,-1.5784,-1.5784,-1.5784,0.0,0.0,0.0,0.0,0.0,0.0,-2.0775,-2.0869,-2.0762,-2.0227,-2.0094,-1.984,-1.9319,-1.9319,-1.943,-1.943,-1.943,-1.943,-1.943,-1.943,-1.9359,-1.9377,-1.9038,-1.8731,-1.841,-1.7809,-1.6901,0.0,0.0,-1.3199,-1.1725,-1.1102,-1.1116,-1.1698,-1.2652,0.0,0.0,-1.5244,-1.5885,-1.666,-1.67,-1.67,-1.67,-1.67,-1.67,-1.67,-1.67,-1.67,-1.67,-1.6647,-1.6446,-1.6233,-1.6233,-1.6046,-1.5784,-1.5784,-1.5784,-1.5784,-1.5784,-1.5784,-1.5784,-1.5784,-1.5784,-1.5784,-1.5784,-1.5784,-1.5784,-1.5784,-1.5784,-1.5518,-1.4683,-1.487,-1.4616,0.0,0.0,0.0,0.0,0.0,0.0,0.0,0.0,0.0,0.0,0.0,0.0,0.0,0.0,0.0,0.0,0.0,0.0,-1.1913,0.0,-1.3773,-1.4162,-1.5271,-1.5784,-1.5784,-1.5784,-1.5784,-1.5784,-1.5784,-1.5784,-1.5784,-1.5784,-1.5784,-1.5784,-1.5784,-1.5784,-1.5784,-1.5784,-1.5784,-1.5784,-1.5784,-1.5784,-1.5784,0.0,0.0,0.0,0.0,0.0,0.0,0.0,-2.1109,-2.1029,-2.0788,-2.0762,-2.0668,-2.0441,-2.0094,-1.9746,-1.9457,-1.943,-1.943,-1.943,-1.9693,-1.9733,-1.9386,-1.9426,-1.9225,-1.8758,-1.8343,-1.7542,0.0,0.0,0.0,-1.2919,-1.2318,-1.2358,-1.2973,0.0,-1.4723,-1.5524,-1.6228,-1.6697,-1.6981,-1.7168,-1.7235,-1.7235,-1.7235,-1.7235,-1.7235,-1.7235,-1.7235,-1.7235,-1.7235,-1.6914,-1.6526,-1.6526,-1.6326,-1.6099,-1.6099,-1.5965,-1.5784,-1.5784,-1.5784,-1.5784,-1.5784,-1.5784,-1.5784,-1.5784,-1.5784,-1.5784,-1.5784,-1.5784,-1.5678,-1.5318,-1.507,-1.4696,0.0,0.0,0.0,0.0,0.0,0.0,0.0,0.0,0.0,0.0,0.0,0.0,0.0,0.0,-0.9004,-0.9537,0.0,0.0,-1.1316,0.0,-1.3746,-1.4082,-1.5244,-1.5784,-1.5784,-1.5784,-1.5784,-1.5784,-1.5784,-1.5784,-1.5784,-1.5784,-1.5784,-1.5784,-1.5784,-1.5784,-1.5784,-1.5784,-1.5784,-1.5784,-1.5784,-1.5784,-1.5784,-1.8144,0.0,-2.1109,0.0,-2.1109,-2.1109,-2.1109,-2.1109,-2.1109,-2.1109,-2.1109,-2.1109,-2.1109,-2.0735,-2.0321,-1.992,-1.988,-1.988,-1.988,-2.0267,-2.0307,-1.9893,-1.9907,0.0,-1.9199,-1.8891,-1.825,-1.7235,-1.6433,0.0,-1.4359,-1.3895,-1.3975,-1.4532,-1.5284,-1.5939,-1.6477,-1.7141,-1.7514,-1.7621,-1.7769,-1.7849,-1.7849,-1.7849,-1.7796,-1.7716,-1.7716,-1.7662,-1.7582,-1.7582,-1.7315,-1.6941,-1.686,-1.6633,-1.6393,-1.6393,-1.6246,-1.6072,-1.5979,-1.5965,-1.5939,-1.5798,-1.5784,-1.5784,-1.5784,-1.5784,-1.5784,-1.5784,-1.5784,-1.5784,-1.5784,-1.5278,-1.4856,-1.4723,0.0,0.0,0.0,0.0,0.0,0.0,0.0,-1.0425,0.0,0.0,0.0,0.0,0.0,-0.9579,-0.983,0.0,0.0,0.0,0.0,0.0,-1.4215,-1.5284,-1.5784,-1.5784,-1.5784,-1.5784,-1.5784,-1.5784,-1.5784,-1.5784,-1.5784,-1.5784,-1.5784,-1.5784,-1.5784,-1.5784,-1.5784,-1.5784,-1.5784,-1.5784,-1.5784,-1.5784,-1.9461,-2.1096,-2.1109,-2.1109,-2.1109,-2.1109,-2.1109,-2.1109,-2.1109,-2.1109,-2.1109,-2.1109,-2.1109,-2.1096,-2.1096,-2.1082,-2.1082,-2.1082,-2.1082,-2.1096,-2.1096,0.0,0.0,-2.0094,-1.98,-1.9506,-1.9065,-1.8464,0.0,0.0,-1.6233,-1.5939,-1.6112,-1.6687,-1.7032,-1.7462,-1.7969,-1.7982,-1.821,-1.8477,-1.8477,-1.8477,-1.8477,-1.8477,-1.8303,-1.7982,-1.7982,-1.7836,-1.7582,-1.7582,-1.7582,-1.7515,-1.7286,-1.6941,-1.67,-1.67,-1.67,-1.6633,-1.6388,-1.6273,-1.6192,-1.5899,-1.5784,-1.5784,-1.5784,-1.5784,-1.5784,-1.5784,-1.5784,-1.5784,-1.5784,-1.5771,-1.5431,-1.4282,0.0,0.0,0.0,0.0,0.0,0.0,-1.0915,-1.0586,-1.0586,0.0,0.0,0.0,0.0,-1.1089,-1.1349,0.0,0.0,-1.2717,-1.3655,0.0,-1.4466,-1.5345,-1.5784,-1.5784,-1.5784,-1.5784,-1.5784,-1.5784,-1.5784,-1.5784,-1.5784,-1.5784,-1.5784,-1.5784,-1.5784,-1.5784,-1.5784,-1.5784,-1.5784,-1.5784,-1.5784,-1.5784,-2.0572,-2.1109,-2.1109,-2.1109,-2.1109,-2.1109,-2.1109,-2.1109,-2.1109,-2.1109,-2.1109,-2.1109,-2.1109,-2.1109,-2.1109,0.0,-2.1109,-2.1109,0.0,-2.1109,-2.1109,-2.1109,-2.0735,-2.0401,-2.0107,-2.0,-1.9666,-1.9092,0.0,0.0,0.0,-1.7074,-1.7235,-1.7569,-1.7716,-1.7983,-1.8343,-1.8343,-1.841,-1.849,-1.849,-1.849,-1.849,-1.849,-1.8437,-1.8343,-1.8343,-1.829,-1.8196,-1.8196,-1.8063,-1.7876,-1.7796,-1.7408,-1.7058,-1.7058,-1.686,-1.6687,-1.6593,-1.6567,-1.65,-1.6206,-1.6126,-1.6072,-1.5824,-1.5784,-1.5784,-1.5784,-1.5784,-1.5784,-1.5784,-1.5784,-1.5578,-1.4803,-1.4888,0.0,0.0,0.0,0.0,0.0,0.0,-1.1156,0.0,-1.1062,0.0,0.0,0.0,0.0,0.0,0.0,0.0,0.0,-1.3601,0.0,-1.4522,-1.5345,-1.5784,-1.5784,-1.5784,-1.5784,-1.5784,-1.5784,-1.5784,-1.5784,-1.5784,-1.5784,-1.5784,-1.5784,-1.5784,-1.5784,-1.5784,-1.5784,-1.5784,-1.5784,-1.5784,-1.5784,-2.1109,-2.1109,-2.1109,-2.1109,-2.1109,-2.1109,-2.1109,-2.1109,-2.1109,-2.1109,-2.1109,-2.1109,-2.1109,-2.1109,0.0,-2.1109,-2.1109,-2.1109,-2.1109,-2.1109,-2.1109,-2.1109,-2.0935,-2.0695,-2.0401,-2.0401,0.0,-1.9693,-1.9399,-1.8971,-1.841,-1.8303,-1.8357,-1.8544,-1.8544,-1.8651,-1.8824,-1.8824,-1.8824,-1.8824,-1.8824,-1.8824,-1.8824,-1.8824,-1.8744,-1.8651,-1.8651,-1.8584,-1.849,-1.849,-1.837,-1.821,-1.821,-1.7956,-1.7661,-1.7434,-1.7181,-1.7007,-1.6901,-1.6874,-1.6807,-1.6513,-1.6353,-1.6192,-1.5899,-1.5784,-1.5784,-1.5784,-1.5784,-1.5784,-1.5784,-1.5784,-1.5631,-1.5102,-1.5008,-1.4593,-1.3373,0.0,0.0,0.0,0.0,0.0,0.0,-1.1921,-1.2024,0.0,0.0,0.0,0.0,0.0,0.0,-1.2852,-1.4148,-1.4897,-1.5017,-1.5505,-1.5784,-1.5784,-1.5784,-1.5784,-1.5784,-1.5784,-1.5784,-1.5784,-1.5784,-1.5784,-1.5784,-1.5784,-1.5784,-1.5784,-1.5784,-1.5784,-1.5784,-1.5784,-1.5784,-1.5784,-2.1109,-2.1109,-2.1109,0.0,-2.1109,-2.1109,-2.1109,-2.1109,-2.1109,-2.1109,-2.1109,-2.1109,-2.1109,-2.1109,-2.1109,-2.1109,0.0,0.0,-2.1109,-2.1109,-2.1109,-2.1109,-2.1109,-2.0989,-2.0708,-2.0708,-2.0561,-2.0207,-1.9973,-1.9826,-1.9826,-1.9559,-1.9484,-1.9484,-1.9484,-1.9484,-1.9484,-1.9484,-1.9484,-1.9426,-1.947,-1.9457,-1.9457,-1.943,-1.9199,-1.8958,-1.8958,-1.8784,-1.8557,-1.8557,-1.8544,-1.8517,-1.8517,-1.8504,-1.837,-1.7782,-1.7609,-1.7555,-1.7313,-1.7233,-1.7166,-1.6807,-1.65,-1.6206,-1.5925,-1.5798,-1.5784,-1.5784,-1.5784,-1.5784,-1.5784,-1.5784,-1.5631,-1.5102,-1.4995,-1.4522,-1.3373,0.0,0.0,0.0,0.0,0.0,0.0,-1.2933,-1.3253,0.0,0.0,0.0,0.0,0.0,-1.3093,-1.4482,-1.5084,-1.5538,-1.5784,-1.5784,-1.5784,-1.5784,-1.5784,-1.5784,-1.5784,-1.5784,-1.5784,-1.5784,-1.5784,-1.5784,-1.5784,-1.5784,-1.5784,-1.5784,-1.5784,-1.5784,-1.5784,-1.5784,-1.5784,-1.5784,0.0,0.0,-2.1109,-2.1109,-2.1109,-2.1109,-2.1109,-2.1109,-2.1109,-2.1109,-2.1109,-2.1109,-2.1109,-2.1109,-2.1109,-2.1109,-2.1109,-2.1109,-2.1109,-2.1109,-2.1109,-2.1109,-2.1109,-2.1082,-2.1002,-2.1002,-2.0869,-2.0575,-2.0281,-2.0134,-2.0134,-2.0054,-2.0027,-2.0027,-2.0027,-2.0027,-2.0027,-2.0027,-2.0027,-2.0013,-1.9786,-1.9693,-1.9679,-1.9511,-1.9319,-1.9265,-1.9265,-1.9212,-1.9216,-1.9216,-1.9011,-1.8824,-1.8824,-1.8664,-1.8424,-1.805,-1.7943,-1.7876,-1.7569,-1.7527,-1.746,-1.7166,-1.671,-1.6308,-1.6179,-1.5992,-1.5784,-1.5784,-1.5784,-1.5784,-1.5784,-1.5784,-1.5631,-1.5102,-1.4776,-1.4295,-1.3347,-1.336,0.0,0.0,-1.3387,-1.3667,-1.3667,-1.3801,-1.3694,0.0,0.0,0.0,0.0,-1.3826,-1.4162,-1.4509,-1.5084,-1.5538,-1.5784,-1.5784,-1.5784,-1.5784,-1.5784,-1.5784,-1.5784,-1.5784,-1.5784,-1.5784,-1.5784,-1.5784,-1.5784,-1.5784,-1.5784,-1.5784,-1.5784,-1.5784,-1.5784,-1.5784,-1.5784,-1.5858,-2.1109,-2.1109,-2.1109,-2.1109,-2.1109,-2.1109,-2.1109,-2.1109,-2.1109,-2.1109,-2.1109,-2.1109,-2.1109,-2.1109,-2.1109,-2.1109,-2.1109,-2.1109,-2.1109,-2.1109,-2.1109,-2.1109,-2.1109,-2.1109,-2.1109,-2.1109,-2.1029,-2.0869,-2.0708,-2.0561,-2.0441,-2.0441,-2.0361,-2.0167,-2.0167,-2.0167,-2.0167,-2.0167,-2.0167,-2.0214,-2.0054,-2.0,-1.9987,-1.9826,-1.976,-1.9746,-1.9613,-1.9559,-1.9546,-1.947,-1.9265,-1.9132,-1.9132,-1.9025,-1.8838,-1.8531,-1.8302,-1.8183,-1.7876,-1.7796,-1.7689,-1.7313,-1.6965,-1.6683,-1.65,-1.6246,-1.6032,-1.6032,-1.5925,-1.5784,-1.5784,-1.5784,-1.5631,-1.5102,-1.4874,-1.4416,-1.3493,-1.3613,0.0,-1.3627,-1.4015,-1.4335,-1.4512,-1.4603,-1.4496,-1.4041,-1.4359,0.0,-1.4255,-1.4803,-1.5057,-1.4923,-1.5364,-1.5671,-1.5784,-1.5784,-1.5784,-1.5784,-1.5784,-1.5784,-1.5784,-1.5784,-1.5784,-1.5784,-1.5784,-1.5784,-1.5784,-1.5784,-1.5784,-1.5798,-1.5979,-1.6032,-1.6046,-1.6179,-1.6233,-1.6259,-2.1376,-2.1376,-2.1376,-2.1376,-2.1376,-2.1376,-2.1376,-2.1376,-2.1376,-2.1376,-2.1376,-2.1309,-2.1122,-2.1109,-2.1109,-2.1109,-2.1109,-2.1109,-2.1109,-2.1109,-2.1109,-2.1109,-2.1109,-2.1109,-2.1109,-2.1109,-2.1109,-2.1109,-2.1109,-2.0989,-2.0735,-2.0735,-2.0615,-2.0361,-2.0361,-2.0361,-2.0361,-2.0361,-2.0361,-2.0361,-2.0321,-2.0294,-2.0294,-2.0193,-2.0167,-2.0201,-1.996,-1.9867,-1.9826,-1.9586,-1.9466,-1.9439,-1.9439,-1.9399,-1.9319,-1.9065,-1.8811,-1.8544,-1.821,-1.8022,-1.7862,-1.7407,-1.7233,-1.7139,-1.6834,-1.6553,-1.6339,-1.6339,-1.6099,-1.5899,-1.5899,-1.5811,-1.5631,-1.5102,-1.5008,-1.4656,-1.3733,0.0,-1.4202,-1.4162,-1.4482,-1.4816,-1.507,-1.5284,-1.5311,-1.511,-1.5511,-1.5565,-1.5124,-1.5565,-1.5712,-1.5471,-1.5698,-1.5784,-1.5784,-1.5784,-1.5784,-1.5784,-1.5784,-1.5784,-1.5784,-1.5784,-1.5811,-1.5899,-1.5899,-1.5925,-1.5965,-1.5965,-1.5965,-1.5944,-1.6233,-1.6339,-1.6366,-1.662,-1.67,-1.6714,-2.2592,-2.2592,-2.2592,-2.2592,-2.2592,-2.2592,-2.2592,-2.2592,-2.2592,-2.2592,-2.2592,-2.2218,-2.1216,-2.1109,-2.1109,-2.1109,-2.1109,-2.1109,-2.1109,-2.1109,-2.1109,-2.1109,-2.1109,-2.1109,-2.1109,-2.1109,-2.1109,-2.1109,-2.1109,-2.1082,-2.1042,-2.1042,-2.1015,-2.0975,-2.0975,-2.0975,-2.0975,-2.0975,-2.0975,-2.0949,-2.0708,-2.0601,-2.0575,-2.0334,-2.0167,-2.0167,-2.0127,-2.016,-2.016,-2.0107,-1.9933,-1.9733,-1.9733,-1.9559,-1.9417,-1.9319,-1.9265,-1.9118,-1.8571,-1.8237,-1.7902,-1.7609,-1.738,-1.7192,-1.7139,-1.6847,-1.6633,-1.6633,-1.6406,-1.6206,-1.6206,-1.6005,-1.5631,-1.5102,-1.5008,-1.4656,-1.3733,0.0,-1.478,-1.4482,-1.5105,-1.5598,-1.5698,-1.5511,-1.5484,-1.5685,-1.5551,-1.5524,-1.5685,-1.5731,-1.5758,-1.5718,-1.5758,-1.5784,-1.5784,-1.5784,-1.5784,-1.5784,-1.5784,-1.5784,-1.5784,-1.5784,-1.5965,-1.6206,-1.6206,-1.6339,-1.6567,-1.6567,-1.6567,-1.658,-1.662,-1.6633,-1.6647,-1.6687,-1.67,-1.674,-2.2928,-2.2928,-2.2928,-2.2928,-2.2928,-2.2928,-2.2928,-2.2928,-2.2928,-2.2928,-2.2928,-2.2727,-2.2111,-2.2058,-2.2058,-2.2058,-2.147,-2.1109,-2.1109,-2.1109,-2.1109,-2.1109,-2.1109,-2.1109,-2.1109,-2.1109,-2.1109,-2.1109,-2.1109,-2.1109,-2.1109,-2.1109,-2.1109,-2.1109,-2.1109,-2.1109,-2.1109,-2.1109,-2.1109,-2.1096,-2.0962,-2.0909,-2.0895,-2.0762,-2.0708,-2.0681,-2.0521,-2.0468,-2.0441,-2.0294,-2.0147,-2.004,-2.004,-1.9947,-1.98,-1.9639,-1.9372,-1.9065,-1.8798,-1.8504,-1.821,-1.7903,-1.7716,-1.7569,-1.7474,-1.7206,-1.6941,-1.6941,-1.6714,-1.646,-1.6348,-1.6166,-1.5872,-1.5297,-1.5204,0.0,-1.4429,-1.4843,-1.515,-1.5003,-1.5484,-1.5784,-1.5784,-1.5712,-1.5685,-1.5771,-1.5712,-1.5685,-1.5771,-1.5784,-1.5784,-1.5784,-1.5784,-1.5784,-1.5784,-1.5784,-1.5784,-1.5784,-1.5992,-1.6072,-1.6072,-1.6233,-1.638,-1.6513,-1.6513,-1.658,-1.67,-1.67,-1.67,-1.6727,-1.6887,-1.6941,-1.7018,-1.7114,-1.7181,-1.7194,-2.2928,-2.2928,-2.2928,-2.2928,-2.2928,-2.2928,-2.2928,-2.2928,-2.2928,-2.2928,-2.2928,-2.2928,-2.2928,-2.2928,-2.2928,-2.2928,-2.2031,-2.1523,-2.1523,-2.1523,-2.139,-2.1122,-2.1109,-2.1109,-2.1109,-2.1109,-2.1109,-2.1109,-2.1109,-2.1109,-2.1109,-2.1109,-2.1109,-2.1109,-2.1109,-2.1109,-2.1109,-2.1109,-2.1109,-2.1109,-2.1109,-2.1109,-2.1109,-2.1109,-2.1109,-2.1082,-2.0855,-2.0775,-2.0735,-2.0521,-2.0388,-2.0334,-2.0334,-2.0294,-2.0187,-1.996,-1.9533,-1.9105,-1.8958,-1.8758,-1.8517,-1.8223,-1.8143,-1.805,-1.7756,-1.7515,-1.7393,-1.7313,-1.7021,-1.674,-1.6563,-1.6469,-1.6179,-1.5591,0.0,-1.5458,0.0,-1.5271,-1.5471,-1.5404,-1.5658,-1.5784,-1.5784,-1.5784,-1.5784,-1.5784,-1.5784,-1.5784,-1.5784,-1.5784,-1.5858,-1.5925,-1.5824,-1.5858,-1.5939,-1.5939,-1.5965,-1.5984,-1.6259,-1.638,-1.638,-1.6607,-1.674,-1.6807,-1.6807,-1.6847,-1.6914,-1.6914,-1.6914,-1.6927,-1.7219,-1.73,-1.7326,-1.7502,-1.7582,-1.7582,-2.2928,-2.2928,-2.2928,-2.2928,-2.2928,-2.2928,-2.2928,-2.2928,-2.2928,-2.2928,-2.2928,-2.2928,-2.2928,-2.2928,-2.2928,-2.2928,-2.2847,-2.2807,-2.2807,-2.2807,-2.2245,-2.1162,-2.1109,-2.1109,-2.1109,-2.1109,-2.1109,-2.1109,-2.1109,-2.1109,-2.1109,-2.1109,-2.1109,-2.1109,-2.1109,-2.1109,-2.1109,-2.1109,-2.1109,-2.1109,-2.1109,-2.1109,-2.1109,-2.1109,-2.1109,-2.1109,-2.1082,-2.1082,-2.1069,-2.1056,-2.0869,-2.0641,-2.0641,-2.0454,-2.0227,-2.0214,-1.9973,-1.9613,-1.9065,-1.8905,-1.8824,-1.8531,-1.8464,-1.8384,-1.8022,-1.7942,-1.7849,-1.7609,-1.7367,-1.7166,-1.7139,-1.686,-1.6473,-1.5885,0.0,0.0,-1.5129,-1.5444,-1.5698,-1.5431,-1.5658,-1.5784,-1.5784,-1.5784,-1.5784,-1.5784,-1.5784,-1.5784,-1.5784,-1.5784,-1.5952,-1.6233,-1.5979,-1.5965,-1.6233,-1.6246,-1.638,-1.6633,-1.666,-1.6673,-1.6673,-1.67,-1.686,-1.7166,-1.7166,-1.7313,-1.7515,-1.7515,-1.7515,-1.7515,-1.7542,-1.7555,-1.7555,-1.7569,-1.7582,-1.7582,-2.2928,-2.2928,-2.2928,-2.2928,-2.2928,-2.2928,-2.2928,-2.2928,-2.2928,-2.2928,-2.2928,-2.2928,-2.2928,-2.2928,-2.2928,-2.2928,-2.2928,-2.2928,-2.2928,-2.2928,-2.2338,-2.1162,-2.1456,-2.1483,-2.1122,-2.1296,-2.1296,-2.1109,-2.1109,-2.1109,-2.1109,-2.1109,-2.1109,-2.1109,-2.1109,-2.1109,-2.1109,-2.1109,-2.0462,-1.9483,-1.9483,-1.9483,-1.9483,-1.9483,-2.0132,-2.1109,-2.1109,-2.1109,-2.0906,-1.9877,-2.0131,-2.0747,-1.965,-1.9965,-2.0735,-2.0561,-2.0294,-1.9973,-1.9573,-1.9332,-1.9132,-1.8838,-1.8758,-1.8677,-1.8384,-1.8317,-1.8237,-1.7929,-1.7782,-1.7595,-1.7273,-1.7112,-1.6847,-1.6433,0.0,-1.642,-1.6086,-1.6233,-1.6326,-1.6219,-1.6299,-1.638,-1.638,-1.638,-1.638,-1.638,-1.638,-1.638,-1.638,-1.638,-1.642,-1.654,-1.6433,-1.6433,-1.654,-1.654,-1.6593,-1.6714,-1.6901,-1.7032,-1.7032,-1.7168,-1.7315,-1.7474,-1.7474,-1.7527,-1.7582,-1.7582,-1.7582,-1.7582,-1.7582,-1.7582,-1.7582,-1.7582,-1.7582,-1.7582,-2.2928,-2.2928,-2.2928,-2.2928,-2.2928,-2.2928,-2.2928,-2.2928,-2.2928,-2.2928,-2.0825,-1.9345,-1.9345,-2.1459,-2.2928,-2.2928,-2.2928,-2.2928,-2.2928,-2.2928,-2.2418,-2.143,-2.1764,-2.183,-2.1483,-2.1563,-2.1483,-2.1256,-2.1256,-2.1203,-2.1109,-2.0526,-2.0589,-2.1109,-2.0526,-2.0589,-2.1109,-2.1109,-2.0399,-1.9355,-1.9355,-1.9355,-1.9355,-1.9355,-2.0068,-2.1109,-2.1109,-2.1109,-2.0919,-1.9737,-2.0132,-2.0779,-1.9024,-1.9355,-2.0347,-2.0743,-2.0601,-2.0334,-2.0134,-1.9867,-1.9546,-1.9158,-1.9065,-1.8985,-1.8691,-1.8624,-1.8544,-1.825,-1.8129,-1.8036,-1.7528,-1.7435,-1.7301,-1.6914,-1.6847,-1.6807,-1.6714,-1.67,-1.67,-1.67,-1.67,-1.67,-1.67,-1.67,-1.67,-1.67,-1.67,-1.67,-1.67,-1.6794,-1.6847,-1.6847,-1.6927,-1.6981,-1.6981,-1.6887,-1.6887,-1.6981,-1.7233,-1.734,-1.734,-1.7541,-1.7582,-1.7582,-1.7582,-1.7582,-1.7582,-1.7582,-1.7582,-1.7582,-1.7582,-1.7582,-1.7582,-1.7582,-1.7582,-1.7582,-2.2791,-2.2791,-2.2859,-2.2859,-2.2928,-2.2928,-2.2928,-2.2859,-2.2791,-2.2791,-1.6263,-1.1619,-1.1619,-1.8299,-2.2859,-2.2859,-2.2859,-2.2859,-2.2859,-2.2859,-2.2605,-2.2017,-2.1991,-2.2084,-2.2271,-2.1897,-2.1657,-2.1614,-2.1614,-2.1403,-2.1059,-1.9291,-1.9419,-2.0982,-1.9291,-1.9483,-2.1046,-2.1046,-2.1046,-2.1046,-2.1046,-2.1046,-2.1046,-2.1046,-2.1046,-2.1046,-2.1046,-2.1046,-2.1046,-2.1046,-2.1046,-2.0779,-1.9024,-1.8512,-1.8832,-2.0526,-2.0909,-2.0681,-2.0681,-2.0454,-2.0094,-1.9519,-1.943,-1.9292,-1.8998,-1.8931,-1.8838,-1.8557,-1.849,-1.8397,-1.8049,-1.7995,-1.7849,-1.73,-1.7206,-1.7099,-1.6754,-1.6714,-1.6714,-1.6714,-1.6714,-1.6714,-1.6714,-1.6714,-1.6714,-1.6714,-1.6714,-1.6714,-1.6714,-1.7045,-1.7206,-1.7206,-1.7487,-1.7582,-1.7582,-1.7353,-1.7353,-1.7582,-1.7582,-1.7582,-1.7582,-1.7582,-1.7582,-1.7582,-1.7582,-1.7582,-1.7582,-1.7582,-1.7582,-1.7582,-1.7582,-1.7582,-1.7582,-1.7582,-1.7582,-1.7582,-1.5,-1.5,-1.6685,-2.1941,-2.2928,-2.2928,-2.2928,-1.8369,-1.5,-1.5,-1.3031,-1.2259,-1.4093,-1.4716,-1.6404,-1.9912,-1.8648,-1.8019,-1.8857,-1.8927,-1.9219,-1.9908,-2.1697,-2.2498,-2.2285,-2.2231,-2.2084,-2.1857,-2.1857,-2.1136,-1.9723,-1.9125,-1.8392,-1.7587,-1.8197,-1.8116,-1.7538,-1.8768,-1.7859,-1.5654,-1.5654,-1.5654,-1.5654,-1.5654,-1.6366,-1.7474,-1.7474,-1.7474,-1.7269,-1.6043,-1.6431,-1.7345,-1.6818,-1.6689,-1.6754,-1.7269,-1.8262,-1.9132,-1.8937,-1.9722,-2.0401,-1.9813,-1.9666,-1.9599,-1.9305,-1.9239,-1.9145,-1.8851,-1.8798,-1.8704,-1.841,-1.8357,-1.8237,-1.7849,-1.7782,-1.7675,-1.7368,-1.7315,-1.7315,-1.7315,-1.7315,-1.7315,-1.7315,-1.7315,-1.7315,-1.7315,-1.7315,-1.7315,-1.7315,-1.7408,-1.7501,-1.7501,-1.7542,-1.7582,-1.7582,-1.7502,-1.7502,-1.7582,-1.7582,-1.7582,-1.7582,-1.7582,-1.7582,-1.7582,-1.7582,-1.7582,-1.7582,-1.7582,-1.7582,-1.7582,-1.7582,-1.7582,-1.7582,-1.7582,-1.7582,-1.7582,-1.1619,-1.1619,-1.3031,-1.7669,-1.8438,-1.8438,-1.8438,-1.4503,-1.1619,-1.1619,-1.1619,-1.2187,-1.3737,-1.3389,-1.3951,-1.599,-1.6131,-1.6413,-1.7178,-1.7178,-1.7529,-1.8309,-1.9843,-2.0302,-1.9609,-1.9587,-1.9755,-1.9965,-1.9965,-1.9303,-1.8061,-1.7307,-1.6711,-1.6245,-1.6501,-1.6388,-1.6055,-1.7098,-1.6319,-1.4362,-1.4362,-1.4362,-1.4362,-1.4362,-1.5005,-1.5913,-1.5913,-1.5913,-1.5719,-1.4688,-1.5005,-1.5913,-1.5913,-1.5913,-1.5913,-1.5913,-1.6625,-1.744,-1.7296,-1.8467,-1.9712,-1.9267,-1.9559,-1.9893,-1.9599,-1.9533,-1.9452,-1.9158,-1.9092,-1.9011,-1.8718,-1.8664,-1.8571,-1.8277,-1.8223,-1.8156,-1.7969,-1.7943,-1.7903,-1.7782,-1.7769,-1.7716,-1.7595,-1.7582,-1.7582,-1.7582,-1.7582,-1.7582,-1.7582,-1.7582,-1.7582,-1.7582,-1.7582,-1.7582,-1.7582,-1.7582,-1.7582,-1.7582,-1.7582,-1.7582,-1.7582,-1.7582,-1.7582,-1.7582,-1.7582,-1.7582,-1.7529,-1.6988,-1.7094,-1.7529,-1.6988,-1.7094,-1.7582,-1.7582,-1.7582,-1.7582,-1.1701,-1.1653,-1.1619,-1.1619,-1.1619,-1.1619,-1.1619,-1.1619,-1.1619,-1.1619,-1.1619,-1.1619,-1.1619,-1.3666,-1.4164,-1.1835,-1.4725,-1.6685,-1.6685,-1.6685,-1.6685,-1.6685,-1.6685,-1.6202,-1.5079,-1.5363,-1.5967,-1.6865,-1.6865,-1.6628,-1.6157,-1.4583,-1.4574,-1.5856,-1.442,-1.4517,-1.569,-1.5823,-1.5705,-1.5453,-1.5453,-1.5453,-1.5453,-1.5434,-1.5424,-1.5424,-1.5469,-1.5459,-1.5459,-1.5459,-1.5459,-1.5459,-1.5459,-1.5459,-1.5459,-1.5459,-1.5524,-1.5654,-1.5654,-1.6947,-1.8198,-1.7966,-1.8865,-1.9789,-1.9847,-1.984,-1.976,-1.9506,-1.9426,-1.9319,-1.9052,-1.8985,-1.8865,-1.8584,-1.8531,-1.8517,-1.849,-1.849,-1.8397,-1.8062,-1.8035,-1.7983,-1.7689,-1.7662,-1.7662,-1.7662,-1.7662,-1.7662,-1.7662,-1.7662,-1.7662,-1.7662,-1.7662,-1.7662,-1.7662,-1.7662,-1.7635,-1.7582,-1.7582,-1.7582,-1.7582,-1.7582,-1.7582,-1.7582,-1.7477,-1.7411,-1.7305,-1.5796,-1.6009,-1.7094,-1.5743,-1.6115,-1.7411,-1.7411,-1.7477,-1.7582,-1.2311,-1.1938,-1.1619,-1.1619,-1.1619,-1.1619,-1.1619,-1.1619,-1.1619,-1.1619,-1.1619,-1.1619,-1.1619,-1.2115,-1.2187,-1.1619,-1.2323,-1.2817,-1.2817,-1.2817,-1.2817,-1.2817,-1.2817,-1.2681,-1.2395,-1.5283,-1.6877,-1.7107,-1.7107,-1.6308,-1.4789,-1.4362,-1.3539,-1.251,-1.3392,-1.3243,-1.2331,-1.3747,-1.3526,-1.221,-1.221,-1.221,-1.2195,-1.2075,-1.1955,-1.194,-1.1873,-1.1828,-1.1828,-1.1828,-1.1828,-1.1828,-1.1828,-1.1828,-1.1828,-1.1828,-1.2808,-1.384,-1.384,-1.5135,-1.6421,-1.6368,-1.6583,-1.7386,-1.9633,-2.0134,-2.012,-2.0054,-1.9867,-1.9693,-1.9626,-1.9426,-1.9172,-1.8878,-1.8824,-1.8744,-1.8517,-1.849,-1.8464,-1.8397,-1.8397,-1.837,-1.8303,-1.829,-1.829,-1.829,-1.829,-1.829,-1.829,-1.829,-1.829,-1.829,-1.829,-1.829,-1.829,-1.829,-1.805,-1.7582,-1.7582,-1.7582,-1.7582,-1.7582,-1.7582,-1.7529,-1.6393,-1.5902,-1.5796,-1.4341,-1.3965,-1.418,-1.3857,-1.4609,-1.5902,-1.5902,-1.6605,-1.7582,-1.2501,-1.225,-1.204,-1.204,-1.204,-1.204,-1.204,-1.1925,-1.1884,-1.202,-1.1918,-1.1775,-1.1633,-1.1619,-1.1674,-1.1816,-1.183,-1.183,-1.183,-1.1762,-1.1721,-1.1721,-1.1653,-1.1619,-1.1619,-1.3523,-1.4512,-1.4512,-1.4512,-1.4014,-1.3095,-1.3003,-1.2406,-1.1497,-1.2389,-1.2238,-1.1336,-1.2303,-1.212,-1.1234,-1.1234,-1.1234,-1.122,-1.1077,-1.105,-1.1036,-1.0962,-1.0887,-1.0826,-1.0826,-1.1304,-1.1828,-1.0982,-1.124,-1.1762,-1.0916,-1.1372,-1.2091,-1.2091,-1.3325,-1.4679,-1.4679,-1.5265,-1.6476,-1.8703,-1.9186,-1.9394,-2.0072,-2.0107,-2.0,-2.0,-1.988,-1.9679,-1.9386,-1.9345,-1.9239,-1.8945,-1.8905,-1.8851,-1.8718,-1.8691,-1.8637,-1.8504,-1.7798,-1.734,-1.734,-1.734,-1.734,-1.734,-1.8089,-1.849,-1.849,-1.849,-1.849,-1.849,-1.849,-1.833,-1.8009,-1.8009,-1.8009,-1.8009,-1.8009,-1.7618,-1.6846,-1.606,-1.5283,-1.446,-1.3024,-1.28,-1.3317,-1.2605,-1.3192,-1.4395,-1.4395,-1.5144,-1.634,-1.2501,-1.2501,-1.2501,-1.2501,-1.2501,-1.2501,-1.2501,-1.2291,-1.2223,-1.2467,-1.2291,-1.2047,-1.1796,-1.1769,-1.187,-1.2115,-1.2169,-1.2135,-1.2135,-1.1938,-1.187,-1.187,-1.1755,-1.1681,-1.1653,-1.1653,-1.1647,-1.1619,-1.1619,-1.1619,-1.1619,-1.1619,-1.1619,-1.1619,-1.1619,-1.1552,-1.143,-1.143,-1.1355,-1.124,-1.124,-1.124,-1.124,-1.1212,-1.1199,-1.1199,-1.1241,-1.1084,-1.0921,-1.0921,-1.1829,-1.269,-1.1224,-1.174,-1.2584,-1.1122,-1.0717,-1.0717,-1.0717,-1.1762,-1.2865,-1.2865,-1.397,-1.541,-1.6965,-1.749,-1.8136,-1.9617,-1.9846,-1.9929,-2.0247,-2.0267,-2.0147,-1.9907,-1.988,-1.9786,-1.9546,-1.9466,-1.9287,-1.8691,-1.8383,-1.8084,-1.7853,-1.6621,-1.5818,-1.5818,-1.5818,-1.5818,-1.5818,-1.7085,-1.7953,-1.8233,-1.8233,-1.8414,-1.8637,-1.8637,-1.8637,-1.8637,-1.8414,-1.818,-1.8089,-1.8089,-1.7229,-1.5682,-1.5401,-1.4544,-1.324,-1.1765,-1.1793,-1.2655,-1.1422,-1.1822,-1.3049,-1.3227,-1.3921,-1.501,-1.2501,-1.2501,-1.2501,-1.2501,-1.2501,-1.2501,-1.2501,-1.2467,-1.2454,-1.2494,-1.2467,-1.2427,-1.2386,-1.2379,-1.24,-1.244,-1.221,-1.2135,-1.2135,-1.204,-1.2033,-1.2033,-1.2013,-1.1938,-1.1803,-1.1803,-1.1742,-1.1619,-1.1619,-1.1619,-1.1619,-1.1619,-1.1619,-1.1619,-1.1619,-1.1606,-1.1586,-1.1586,-1.1579,-1.1558,-1.1558,-1.1558,-1.1545,-1.1409,-1.1362,-1.1341,-1.1212,-1.1151,-1.1131,-1.1131,-1.1324,-1.1419,-1.1022,-1.1049,-1.1156,-1.0825,-1.0717,-1.0717,-1.0717,-1.085,-1.1049,-1.1049,-1.124,-1.182,-1.3552,-1.5096,-1.6701,-1.8406,-1.8545,-1.8839,-2.0354,-2.0401,-2.0214,-2.0127,-2.0174,-2.016,-2.012,-1.9907,-1.9233,-1.7792,-1.6157,-1.5199,-1.5108,-1.4921,-1.4803,-1.4803,-1.4803,-1.4803,-1.4803,-1.499,-1.5744,-1.7159,-1.7217,-1.7869,-1.9252,-1.931,-1.931,-1.9252,-1.7869,-1.692,-1.6422,-1.6422,-1.5569,-1.3978,-1.2671,-1.1994,-1.1708,-1.0293,-0.9766,-0.9918,-0.9752,-1.0528,-1.1898,-1.3073,-1.4096,-1.5208,-1.2501,-1.2501,-1.2501,-1.2501,-1.2501,-1.2501,-1.2501,-1.2501,-1.2501,-1.2501,-1.2501,-1.2501,-1.2501,-1.2501,-1.2501,-1.2501,-1.2379,-1.2311,-1.2311,-1.2237,-1.2189,-1.2189,-1.2108,-1.2033,-1.1959,-1.1959,-1.1932,-1.187,-1.1701,-1.1619,-1.1619,-1.1619,-1.1619,-1.1619,-1.1619,-1.1619,-1.1619,-1.1619,-1.1619,-1.1619,-1.1619,-1.1619,-1.1613,-1.1545,-1.1518,-1.1511,-1.1443,-1.1362,-1.1294,-1.1294,-1.1233,-1.1151,-1.109,-1.107,-1.1036,-1.0894,-1.0779,-1.0826,-1.0744,-1.0717,-1.0717,-1.0717,-1.0717,-1.0916,-1.1696,-1.2413,-1.3774,-1.6496,-1.6936,-1.7371,-1.9171,-1.9337,-1.9524,-2.0323,-2.0481,-2.0414,-2.0254,-2.012,-1.9361,-1.7613,-1.5795,-1.467,-1.4609,-1.3765,-1.3228,-1.3228,-1.3228,-1.3228,-1.3228,-1.4123,-1.4955,-1.5666,-1.5666,-1.6031,-1.668,-1.6738,-1.6738,-1.668,-1.6031,-1.5968,-1.6563,-1.5641,-1.4364,-1.2836,-1.2199,-1.1382,-1.0502,-0.9856,-0.9578,-0.951,-0.951,-0.9858,-1.0509,-1.1842,-1.204,-1.1963]},{"header":{"parameterUnit":"m.s-1","parameterCategory":1,"la1":30.6,"la2":28.766,"lo1":-90.7593,"lo2":-88.6598,"dy":0.0162,"dx":0.0183,"nx":116,"ny":114,"refTime":"2024-06-19T06:00:00:Z","depth":0,"parameterNumber":3,"parameterNumberName":"V-component_of_WINDS"},"data":[0.0,0.0,0.0,0.0,0.0,0.0,0.0,0.0,0.0,0.0,0.0,0.0,0.0,0.0,0.0,0.0,0.0,0.0,0.0,0.0,0.0,0.0,0.0,0.0,0.0,0.0,0.0,0.0,0.0,0.0,0.0,0.0,0.0,0.0,0.0,0.0,0.0,0.0,0.0,0.0,0.0,0.0,0.0,0.0,0.0,0.0,0.0,0.0,0.0,0.0,0.0,0.0,0.0,0.0,0.0,0.0,0.0,0.0,0.0,0.0,0.0,0.0,0.0,0.0,0.0,0.0,0.0,0.0,0.0,0.0,0.0,0.0,0.0,0.0,0.0,0.0,0.0,0.0,0.0,0.0,0.0,0.0,0.0,0.0,0.0,0.0,0.0,0.0,0.0,0.0,0.0,0.0,0.0,0.0,0.0,0.0,0.0,0.0,0.0,0.0,0.0,0.0,0.0,0.0,0.0,0.0,0.0,0.0,0.0,0.0,0.0,0.0,0.0,0.0,0.0,0.0,0.0,0.0,0.0,0.0,0.0,0.0,0.0,0.0,0.0,0.0,0.0,0.0,0.0,0.0,0.0,0.0,0.0,0.0,0.0,0.0,0.0,0.0,0.0,0.0,0.0,0.0,0.0,0.0,0.0,0.0,0.0,0.0,0.0,0.0,0.0,0.0,0.0,0.0,0.0,0.0,0.0,0.0,0.0,0.0,0.0,0.0,0.0,0.0,0.0,0.0,0.0,0.0,0.0,0.0,0.0,0.0,0.0,0.0,0.0,0.0,0.0,0.0,0.0,0.0,0.0,0.0,0.0,0.0,0.0,0.0,0.0,0.0,0.0,0.0,0.0,0.0,0.0,0.0,0.0,0.0,0.0,0.0,0.0,0.0,0.0,0.0,0.0,0.0,0.0,0.0,0.0,0.0,0.0,0.0,0.0,0.0,0.0,0.0,0.0,0.0,0.0,0.0,0.0,0.0,0.0,0.0,0.0,0.0,0.0,0.0,0.0,0.0,0.0,0.0,0.0,0.0,0.0,0.0,0.0,0.0,0.0,0.0,0.0,0.0,0.0,0.0,0.0,0.0,0.0,0.0,0.0,0.0,0.0,0.0,0.0,0.0,0.0,0.0,0.0,0.0,0.0,0.0,0.0,0.0,0.0,0.0,0.0,0.0,0.0,0.0,0.0,0.0,0.0,0.0,0.0,0.0,0.0,0.0,0.0,0.0,0.0,0.0,0.0,0.0,0.0,0.0,0.0,0.0,0.0,0.0,0.0,0.0,0.0,0.0,0.0,0.0,0.0,0.0,0.0,0.0,0.0,0.0,0.0,0.0,0.0,0.0,0.0,0.0,0.0,0.0,0.0,0.0,0.0,0.0,0.0,0.0,0.0,0.0,0.0,0.0,0.0,0.0,0.0,0.0,0.0,0.0,0.0,0.0,0.0,0.0,0.0,0.0,0.0,0.0,0.0,0.0,0.0,0.0,0.0,0.0,0.0,0.0,0.0,0.0,0.0,0.0,0.0,0.0,0.0,0.0,0.0,0.0,0.0,0.0,0.0,0.0,0.0,0.0,0.0,0.0,0.0,0.0,0.0,0.0,0.0,0.0,0.0,0.0,0.0,0.0,0.0,0.0,0.0,0.0,0.0,0.0,0.0,0.0,0.0,0.0,0.0,0.0,0.0,0.0,0.0,0.0,0.0,0.0,0.0,0.0,0.0,0.0,0.0,0.0,0.0,0.0,0.0,0.0,0.0,0.0,0.0,0.0,0.0,0.0,0.0,0.0,0.0,0.0,0.0,0.0,0.0,0.0,0.0,0.0,0.0,0.0,0.0,0.0,0.0,0.0,0.0,0.0,0.0,0.0,0.0,0.0,0.0,0.0,0.0,0.0,0.0,0.0,0.0,0.0,0.0,0.0,0.0,0.0,0.0,0.0,0.0,0.0,0.0,0.0,0.0,0.0,0.0,0.0,0.0,0.0,0.0,0.0,0.0,0.0,0.0,0.0,0.0,0.0,0.0,0.0,0.0,0.0,0.0,0.0,0.0,0.0,0.0,0.0,0.0,0.0,0.0,0.0,0.0,0.0,0.0,0.0,0.0,0.0,0.0,0.0,0.0,0.0,0.0,0.0,0.0,0.0,0.0,0.0,0.0,0.0,0.0,0.0,0.0,0.0,0.0,0.0,0.0,0.0,0.0,0.0,0.0,0.0,0.0,0.0,0.0,0.0,0.0,0.0,0.0,0.0,0.0,0.0,0.0,0.0,0.0,0.0,0.0,0.0,0.0,0.0,0.0,0.0,0.0,0.0,0.0,0.0,0.0,0.0,0.0,0.0,0.0,0.0,0.0,0.0,0.0,0.0,0.0,0.0,0.0,0.0,0.0,0.0,0.0,0.0,0.0,0.0,0.0,0.0,0.0,0.0,0.0,0.0,0.0,0.0,0.0,0.0,0.0,0.0,0.0,0.0,0.0,0.0,0.0,0.0,0.0,0.0,0.0,0.0,0.0,0.0,0.0,0.0,0.0,0.0,0.0,0.0,0.0,0.0,0.0,0.0,0.0,0.0,0.0,0.0,0.0,0.0,0.0,0.0,0.0,0.0,0.0,0.0,0.0,0.0,0.0,0.0,0.0,0.0,0.0,0.0,0.0,0.0,0.0,0.0,0.0,0.0,0.0,0.0,0.0,0.0,0.0,0.0,0.0,0.0,0.0,0.0,0.0,0.0,0.0,0.0,0.0,0.0,0.0,0.0,0.0,0.0,0.0,0.0,0.0,0.0,0.0,0.0,0.0,0.0,0.0,0.0,0.0,0.0,0.0,0.0,0.0,0.0,0.0,0.0,0.0,0.0,0.0,0.0,0.0,0.0,0.0,0.0,0.0,0.0,0.0,0.0,0.0,0.0,0.0,0.0,0.0,0.0,0.0,0.0,0.0,0.0,0.0,0.0,0.0,0.0,0.0,0.0,0.0,0.0,0.0,0.0,0.0,0.0,0.0,0.0,0.0,0.0,0.0,0.0,0.0,0.0,0.0,0.0,0.0,0.0,0.0,0.0,0.0,0.0,0.0,0.0,0.0,0.0,0.0,0.0,0.0,0.0,0.0,0.0,0.0,0.0,0.0,0.0,0.0,0.0,0.0,0.0,0.0,0.0,0.0,0.0,0.0,0.0,0.0,0.0,0.0,0.0,0.0,0.0,0.0,0.0,0.0,0.0,0.0,0.0,0.0,0.0,0.0,0.0,0.0,0.0,0.0,0.0,0.0,0.0,0.0,0.0,0.0,0.0,0.0,0.0,0.0,0.0,0.0,0.0,0.0,0.0,0.0,0.0,0.0,0.0,0.0,0.0,0.0,0.0,0.0,0.0,0.0,0.0,0.0,0.0,0.0,0.0,0.0,0.0,0.0,0.0,0.0,0.0,0.0,0.0,0.0,0.0,0.0,0.0,0.0,0.0,0.0,0.0,0.0,0.0,0.0,0.0,0.0,0.0,0.0,0.0,0.0,0.0,0.0,0.0,0.0,0.0,0.0,0.0,0.0,0.0,0.0,0.0,0.0,0.0,0.0,0.0,0.0,0.0,0.0,0.0,0.0,0.0,0.0,0.0,0.0,0.0,0.0,0.0,0.0,0.0,0.0,0.0,0.0,0.0,0.0,0.0,0.0,0.0,0.0,0.0,0.0,0.0,0.0,0.0,0.0,0.0,0.0,0.0,0.0,0.0,0.0,0.0,0.0,0.0,0.0,0.0,0.0,0.0,0.0,0.0,0.0,0.0,0.0,0.0,0.0,0.0,0.0,0.0,0.0,0.0,0.0,0.0,0.0,0.0,0.0,0.0,0.0,0.0,0.0,0.0,0.0,0.0,0.0,0.0,0.0,0.0,0.0,0.0,0.0,0.0,0.0,0.0,0.0,0.0,0.0,0.0,0.0,0.0,0.0,0.0,0.0,0.0,0.0,0.0,0.0,0.0,0.0,0.0,0.0,0.0,0.0,0.0,0.0,0.0,0.0,0.0,0.0,0.0,0.0,0.0,0.0,0.0,0.0,0.0,0.0,0.0,0.0,0.0,0.0,0.0,0.0,0.0,0.0,0.0,0.0,0.0,0.0,0.0,0.0,0.0,0.0,0.0,0.0,0.0,0.0,0.0,0.0,0.0,0.0,0.0,0.0,0.0,0.0,0.0,0.0,0.0,0.0,0.0,0.0,0.0,0.0,0.0,0.0,0.0,0.0,0.0,0.0,0.0,0.0,0.0,0.0,0.0,0.0,0.0,0.0,0.0,0.0,0.0,0.0,0.0,0.0,0.0,0.0,0.0,0.0,0.0,0.0,0.0,0.0,0.0,0.0,0.0,0.0,0.0,0.0,0.0,0.0,0.0,0.0,0.0,0.0,0.0,0.0,0.0,0.0,0.0,0.0,0.0,0.0,0.0,0.0,0.0,0.0,0.0,0.0,0.0,0.0,0.0,0.0,0.0,0.0,0.0,0.0,0.0,0.0,0.0,0.0,0.0,0.0,0.0,0.0,0.0,0.0,0.0,0.0,0.0,0.0,0.0,0.0,0.0,0.0,0.0,0.0,0.0,0.0,0.0,0.0,0.0,0.0,0.0,0.0,0.0,0.0,0.0,0.0,0.0,0.0,0.0,0.0,0.0,0.0,0.0,0.0,0.0,0.0,0.0,0.0,0.0,0.0,0.0,0.0,0.0,0.0,0.0,0.0,0.0,0.0,0.0,0.0,0.0,0.0,0.0,0.0,0.0,0.0,0.0,0.0,0.0,0.0,0.0,0.0,0.0,0.0,0.0,0.0,0.0,0.0,0.0,0.0,0.0,0.0,0.0,0.0,0.0,0.0,0.0,0.0,0.0,0.0,0.0,0.0,0.0,0.0,0.0,0.0,0.0,0.0,0.0,0.0,0.0,0.0,0.0,0.0,0.0,0.0,0.0,0.0,0.0,0.0,0.0,0.0,0.0,0.0,0.0,0.0,0.0,0.0,0.0,0.0,0.0,0.0,0.0,0.0,0.0,0.0,0.0,0.0,0.0,0.0,0.0,0.0,0.0,0.0,0.0,0.0,0.0,0.0,0.0,0.0,0.0,0.0,0.0,0.0,0.0,0.0,0.0,0.0,0.0,0.0,0.0,0.0,0.0,0.0,0.0,0.0,0.0,0.0,0.0,0.0,0.0,0.0,0.0,0.0,0.0,0.0,0.0,0.0,0.0,0.0,0.0,0.0,0.0,0.0,0.0,0.0,0.0,0.0,0.0,0.0,0.0,0.0,0.0,0.0,0.0,0.0,0.0,0.0,0.0,0.0,0.0,0.0,0.0,0.0,0.0,0.0,0.0,0.0,0.0,0.0,0.0,0.0,0.0,0.0,0.0,0.0,0.0,0.0,0.0,0.0,0.0,0.0,0.0,0.0,0.0,0.0,0.0,0.0,0.0,0.0,0.0,0.0,0.0,0.0,0.0,0.0,0.0,0.0,0.0,0.0,0.0,0.0,0.0,0.0,0.0,0.0,0.0,0.0,0.0,0.0,0.0,0.0,0.0,0.0,0.0,0.0,0.0,0.0,0.0,0.0,0.0,0.0,0.0,0.0,0.0,0.0,0.0,0.0,0.0,0.0,0.0,0.0,0.0,0.0,0.0,0.0,0.0,0.0,0.0,0.0,0.0,0.0,0.0,0.0,0.0,0.0,0.0,0.0,0.0,0.0,0.0,0.0,0.0,0.0,0.0,0.0,0.0,0.0,0.0,0.0,0.0,0.0,0.0,0.0,0.0,0.0,0.0,0.0,0.0,0.0,0.0,0.0,0.0,0.0,0.0,0.0,0.0,0.0,0.0,0.0,0.0,0.0,0.0,0.0,0.0,0.0,0.0,0.0,0.0,0.0,0.0,0.0,0.0,0.0,0.0,0.0,0.0,0.0,0.0,0.0,0.0,0.0,0.0,0.0,0.0,0.0,0.0,0.0,0.0,0.0,0.0,0.0,0.0,0.0,0.0,0.0,0.0,0.0,0.0,0.0,0.0,0.0,0.0,0.0,0.0,0.0,0.0,0.0,0.0,0.0,0.0,0.0,0.0,0.0,0.0,0.0,0.0,0.0,0.0,0.0,0.0,0.0,0.0,1.216,0.0,0.0,0.0,0.0,0.0,0.0,0.0,0.0,0.0,0.0,0.0,0.0,0.0,0.0,0.0,0.0,0.0,0.0,0.0,0.0,0.0,0.0,0.0,0.0,0.5868,0.6288,0.6652,0.7028,0.7235,0.7235,0.7577,0.765,0.7235,0.7271,0.7101,0.6719,0.6685,0.6888,0.7235,0.7578,0.8155,0.8904,0.9219,0.8581,0.7174,0.0,0.0,0.0,0.0,0.0,0.0,0.0,0.0,0.0,0.0,0.0,0.0,0.0,0.0,0.0,0.0,0.0,0.0,0.0,0.0,0.0,0.0,0.0,0.0,0.0,0.0,0.0,0.0,0.0,0.0,0.0,0.0,0.0,0.0,0.0,0.0,0.0,0.0,0.0,0.0,0.0,0.0,0.0,0.0,0.0,0.0,0.0,0.0,0.0,0.0,0.0,0.0,0.0,0.0,0.0,0.0,0.0,0.0,0.0,0.0,0.0,0.0,0.0,0.0,0.0,0.0,0.0,0.0,0.0,0.0,0.0,1.3268,0.0,0.0,0.0,0.0,0.0,0.0,0.0,0.0,0.0,0.0,0.0,0.0,0.0,0.0,0.0,0.0,0.0,0.0,0.0,0.0,0.0,0.5455,0.5776,0.645,0.696,0.7061,0.7645,0.7989,0.7989,0.857,0.8637,0.8023,0.7989,0.7713,0.7095,0.7095,0.7438,0.8187,0.9078,1.0259,1.1658,1.1965,1.072,0.8207,0.8155,0.0,0.0,0.0,0.0,0.0,0.0,0.0,0.0,0.0,0.0,0.0,0.0,0.0,0.0,0.0,0.0,0.0,0.0,0.0,0.0,0.0,0.0,0.0,0.0,0.0,0.0,0.0,0.0,0.0,0.0,0.0,0.0,0.0,0.0,0.0,0.0,0.0,0.0,0.0,0.0,0.0,0.0,0.0,0.0,0.0,0.0,0.0,0.0,0.0,0.0,0.0,0.0,0.0,0.0,0.0,0.0,0.0,0.0,0.0,0.0,0.0,0.0,0.0,1.6451,1.6509,1.6407,1.6993,1.7331,1.7421,1.6413,1.611,1.6094,0.0,0.0,0.0,0.0,0.0,0.0,0.0,0.0,0.0,0.0,0.0,0.0,0.0,0.0,0.0,0.0,0.0,0.0,0.0,0.0,0.5913,0.7318,0.7573,0.7921,0.857,0.871,0.8744,0.8744,0.8846,0.8846,0.8744,0.8744,0.871,0.8603,0.8603,0.897,0.9697,1.1164,1.2295,1.3141,1.3282,1.322,1.2935,1.1911,1.1752,1.2112,0.0,0.0,0.0,0.0,0.0,0.0,0.0,0.0,0.0,0.0,0.0,0.0,0.0,0.0,0.0,0.0,0.0,0.0,0.0,0.0,0.0,0.0,0.0,0.0,0.0,0.0,0.0,0.0,0.0,0.0,0.0,0.0,0.0,0.0,0.0,0.0,0.0,0.0,0.0,0.0,0.0,1.0846,1.1632,0.0,0.0,0.0,0.0,0.0,0.0,0.0,0.0,0.0,0.0,0.0,0.0,0.0,1.6621,1.7343,1.8729,1.9101,1.8471,1.9836,2.0094,1.9427,1.9541,1.9959,2.0581,2.0429,0.0,1.7421,1.593,0.0,0.0,0.0,0.0,0.0,0.0,0.0,0.0,0.0,0.0,0.0,0.0,0.0,0.0,0.0,0.0,0.0,0.0,0.0,0.0,0.0,0.8455,0.9068,0.95,0.9884,0.9952,0.954,0.9506,0.9343,0.8914,0.8914,0.8914,0.8914,0.9309,1.0284,1.1908,1.343,1.431,1.4623,1.4812,1.4951,1.5073,1.4708,1.4053,1.3092,1.1649,0.0,0.0,0.0,0.0,0.0,0.0,0.0,0.0,0.0,0.0,0.0,0.0,0.0,0.0,0.0,0.0,0.0,0.0,0.0,0.0,0.0,0.0,0.0,0.0,0.0,0.0,0.0,0.0,0.0,0.0,0.0,0.0,0.0,0.0,0.0,0.0,0.0,0.0,0.0,1.0236,1.14,1.2212,1.2355,1.2389,0.0,0.0,0.0,0.0,0.0,0.0,0.0,0.0,0.0,1.7873,1.8335,1.9135,2.0318,2.1366,2.1955,2.207,2.2714,2.2883,2.253,2.253,2.2714,2.3052,2.3052,2.2477,2.138,1.9034,1.758,1.6745,0.0,0.0,0.0,0.0,1.5916,1.6163,0.0,0.0,0.0,0.0,0.0,0.0,0.0,0.0,0.0,0.0,0.0,0.0,0.8155,0.9201,0.9959,1.0186,1.0757,1.0839,1.0226,1.0076,0.977,0.9213,0.9015,0.8982,0.9179,1.0284,1.1975,1.4226,1.5528,1.6373,1.6745,1.6877,1.7018,1.7155,1.7498,1.6442,1.4379,1.3424,1.2338,1.1131,0.0,0.0,0.0,0.0,0.0,0.0,0.0,0.0,0.0,0.0,0.0,0.0,0.0,0.0,0.0,0.0,0.0,0.0,0.0,0.0,0.0,0.0,0.0,0.0,0.0,0.0,0.0,0.0,0.0,0.0,0.0,0.0,0.0,0.0,0.0,0.0,0.0,1.1536,1.2551,1.3337,1.4082,1.4454,0.0,0.0,0.0,0.0,0.0,0.0,1.7783,1.8042,1.8821,2.0276,2.0873,2.1705,2.2868,2.341,2.3966,2.4508,2.4508,2.4508,2.4508,2.4508,2.4508,2.4508,2.4508,2.4508,2.4305,2.1671,1.9947,1.8865,1.7896,1.7219,1.6881,1.7952,1.8234,1.8299,0.0,0.0,0.0,0.0,0.0,0.0,0.0,0.0,0.0,0.0,0.0,0.8193,0.9547,0.9871,1.0212,1.0718,1.0975,1.1004,1.0783,1.0292,0.9967,0.9933,0.9275,0.9241,0.9933,1.2118,1.4328,1.6529,1.732,1.8425,1.9765,1.9778,1.9938,2.0177,2.0512,1.9503,1.7472,1.6092,1.546,1.5203,1.2847,0.0,0.0,0.0,0.0,0.0,0.0,0.0,0.0,0.0,0.0,0.0,0.0,0.0,0.0,0.0,0.0,0.0,0.0,0.0,0.0,0.0,0.0,0.0,0.0,0.0,0.0,0.0,0.0,0.0,0.0,0.0,0.0,0.0,0.0,0.0,0.0,0.0,0.0,1.6394,1.7117,0.0,0.0,0.0,0.0,1.6597,1.7907,1.9362,2.0886,2.1651,2.2699,2.4169,2.4237,2.4305,2.4372,2.444,2.4474,2.4508,2.4508,2.4508,2.4508,2.4508,2.4508,2.4508,2.4508,2.4508,2.4372,2.2835,2.2144,2.1907,2.042,1.9799,1.9799,1.9866,2.0365,2.1,0.0,0.0,0.0,0.3984,0.3998,0.4318,0.514,0.5513,0.614,0.7324,0.8209,0.8948,0.9479,1.1019,1.1874,1.1548,1.259,1.2848,1.1827,1.1087,1.0927,1.1468,1.0731,1.134,1.3565,1.486,1.6394,1.811,1.8865,1.9495,2.0002,2.0002,2.013,2.0407,2.0501,2.0386,1.9939,1.8038,1.6952,1.6255,1.3844,1.2375,0.0,0.0,0.0,0.0,0.0,0.0,0.0,0.0,0.0,0.0,0.0,0.0,0.0,0.0,0.0,0.0,0.0,0.0,0.0,0.0,0.0,0.0,0.0,0.0,0.0,0.0,0.0,0.0,0.0,0.0,0.0,0.0,0.0,0.0,0.0,0.0,0.0,1.7975,1.8775,0.0,1.8831,1.9295,1.9802,2.0264,2.1211,2.224,2.3255,2.356,2.3966,2.4474,2.4508,2.4745,2.5203,2.5203,2.5439,2.5929,2.5929,2.5929,2.5929,2.5929,2.5929,2.5929,2.5929,2.5929,2.5828,2.4831,2.4154,2.3661,2.3105,2.2902,2.2902,2.2902,2.3086,2.3323,0.4172,0.4153,0.0,0.4029,0.4274,0.4766,0.5529,0.6179,0.688,0.7707,0.8749,0.9624,1.0218,1.1967,1.3067,1.3022,1.3938,1.4037,1.2983,1.2039,1.1739,1.228,1.228,1.343,1.591,1.6925,1.8178,1.9667,2.0162,2.0521,2.0792,2.0792,2.0862,2.104,2.1142,2.1452,2.1826,2.0129,1.8915,1.7935,1.5784,1.4426,1.3576,0.0,0.0,0.0,0.0,0.0,0.0,0.0,0.0,0.0,0.0,0.0,0.0,0.0,0.0,0.0,0.0,0.0,0.0,0.0,0.0,0.0,0.0,0.0,0.0,0.0,0.0,0.0,0.0,0.0,0.0,0.0,0.0,0.0,0.0,0.0,1.8279,1.9532,2.0568,2.1164,2.1164,2.1854,2.251,2.3004,2.3477,2.4025,2.4591,2.5004,2.5274,2.5363,2.5614,2.5966,2.6452,2.6243,2.6476,2.7173,2.7173,2.7279,2.7486,2.7486,2.7486,2.7486,2.7486,2.7486,2.7453,2.6962,2.6454,2.5929,2.488,2.4508,2.4508,2.4508,2.4508,2.4508,0.434,0.4286,0.427,0.422,0.4807,0.5517,0.6194,0.7096,0.7852,0.8345,0.9132,1.0203,1.1776,1.2587,1.3606,1.5021,1.4733,1.4377,1.4102,1.2975,1.2314,1.2415,1.3827,1.5325,1.68,1.8245,1.9701,2.1224,2.1224,2.1597,2.2313,2.2313,2.2313,2.2293,2.256,2.2873,2.3141,2.2376,2.1468,2.0458,1.8816,1.7679,1.6688,0.0,0.0,0.0,0.0,0.0,0.0,0.0,0.0,0.0,0.0,0.0,0.0,0.0,0.0,0.0,0.0,0.0,0.0,0.0,0.0,0.0,0.0,0.0,0.0,0.0,0.0,0.0,0.0,0.0,0.0,0.0,0.0,0.0,1.7918,1.9169,2.0386,2.119,2.2578,2.3444,2.3444,2.4135,2.4575,2.4575,2.4609,2.4724,2.4906,2.6117,2.689,2.7156,2.7773,2.8096,2.8096,2.7513,2.7492,2.8056,2.8076,2.84,2.8991,2.901,2.901,2.901,2.901,2.901,2.901,2.901,2.901,2.8705,2.5794,2.4609,2.4609,2.4609,2.4575,2.4575,0.4295,0.4258,0.423,0.4214,0.4853,0.5626,0.6405,0.7116,0.7819,0.8512,0.956,1.0429,1.0857,1.2631,1.3757,1.3616,1.4163,1.424,1.3622,1.2789,1.3024,1.4614,1.661,1.8403,1.9938,2.0344,2.1055,2.1989,2.1989,2.209,2.2313,2.2313,2.2313,2.2293,2.2391,2.2581,2.286,2.287,2.2861,2.262,2.0445,1.8843,1.7649,0.0,0.0,0.0,0.0,0.0,0.0,0.0,0.0,0.0,0.0,0.0,0.0,0.0,0.0,0.0,0.0,0.0,0.0,0.0,0.0,0.0,0.0,0.0,0.0,0.0,0.0,0.0,0.0,0.0,0.0,0.0,0.0,2.0276,2.0276,2.1075,2.2158,2.3424,2.3932,2.4203,2.4203,2.5354,2.6099,2.6099,2.7148,2.7806,2.785,2.8194,2.8414,2.8489,2.821,2.8096,2.8096,2.7513,2.7285,2.7472,2.7898,2.8174,2.8362,2.8792,2.901,2.901,2.901,2.901,2.901,2.901,2.901,2.8908,2.8096,2.7402,2.6877,2.6877,2.6556,2.6099,0.4385,0.4361,0.4412,0.4721,0.5418,0.6162,0.6857,0.7602,0.8232,0.8655,0.9819,1.0791,1.1203,1.2965,1.4112,1.4098,1.4632,1.4648,1.3904,1.3735,1.4546,1.6441,1.8369,1.9925,2.1156,2.1495,2.1887,2.2313,2.2313,2.2313,2.2313,2.2313,2.2313,2.2313,2.2313,2.2467,2.2708,2.2794,2.3165,2.3555,2.2005,2.0914,2.0034,1.8852,1.7825,1.6915,1.6255,1.5778,1.5441,1.5117,0.0,0.0,0.0,0.0,0.0,0.0,0.0,0.0,0.0,0.0,0.0,0.0,0.0,0.0,0.0,0.0,0.0,0.0,0.0,0.0,0.0,0.0,0.0,0.0,2.1393,2.2781,2.3424,2.3342,2.3646,2.4812,2.5218,2.5557,2.5845,2.6962,2.7656,2.7656,2.8502,2.8903,2.8665,2.917,2.9357,2.9116,2.9052,2.9037,2.9037,2.8425,2.8255,2.8509,2.8842,2.9158,2.9396,2.9772,2.9924,0.0,2.9924,2.9924,2.9924,2.9924,2.9924,0.0,0.0,0.0,0.0,0.0,2.8044,2.7656,0.4511,0.4508,0.4745,0.546,0.6225,0.6873,0.744,0.8304,0.8863,0.873,0.9936,1.1148,1.2054,1.3265,1.4336,1.5271,1.5426,1.5257,1.4774,1.5426,1.6509,1.7986,1.9406,2.0521,2.1326,2.1989,2.2313,2.2313,2.2313,2.2313,2.2313,2.2313,2.2313,2.2313,2.2313,2.244,2.2617,2.244,2.2841,2.3566,2.3294,2.311,2.2822,2.1321,2.0706,2.0429,1.8976,1.8031,1.7348,1.6628,0.0,0.0,0.0,0.0,0.0,0.0,0.0,0.0,0.0,0.0,0.0,0.0,0.0,0.0,0.0,0.0,0.0,0.0,0.0,0.0,0.0,0.0,0.0,0.0,2.3492,2.5354,2.6776,2.5828,2.5252,2.5913,2.6556,2.7232,2.7858,2.8653,2.9111,2.9111,2.9281,2.9162,2.8694,0.0,0.0,0.0,0.0,3.0476,3.0326,2.9855,2.9877,3.0347,3.0476,3.0846,3.1348,3.1407,3.1461,3.1427,3.136,3.1326,3.1326,3.1224,3.119,3.1055,2.9687,2.9111,2.9111,2.9044,2.901,2.901,0.451,0.45,0.4723,0.5467,0.6225,0.6947,0.7635,0.8413,0.8903,0.8875,1.0004,1.0942,1.1277,1.2448,1.3377,1.3794,1.4377,1.5155,1.6214,1.6948,1.802,1.9495,2.0467,2.1312,2.2057,2.2226,2.2313,2.2313,2.2313,2.2313,2.2313,2.2313,2.2313,2.2313,2.2313,2.2321,2.2371,2.2533,2.2721,2.291,2.3117,2.311,2.2951,2.2323,2.1871,2.1456,2.0871,2.0752,2.0821,2.0674,1.9609,1.825,1.7436,1.6261,0.0,0.0,0.0,0.0,0.0,0.0,0.0,0.0,0.0,0.0,0.0,0.0,0.0,0.0,0.0,0.0,0.0,0.0,0.0,2.4526,2.6116,2.7503,2.8434,2.8299,2.8197,2.8333,2.8468,2.8604,2.8755,2.9465,2.9905,2.9905,3.0987,3.161,3.153,3.23,3.2475,3.1836,3.1957,3.157,3.0472,3.0935,3.0951,3.0539,0.0,0.0,3.2276,3.274,3.2983,3.2949,3.2361,3.209,3.2056,3.1447,3.119,3.1089,3.0243,2.9905,2.9837,2.9213,2.901,2.901,0.5152,0.5142,0.5337,0.6081,0.6787,0.7505,0.8226,0.8671,0.8914,0.8914,0.9783,1.0426,1.0541,1.1466,1.2087,1.2246,1.3303,1.4885,1.7117,1.7929,1.9012,2.0534,2.1346,2.1921,2.2279,2.2313,2.2313,2.2313,2.2313,2.2313,2.2313,2.2313,2.2313,2.2313,2.2313,2.2313,2.2293,2.2453,2.2573,2.2721,2.2885,2.3023,2.3086,2.3086,2.2834,2.2509,2.2509,2.2247,2.1912,2.1912,2.1074,1.9903,1.9084,1.8313,1.7222,0.0,0.0,0.0,0.0,0.0,0.0,0.0,0.0,0.0,0.0,0.0,0.0,0.0,0.0,2.094,2.2057,0.0,2.5829,2.6573,2.7672,2.8653,2.9431,2.9533,2.9397,2.9044,2.9348,2.9533,2.9533,3.0548,3.119,3.119,3.2205,3.2848,3.2848,3.3186,3.3241,3.2906,3.2927,3.2608,3.1969,3.2315,3.2337,3.2006,3.263,3.2949,3.2949,3.3262,3.3423,3.3389,3.3017,3.2848,3.2814,3.2442,3.207,3.1718,3.1326,3.0987,3.0615,3.0243,3.0093,3.0093,0.581,0.6081,0.6373,0.6928,0.7487,0.8092,0.8778,0.8914,0.8914,0.8914,0.954,1.0001,1.0001,1.0656,1.1238,1.1509,1.2795,1.486,1.7828,1.8707,1.979,2.136,2.1989,2.2313,2.2313,2.2313,2.2313,2.2313,2.2313,2.2313,2.2313,2.2313,2.2313,2.2313,2.2313,2.2313,2.2313,2.2313,2.2426,2.2639,2.2639,2.2759,2.308,2.3398,2.3362,2.3224,2.3444,2.2876,2.2057,2.2187,2.1728,2.0929,2.0287,2.0055,1.9591,1.725,1.6446,0.0,0.0,0.0,0.0,0.0,0.0,0.0,0.0,1.8775,1.9507,2.0995,2.2888,2.4425,2.5049,2.686,2.8263,2.8263,2.8924,2.9653,3.0243,3.0311,3.0108,2.9517,2.9939,3.0378,3.0514,3.1616,3.2361,3.2496,3.3186,3.3626,3.3626,3.3761,3.3765,3.3657,3.3765,3.37,3.345,3.37,3.3765,3.3624,3.3765,3.3829,3.3829,3.3829,3.3829,3.3829,3.3694,3.3525,3.3423,3.3423,3.3051,3.253,3.253,3.2056,3.1393,3.1258,3.119,3.119,0.5971,0.7092,0.7986,0.7879,0.7944,0.8169,0.8795,0.8914,0.8914,0.8914,0.954,1.0001,1.0001,1.0656,1.1645,1.3007,1.3904,1.5619,1.8572,1.9473,2.0555,2.2124,2.2245,2.2313,2.2313,2.2313,2.2313,2.2313,2.2313,2.2313,2.2313,2.2313,2.2313,2.2313,2.2313,2.2313,2.2313,2.2313,2.2307,2.2349,2.2349,2.2377,2.2412,2.2717,2.2972,2.3165,2.291,2.2493,2.2184,2.2846,2.2563,2.1936,2.1763,2.1741,2.1379,1.9469,1.8447,1.7842,1.742,1.7377,1.7929,2.0039,2.0027,2.042,0.0,2.4154,2.4169,2.5642,2.6674,2.7317,2.7418,2.8737,2.9818,2.9818,3.048,3.0987,3.1055,3.1089,3.1055,3.0954,3.1021,3.1326,3.1989,3.2192,3.2564,3.322,3.3964,3.437,3.437,3.5013,3.5104,3.4504,3.5025,3.4795,3.357,3.4772,3.5081,3.448,3.5048,3.5329,3.5329,3.5329,3.5329,3.5329,3.4675,3.3998,3.3423,3.3423,3.3355,3.3288,3.3288,3.2814,3.209,3.1427,3.119,3.119,0.6652,0.7641,0.8519,0.8823,0.8815,0.8847,0.9099,0.9129,0.9099,0.9015,0.9269,0.9435,0.9382,0.9647,1.0426,1.1915,1.3168,1.4928,1.7467,1.9101,2.0487,2.1617,2.2057,2.2313,2.2313,2.2313,2.2313,2.2313,2.2313,2.2313,2.2313,2.2313,2.2313,2.2313,2.2313,2.2313,2.2313,2.2313,2.2313,2.2313,2.2313,2.2313,2.2293,2.2426,2.2279,2.2055,2.2071,2.1851,0.0,2.1386,2.1455,2.149,2.097,2.1177,2.129,2.0079,1.9484,1.9324,1.9692,2.0094,2.0839,2.268,2.3173,2.3767,2.5778,2.6319,2.659,2.7215,2.8297,2.9142,2.9142,3.004,3.0886,0.0,3.165,3.1853,3.1853,3.1853,3.1684,3.1258,3.119,3.1495,3.2226,3.2679,3.3254,3.3964,3.4742,3.5148,3.5148,3.543,3.5453,3.5191,3.5453,3.5339,3.4793,3.5316,3.5453,3.5168,3.5487,3.56,3.56,3.56,3.56,3.5566,3.5261,3.4979,3.4687,3.4687,3.4438,3.4032,3.4032,3.3592,3.2848,3.2124,3.1582,3.119,0.7192,0.8187,0.9042,0.9497,0.9489,0.9403,0.9304,0.929,0.9257,0.9164,0.9119,0.9042,0.893,0.8918,0.9463,1.0697,1.222,1.4057,1.6248,1.829,1.9913,2.1156,2.1718,2.2076,2.2313,2.2313,2.2313,2.2313,2.2313,2.2313,2.2313,2.2313,2.2313,2.2313,2.2313,2.2313,2.2313,2.2313,2.2313,2.2313,2.2313,2.2313,2.2279,2.2076,2.1651,2.123,2.1408,2.1105,2.0479,1.9879,2.0094,2.0479,1.9879,2.023,2.0805,2.042,2.0487,2.0758,2.136,2.2192,2.3274,2.4745,2.5642,2.6438,2.7435,2.8044,2.85,2.8703,2.9616,3.0412,3.0412,3.0852,3.1427,3.2192,3.2293,3.2361,3.2564,3.2429,3.209,3.1582,3.1326,3.1562,3.253,3.3085,3.3795,3.4742,3.5295,3.56,3.56,3.56,3.56,3.56,3.56,3.56,3.56,3.56,3.56,3.56,3.56,3.56,3.56,3.56,3.56,3.56,3.56,3.56,3.56,3.56,3.5318,3.481,3.481,3.437,3.3626,3.3106,3.2327,3.1495,0.7387,0.8741,0.9844,0.9801,0.9784,0.9692,0.9345,0.929,0.929,0.9285,0.9174,0.9042,0.893,0.9005,0.9365,0.998,1.1427,1.3261,1.5494,1.705,1.8877,2.1089,2.1224,2.1563,2.2279,2.2313,2.2313,2.2313,2.2313,2.2313,2.2313,2.2313,2.2313,2.2313,2.2313,2.2313,2.2313,2.2313,2.2313,2.2313,2.2313,2.2313,2.2212,2.1495,2.1224,2.119,2.1204,2.0255,1.8978,1.8944,1.8944,1.8978,1.8944,1.9439,2.0183,2.0953,2.1651,2.2245,2.2245,2.3342,2.4778,2.6268,2.7199,2.8128,2.9668,2.9987,3.0243,3.0954,3.1123,3.1157,3.1157,3.119,3.1427,3.2192,3.2293,3.2564,3.3254,3.2747,3.2293,3.2259,3.165,3.1765,0.0,3.3389,3.3977,3.5464,3.56,3.56,3.56,3.56,3.56,3.56,3.56,3.56,3.56,3.56,3.56,3.56,3.56,3.56,3.56,3.56,3.56,3.56,3.56,3.56,3.56,3.56,3.56,3.5566,3.5566,3.5115,3.4438,3.4438,3.3512,3.2259,0.8244,0.9134,0.9903,0.9879,0.9831,0.9764,0.9632,0.9599,0.9534,0.9457,0.9304,0.0,0.0,0.0,0.0,0.0,1.1034,1.2353,1.4023,1.5977,1.7625,1.8877,2.0378,2.1326,2.1563,2.2057,2.2313,2.2313,2.2313,2.2313,2.2313,2.2313,2.2313,2.2313,2.2313,2.2313,2.2313,2.2313,2.2313,2.2313,2.2313,2.2313,2.2279,2.2023,2.0974,1.9667,0.0,1.9012,1.8099,1.7602,1.7771,1.8166,1.8166,1.9,2.0149,2.0953,2.2409,2.3763,2.3763,2.5203,2.6928,2.796,2.8789,2.9582,3.0615,3.0818,3.0751,3.0514,3.048,3.0311,2.9822,3.0142,3.0852,3.209,3.2733,3.3288,3.4032,3.3897,3.341,3.2429,3.251,0.0,0.0,0.0,0.0,3.543,3.5148,3.5318,3.6332,3.64,3.6603,3.711,3.7144,3.7144,3.7144,3.7144,3.6874,3.6366,3.5836,3.56,3.56,3.56,3.56,3.56,3.56,3.56,3.56,3.56,3.56,3.56,3.56,3.543,3.525,3.525,3.4607,3.3613,0.8763,0.9434,0.9949,0.9925,0.9883,0.0,0.0,0.0,0.0,0.0,0.0,0.0,0.0,0.0,0.0,0.0,0.0,1.1464,1.2584,1.4538,1.6072,1.6982,1.8721,1.9787,1.9972,2.0467,2.0826,2.1109,2.1109,2.1231,2.1468,2.1786,2.1921,2.1921,2.2178,2.2313,2.2313,2.2313,2.2313,2.2279,2.2023,2.1921,2.182,2.0995,1.9778,0.0,1.7625,1.7185,1.6948,1.6485,1.6982,1.7783,1.7783,1.9,2.0589,2.1346,2.2984,2.4609,2.5151,2.6725,2.8416,2.9194,2.9939,3.0615,3.1089,3.0987,3.0581,2.9871,2.9499,2.9059,2.8333,2.8552,2.9533,3.1582,3.2307,3.3152,3.4675,3.4675,3.4155,3.3207,3.3491,3.3795,0.0,0.0,0.0,3.5464,3.5419,3.5746,3.6761,3.7066,3.7415,3.7889,3.7922,3.7922,3.7922,3.7922,3.7652,3.7178,3.6671,3.6276,3.6028,3.6028,3.587,3.56,3.56,3.56,3.56,3.56,3.56,3.56,3.56,3.56,3.56,3.56,3.5295,3.4709,0.8958,0.9575,1.0061,0.0,0.0,0.0,0.0,0.0,0.0,0.0,0.0,0.0,0.0,0.0,0.0,0.0,0.0,0.0,1.1201,1.2788,1.4238,1.5455,1.6424,1.7178,1.7715,1.7783,1.8121,1.8843,1.8843,1.9203,1.99,2.067,2.1021,2.1055,2.1786,2.211,2.211,2.2178,2.2144,2.2043,2.136,2.1055,2.0784,1.864,1.7749,1.7411,1.5315,1.4977,1.5561,1.5629,1.6678,1.7986,1.802,1.9553,2.1461,2.226,2.3511,2.4982,2.6437,2.796,2.9281,2.9973,3.0683,3.119,3.1157,3.0581,2.9837,2.9044,2.8247,2.7452,2.6725,2.6657,2.7706,3.0649,3.1224,3.2307,3.5194,3.5047,3.4607,0.0,0.0,0.0,0.0,0.0,0.0,3.5667,0.0,3.6795,3.6897,3.7584,3.799,3.8024,3.8024,3.8024,3.8024,3.799,3.7956,3.7956,3.7922,3.7516,3.6863,3.6863,3.6434,3.5701,3.5667,3.5667,3.5667,3.5633,3.56,3.56,3.56,3.56,3.56,3.56,3.56,3.5498,0.0,0.0,0.0,0.0,0.0,0.0,0.0,0.0,0.0,0.0,0.0,0.0,0.0,0.0,0.0,0.0,0.0,0.0,1.0586,1.1545,1.2683,1.405,1.5379,1.6385,1.6959,1.7523,1.7884,1.8099,1.8099,1.8189,1.8358,1.856,1.8674,1.8707,1.9452,1.9756,1.979,2.0352,2.0285,1.9756,1.9553,1.9147,1.8606,1.802,1.7107,1.6103,1.5528,1.5088,1.4943,1.6045,1.8178,2.0446,2.0961,2.1921,2.3071,2.4391,2.5795,2.7165,2.8163,2.9517,3.0683,3.0852,3.1055,3.1055,3.0514,2.9803,2.8908,2.7554,2.6691,2.5947,2.5218,2.642,2.8128,3.0074,3.1765,0.0,3.5329,3.596,0.0,3.5363,0.0,3.6806,3.6288,3.6705,0.0,0.0,3.6434,3.6671,3.8328,3.8599,3.8971,3.9537,3.9537,3.9537,3.9537,3.8971,3.8734,3.87,3.8159,3.7821,3.7618,3.7618,3.7516,3.728,3.6738,3.6468,3.6434,3.5859,3.56,3.56,3.56,3.56,3.56,3.56,3.56,3.5566,0.0,0.0,0.0,0.0,0.0,0.0,0.0,0.0,0.0,0.0,0.0,0.0,0.0,0.0,0.0,0.0,0.0,0.0,0.0,1.0793,1.1529,1.2161,1.3387,1.4145,1.4323,1.5046,1.559,1.597,1.6301,1.6642,1.6949,1.7301,1.7418,1.7354,1.8099,1.8437,1.8437,1.8865,1.8797,0.0,0.0,1.7704,1.7253,1.66,1.5822,1.5122,1.5122,1.5697,1.6678,1.8178,2.0242,2.2341,2.341,2.4255,2.5067,2.6235,2.7621,2.8973,2.9736,3.1021,3.207,3.1752,3.1427,3.092,2.9871,2.8755,2.7486,2.5609,2.4932,2.4188,2.2801,2.4357,2.6488,0.0,0.0,0.0,3.4844,3.6096,3.6626,0.0,3.7449,0.0,3.7347,3.7956,3.8396,0.0,3.7584,3.7652,3.8937,3.9309,3.9673,4.0079,4.0113,4.0113,4.0113,3.9706,3.9503,3.9503,3.9039,3.87,3.8396,3.8396,3.8227,3.7889,0.0,3.728,3.7212,3.6434,3.6129,3.6096,3.5735,3.56,3.56,3.56,3.56,3.56,0.0,0.0,0.0,0.0,0.0,0.0,0.0,0.0,0.0,1.001,0.9896,0.0,0.0,0.0,0.0,0.0,0.0,0.0,0.0,0.0,1.0635,1.0422,1.1221,1.1552,1.1317,1.1934,1.2665,1.3421,1.4163,1.4882,1.5617,1.6301,1.6473,1.6333,1.7059,1.7376,1.7377,1.7479,1.7445,1.731,1.6688,1.636,1.6113,0.0,1.4334,1.4368,1.4571,1.6407,1.9012,2.075,2.2409,2.3917,2.5304,2.6319,2.7131,2.7891,2.9108,3.0412,3.1157,3.2341,3.322,3.2496,3.1752,3.0784,2.9213,2.7588,2.5828,2.368,2.3105,2.2395,2.0487,2.1955,2.4154,2.6454,0.0,3.1123,3.4066,3.5847,3.6829,3.6931,3.8251,3.887,3.8261,3.8768,3.914,3.914,3.914,3.914,3.914,3.9774,4.0113,4.0113,4.0113,4.0113,4.0113,4.0113,4.0113,4.0113,4.0113,3.9774,3.914,3.914,3.8802,3.8193,3.8091,0.0,3.799,3.7246,3.6897,3.6728,3.6028,3.5701,3.56,3.56,3.56,3.56,0.0,0.0,0.0,0.0,0.0,0.0,0.0,0.0,1.031,1.0975,1.0365,0.9888,0.9875,0.9815,0.0,0.0,0.0,0.0,0.0,0.0,0.0,1.0548,1.0706,1.0994,1.1456,1.1584,1.1966,1.2594,1.2899,1.3374,1.4025,1.4294,1.4333,1.4167,1.4969,1.524,1.5112,1.5731,1.5629,1.5078,1.4943,1.4513,1.3955,1.3676,0.0,0.0,1.4952,1.6509,1.8391,2.1177,2.3496,2.5372,2.6251,2.7469,2.8739,2.9499,3.0311,3.1157,3.1921,3.2747,3.322,3.2496,3.1752,3.0649,2.85,2.6387,2.444,2.2835,2.1468,2.0657,2.094,2.2293,2.4323,2.7148,2.9007,3.1123,3.4066,3.5847,3.7032,0.0,0.0,0.0,0.0,0.0,0.0,0.0,0.0,3.991,3.991,4.0045,4.0113,4.0113,4.0113,4.0113,4.0113,4.0113,4.0113,4.0113,4.0113,4.0045,3.991,3.991,3.9842,3.9673,3.9073,0.0,3.8734,3.8024,3.7347,3.6795,3.666,3.6197,3.56,3.56,3.56,3.56,0.0,0.0,0.0,0.0,0.0,0.0,0.0,1.0785,1.107,1.1935,1.1634,1.116,1.0621,1.0151,0.9841,0.0,0.0,0.0,0.0,0.0,0.0,1.0131,1.0127,1.0249,1.0435,1.1243,1.1819,1.2124,0.0,1.3587,1.3768,1.3962,1.3849,1.3528,1.3985,1.4083,1.3938,1.4319,1.4251,1.3938,1.3938,1.3709,1.3413,1.3413,0.0,0.0,1.5368,1.6779,1.864,2.0487,2.2584,2.4797,2.6691,2.8078,2.9145,2.9871,3.0886,3.1955,3.2679,3.3694,3.4303,3.3152,3.2036,3.048,2.7841,2.5507,2.3376,2.1502,2.0508,1.9879,1.9486,2.1278,2.3308,2.4713,2.686,2.9364,3.2341,3.4426,0.0,0.0,0.0,0.0,0.0,0.0,0.0,0.0,0.0,4.0113,4.0113,4.0113,4.0113,4.0113,4.0113,4.0113,4.0113,4.0113,4.0113,4.0113,4.0113,4.0113,4.0113,4.0113,4.0113,4.0079,3.974,0.0,3.9537,3.8768,3.8261,3.7879,3.71,3.6558,3.6163,3.5735,3.56,3.56,0.0,0.0,0.0,0.0,0.0,0.0,1.1041,1.1277,1.1712,1.2601,1.2707,1.2398,1.1603,1.0723,1.0112,0.0,0.0,0.0,0.0,0.0,0.0,0.0,0.9702,0.9663,0.9542,0.0,0.0,0.0,1.3322,0.0,0.0,0.0,0.0,0.0,1.3578,1.3557,1.3438,1.3396,1.3413,0.0,0.0,1.3413,1.3413,0.0,0.0,0.0,0.0,1.705,1.8809,1.971,2.1197,2.3173,2.5964,2.774,2.889,2.9634,3.092,3.2259,3.3152,3.437,3.5047,3.3728,3.2171,3.0209,2.7334,2.4729,2.2361,2.042,1.9731,1.9224,1.8222,2.0082,2.1975,2.2462,2.4763,2.7571,3.0751,3.3085,0.0,0.0,0.0,0.0,0.0,0.0,0.0,0.0,0.0,0.0,4.0113,4.0113,4.0113,4.0113,4.0113,4.0113,4.0113,4.0113,4.0113,4.0113,4.0113,4.0113,4.0113,4.0113,4.0113,4.0113,4.0113,0.0,0.0,3.9445,3.914,3.887,3.7743,3.7066,3.6728,3.6096,3.5735,3.56,0.0,0.0,0.0,0.0,0.0,0.0,1.0307,1.0933,1.1715,1.2603,1.2687,1.2659,1.2572,1.1718,1.0833,0.0,0.0,0.0,0.0,0.0,0.0,0.0,0.0,0.0,0.0,0.0,0.0,0.0,0.0,0.0,0.0,0.0,0.0,0.0,0.0,0.0,1.357,1.3454,0.0,0.0,0.0,0.0,0.0,0.0,0.0,0.0,0.0,1.7162,1.8121,1.9529,2.0137,2.0724,2.3071,2.571,2.806,2.8874,3.0161,3.1596,3.3017,3.3998,3.4404,3.3592,3.1799,2.96,2.7232,2.3966,2.1156,2.0183,1.8932,1.8155,1.8707,1.9575,2.0893,2.297,2.4661,2.6996,3.0683,3.3085,0.0,0.0,0.0,0.0,0.0,0.0,0.0,0.0,0.0,0.0,4.0113,4.0113,4.0113,4.0113,4.0113,4.0113,4.0113,4.0113,4.0113,4.0113,4.0113,4.0113,4.0113,4.0113,4.0113,4.0113,4.0113,0.0,0.0,4.0045,3.9605,3.8971,3.8836,3.798,3.6795,3.6728,3.6231,3.56,0.0,0.0,0.0,0.0,0.0,0.0,1.0911,1.1238,1.1758,1.2609,1.3154,1.3281,1.2779,1.2353,1.1578,1.0116,0.0,0.0,0.0,0.0,0.0,0.0,0.0,0.0,0.0,0.0,1.175,0.0,0.0,0.0,0.0,0.0,0.0,0.0,0.0,0.0,0.0,1.3578,0.0,0.0,0.0,0.0,0.0,0.0,0.0,0.0,0.0,0.0,1.7884,1.8493,1.8966,1.9519,2.0399,2.2462,2.4882,2.6996,2.8705,3.0194,3.1664,3.2949,3.366,3.2916,3.1055,2.8958,2.7097,2.3864,2.0987,2.0183,1.8831,1.8031,1.8775,1.9147,1.9959,2.18,2.2578,2.4086,2.7368,2.977,0.0,0.0,0.0,0.0,0.0,0.0,0.0,0.0,0.0,0.0,4.0113,4.0113,4.0113,4.0113,4.0113,4.0113,4.0113,4.0113,4.0113,4.0113,4.0113,4.0113,4.0113,4.0113,4.0113,4.0113,4.0113,0.0,0.0,4.0113,3.9943,3.9639,3.9174,3.8633,3.8014,3.7134,3.6626,3.6265,0.0,0.0,0.0,0.0,0.0,1.0424,1.1045,1.1341,1.1714,1.2254,1.3106,1.338,1.2763,1.2457,1.1798,1.0527,1.0159,0.0,0.0,0.0,0.0,0.0,0.0,0.0,0.0,0.0,1.2228,1.2448,1.3833,0.0,0.0,0.0,0.0,0.0,0.0,0.0,0.0,0.0,0.0,0.0,0.0,0.0,0.0,0.0,0.0,0.0,0.0,0.0,0.0,0.0,0.0,1.8606,1.8809,1.9993,2.1887,2.4831,2.6979,2.8705,3.0412,3.1799,3.2611,3.2104,3.0296,2.8247,2.6725,2.3511,2.067,2.0116,1.8831,1.8031,1.8775,1.908,1.9655,2.0987,2.1563,2.2883,2.5829,2.8044,0.0,0.0,0.0,0.0,0.0,0.0,0.0,0.0,0.0,0.0,4.0113,4.0113,4.0113,4.0113,4.0113,4.0113,4.0113,4.0113,4.0113,4.0113,4.0113,4.0113,4.0113,4.0113,4.0113,4.0113,4.0113,0.0,0.0,4.0113,4.0113,4.0045,3.9537,3.9174,3.887,3.7845,3.7168,3.6728,0.0,0.0,0.0,0.0,0.0,1.0312,1.0312,1.1008,1.1502,1.1502,1.2191,1.2725,1.2686,1.1918,1.1427,1.1387,1.0531,0.0,0.0,0.0,0.0,0.0,0.0,0.0,0.0,0.0,1.2485,1.3304,1.4095,1.4493,1.4488,0.0,0.0,0.0,0.0,0.0,0.0,0.0,0.0,0.0,0.0,0.0,1.4762,0.0,0.0,0.0,0.0,0.0,0.0,0.0,0.0,0.0,0.0,1.891,1.9532,2.253,2.5,2.7232,2.9499,3.0649,3.1224,3.119,2.9499,2.7418,2.5947,2.2719,2.0002,2.0002,1.8831,1.8031,1.8775,1.9507,2.0251,2.1055,2.2409,2.4425,2.735,2.9108,0.0,0.0,0.0,0.0,0.0,0.0,0.0,0.0,0.0,0.0,4.0113,4.0113,4.0113,4.0113,4.0113,4.0113,4.0113,4.0113,4.0113,4.0113,4.0113,4.0113,4.0113,4.0113,4.0113,0.0,0.0,0.0,0.0,4.0113,4.0113,4.0113,4.0079,3.9639,3.9005,3.8971,3.8048,3.6795,0.0,0.0,0.0,0.0,0.0,0.0,1.0312,1.0507,1.0662,1.0662,1.1384,1.1862,1.1882,1.1575,1.1382,1.1391,1.0562,0.0,0.0,0.0,0.0,0.0,0.0,0.0,0.0,1.1705,1.2774,1.4132,1.494,1.5594,1.6138,1.5507,1.5264,0.0,0.0,0.0,0.0,0.0,0.0,0.0,0.0,1.4021,1.477,0.0,0.0,0.0,0.0,0.0,0.0,0.0,0.0,0.0,0.0,0.0,0.0,2.0027,2.226,2.4695,2.5929,2.7182,2.801,2.7503,2.6454,2.5406,2.4948,2.2313,2.0002,2.0002,1.8831,1.8189,1.9439,1.9439,2.0162,2.2984,2.3424,2.4255,2.6691,0.0,0.0,0.0,0.0,0.0,0.0,0.0,0.0,0.0,0.0,0.0,4.0113,4.0113,4.0113,4.0113,4.0113,4.0113,4.0113,4.0113,4.0113,4.0113,4.0113,4.0113,4.0113,4.0113,4.0113,0.0,0.0,0.0,0.0,4.0113,4.0113,4.0113,4.0113,3.9977,3.9706,3.9174,3.87,3.8227,0.0,0.0,0.0,0.0,0.0,0.0,1.0312,1.0312,1.0312,1.0312,1.0698,1.1149,1.1474,1.1171,1.1053,1.1355,1.0615,0.0,0.0,0.0,0.0,0.0,0.0,0.0,1.1354,1.187,1.3067,1.4934,1.5454,1.6114,1.6908,1.6401,1.6004,1.568,1.5197,0.0,0.0,0.0,0.0,0.0,1.3528,1.3771,1.4022,0.0,0.0,0.0,0.0,0.0,0.0,0.0,0.0,0.0,0.0,0.0,0.0,0.0,2.023,2.2057,2.3661,2.4948,2.5828,2.5642,2.4831,2.4,2.3729,2.1549,1.9575,1.9575,1.8628,1.8256,1.9731,1.9608,2.0264,2.3207,2.3526,2.4154,2.6387,0.0,0.0,0.0,0.0,0.0,0.0,0.0,0.0,0.0,0.0,0.0,4.0113,4.0113,4.0113,4.0113,4.0113,4.0113,4.0113,4.0113,4.0113,4.0113,4.0113,4.0113,4.0113,4.0113,4.0113,0.0,0.0,0.0,0.0,4.0113,4.0113,4.0113,4.0113,4.0113,4.0045,3.9605,3.9242,3.8937,0.0,0.0,0.0,0.0,0.0,0.0,0.0,1.0312,1.0312,1.0312,1.0232,1.0492,1.1319,1.0673,1.0481,1.1239,1.0577,0.0,0.0,0.0,0.0,0.0,0.0,0.0,1.2177,1.2214,1.338,1.579,1.5827,1.6298,1.7165,1.7165,1.6695,1.5864,1.5827,1.5301,0.0,0.0,0.0,0.0,1.3415,1.3297,0.0,0.0,0.0,0.0,0.0,0.0,0.0,0.0,0.0,0.0,0.0,0.0,0.0,0.0,0.0,0.0,0.0,2.3628,2.4338,2.4966,2.412,2.297,2.2279,2.0467,0.0,1.891,1.8369,1.8324,1.9811,2.0082,2.061,2.2279,2.3139,2.4391,2.6623,2.9025,0.0,0.0,0.0,0.0,0.0,0.0,0.0,0.0,0.0,0.0,4.0113,4.0113,4.0113,4.0113,4.0113,4.0113,4.0113,4.0113,4.0113,4.0113,4.0113,4.0113,4.0113,4.0113,4.0113,0.0,0.0,0.0,0.0,4.0113,4.0113,4.0113,4.0113,4.0113,4.0113,4.0113,3.9673,3.9073,0.0,0.0,0.0,0.0,0.0,0.0,0.0,0.0,0.0,0.0,1.0232,1.0298,1.0469,1.0326,1.0249,0.0,0.0,0.0,0.0,0.0,0.0,0.0,0.0,0.0,1.2177,1.2214,1.3634,1.6615,1.7245,1.8273,1.9659,1.9659,1.8896,1.7509,1.6878,1.5744,0.0,0.0,0.0,0.0,1.3842,1.375,0.0,0.0,0.0,0.0,1.4301,1.5088,0.0,0.0,0.0,0.0,0.0,0.0,0.0,0.0,1.8065,1.8335,1.9621,0.0,2.0961,2.0568,2.0636,2.0758,0.0,1.9688,1.891,1.891,1.8741,1.9113,2.0649,2.0919,2.1786,2.4391,2.5439,2.6725,2.8991,0.0,0.0,0.0,0.0,0.0,0.0,0.0,0.0,0.0,0.0,4.0113,4.0113,4.0113,4.0113,4.0113,4.0113,4.0113,4.0113,4.0113,4.0113,4.0113,4.0113,4.0113,4.0113,4.0113,4.0113,0.0,0.0,0.0,4.0113,4.0113,4.0113,4.0113,4.0113,4.0113,4.0113,4.0113,4.0011,3.9842,0.0,0.0,0.0,0.0,0.0,0.0,0.0,0.0,0.0,0.0,1.0232,1.0182,1.0198,1.021,1.0172,0.0,0.0,0.0,0.0,0.0,0.0,0.0,0.0,1.0706,1.2211,1.2244,1.3753,1.6908,1.7348,1.8566,2.0503,2.0107,1.9308,1.8016,1.6475,1.5207,0.0,0.0,0.0,1.3531,1.3888,0.0,0.0,0.0,0.0,0.0,1.3871,1.4682,0.0,1.6045,1.6915,1.7783,0.0,0.0,0.0,0.0,1.7783,1.7884,1.8302,1.9452,2.0534,2.0467,2.05,2.0636,2.0995,1.9959,1.9012,1.9338,1.9406,1.9756,2.0987,2.1495,2.2429,2.4729,2.5981,2.7977,0.0,0.0,0.0,0.0,0.0,0.0,0.0,0.0,0.0,0.0,0.0,4.0113,4.0113,4.0113,4.0113,4.0113,4.0113,4.0113,4.0113,4.0113,4.0113,4.0113,4.0113,4.0113,4.0113,4.0113,4.0113,0.0,0.0,0.0,4.0113,4.0113,4.0113,4.0113,4.0113,4.0113,4.0113,4.0113,4.0113,4.0113,0.0,0.0,0.0,0.0,0.0,0.0,0.0,0.0,0.0,0.0,0.0,0.0,0.0,0.0,0.0,0.0,0.0,0.0,0.0,0.0,0.0,0.0,1.0308,1.0994,1.2433,1.2474,1.3928,1.6908,1.7165,1.8375,2.0503,2.0189,1.9426,1.817,1.5741,1.4532,1.4264,1.4435,1.3926,1.3039,1.3867,0.0,0.0,0.0,0.0,0.0,0.0,0.0,0.0,1.5561,1.6509,1.7648,1.7749,0.0,0.0,0.0,0.0,0.0,1.8087,1.9722,2.1427,2.1718,2.1481,2.1326,2.184,2.0467,1.9249,1.9866,2.0103,2.0454,2.136,2.2124,2.3173,2.4745,2.6522,0.0,0.0,0.0,0.0,0.0,0.0,0.0,0.0,0.0,0.0,0.0,0.0,4.0113,4.0113,4.0113,4.0113,4.0113,4.0113,4.0113,4.0113,4.0113,4.0113,4.0113,4.0113,4.0113,4.0113,4.0113,4.0113,4.0113,0.0,0.0,4.0113,4.0113,4.0113,4.0113,4.0113,4.0113,4.0113,4.0113,4.0113,4.0113,0.0,0.0,0.0,0.0,0.0,0.0,0.0,0.0,0.0,0.0,0.0,0.0,0.0,0.0,0.0,0.0,0.0,0.0,0.0,0.0,0.0,1.1156,1.1194,1.1869,1.3267,1.3372,1.4539,1.6908,1.828,1.9455,2.0539,2.2538,2.1886,1.9022,1.6598,1.5111,1.4458,1.4482,1.4391,1.4222,1.4221,0.0,0.0,0.0,0.0,0.0,0.0,0.0,0.0,1.5392,1.618,1.6993,1.7591,0.0,0.0,0.0,0.0,0.0,1.9326,2.0859,2.1718,1.9891,2.031,2.1055,2.0487,2.0069,1.9866,1.9968,2.0534,2.1427,2.2815,2.3661,2.4831,0.0,0.0,0.0,0.0,0.0,0.0,0.0,0.0,0.0,0.0,0.0,0.0,0.0,0.0,0.0,4.0113,4.0113,4.0113,4.0113,4.0113,4.0113,4.0113,4.0113,4.0113,4.0113,4.0113,4.0113,4.0113,4.0113,4.0113,4.0113,0.0,4.0113,4.0113,4.0113,4.0113,4.0113,4.0113,4.0113,4.0113,4.0113,4.0113,4.0113,0.0,0.0,0.0,0.0,0.0,0.0,0.0,0.0,0.0,0.0,0.0,0.0,0.0,0.0,0.0,0.0,0.0,0.0,0.0,0.0,1.0694,1.2045,1.2449,1.3146,1.4189,1.4649,1.5988,1.8207,1.9381,2.0584,2.1868,2.2089,2.0694,1.7942,1.6371,1.5233,1.4493,1.4493,1.4447,1.432,0.0,0.0,0.0,0.0,0.0,0.0,0.0,0.0,0.0,0.0,1.5764,1.6766,1.7094,0.0,0.0,0.0,0.0,0.0,1.8628,2.023,2.1448,2.0412,2.1563,2.3086,2.3511,2.3004,2.253,2.2955,2.3342,2.3782,2.4458,0.0,2.73,0.0,0.0,0.0,0.0,0.0,0.0,0.0,0.0,0.0,0.0,0.0,0.0,0.0,0.0,0.0,4.0113,4.0113,4.0113,4.0113,4.0113,4.0113,4.0113,4.0113,4.0113,4.0113,4.0113,4.0113,4.0113,4.0113,4.0113,4.0113,0.0,4.0113,4.0113,4.0113,4.0113,4.0113,4.0113,4.0113,4.0113,4.0113,4.0113,4.0113,0.0,0.0,0.0,0.0,0.0,0.0,0.0,0.0,0.0,0.0,0.0,0.0,0.0,0.0,0.0,0.0,0.0,0.0,0.0,1.0308,1.107,1.2595,1.3564,1.457,1.563,1.6233,1.7554,1.9565,2.0409,2.1575,2.2969,2.1098,1.9117,1.7128,1.6151,1.5233,1.4493,1.4493,1.4423,1.427,0.0,0.0,0.0,0.0,0.0,0.0,0.0,0.0,0.0,0.0,0.0,0.0,0.0,0.0,0.0,1.7783,1.7783,1.7884,1.8222,1.9722,2.1292,2.163,2.2984,2.4677,2.6319,2.5692,2.5083,2.6184,2.6387,2.6387,2.6387,2.774,0.0,0.0,0.0,0.0,0.0,0.0,0.0,0.0,0.0,0.0,0.0,0.0,0.0,0.0,0.0,0.0,4.0113,4.0113,4.0113,4.0113,4.0113,4.0113,4.0113,4.0113,4.0113,4.0113,4.0113,4.0113,4.0113,4.0113,4.0113,4.0113,4.0113,4.0113,4.0113,4.0113,4.0113,4.0113,4.0113,4.0113,4.0113,4.0113,4.0113,4.0113,0.0,0.0,0.0,0.0,0.0,0.0,0.0,0.0,0.0,0.0,0.0,0.0,0.0,0.0,0.0,0.0,0.0,0.0,0.0,1.0848,1.1662,1.2497,1.4181,1.6063,1.8179,1.818,1.8885,2.0401,2.129,2.2134,2.2933,2.0519,1.8904,1.7942,1.6371,1.5233,1.4493,1.4493,1.4488,1.4476,1.4476,0.0,0.0,0.0,0.0,0.0,0.0,0.0,0.0,0.0,0.0,0.0,0.0,0.0,1.7783,1.7783,1.7783,1.8087,1.9461,2.05,2.1529,2.2917,2.3342,2.4052,2.6218,2.6082,2.615,2.8299,2.8773,2.8773,2.8773,3.0533,0.0,0.0,0.0,0.0,0.0,0.0,0.0,0.0,0.0,0.0,0.0,0.0,0.0,0.0,0.0,0.0,4.0113,4.0113,4.0113,4.0113,4.0113,4.0113,4.0113,4.0113,4.0113,4.0113,4.0113,4.0113,4.0113,4.0113,4.0113,4.0113,4.0113,4.0113,4.0113,4.0113,4.0113,4.0113,4.0113,4.0113,4.0113,4.0113,4.0113,4.0113,0.0,0.0,0.0,0.0,0.0,0.0,0.0,0.0,0.0,0.0,0.0,0.0,0.0,0.0,0.0,0.0,0.0,0.0,1.0113,1.0423,1.141,1.3297,1.3956,1.5615,1.8439,1.9457,2.0704,2.2242,2.2461,2.2464,2.2208,2.0739,1.9337,1.8052,1.7472,1.6732,1.5955,1.5447,1.5233,1.5178,1.4425,1.4098,0.0,0.0,0.0,0.0,0.0,0.0,0.0,0.0,1.4826,1.5697,1.6272,1.7039,1.7783,1.7783,1.7783,1.7918,1.8493,2.0217,2.2023,2.2598,2.4086,2.5913,2.7723,2.8619,2.96,3.136,3.1732,3.1732,3.1732,0.0,0.0,0.0,0.0,0.0,0.0,0.0,0.0,0.0,0.0,0.0,0.0,0.0,0.0,0.0,0.0,0.0,0.0,4.0113,4.0113,4.0113,4.0113,4.0113,4.0113,4.0113,4.0113,4.0113,4.0113,4.0113,4.0113,4.0113,4.0113,4.0113,4.0113,4.0113,4.0113,4.0113,4.0113,4.0113,4.0113,4.0113,4.0113,4.0113,4.0113,4.0113,0.0,0.0,0.0,0.0,0.0,0.0,0.0,0.0,0.0,0.0,0.0,0.0,0.0,0.0,0.0,0.0,0.0,0.0,1.0113,1.0346,1.1373,1.3382,1.3885,1.5397,1.8073,1.9713,2.1174,2.2415,2.2286,2.1942,2.1363,2.0254,1.93,1.8463,1.7942,1.7575,1.7202,1.6151,1.5857,1.5985,1.4918,1.4527,0.0,0.0,0.0,0.0,0.0,0.0,0.0,0.0,1.458,1.5629,1.5876,1.6813,1.7783,1.7783,1.7952,1.8166,1.8166,2.0027,2.2057,2.253,2.4695,2.7283,2.9517,3.0818,3.2104,3.4066,3.4269,3.4235,3.4742,0.0,0.0,0.0,0.0,0.0,0.0,0.0,0.0,0.0,0.0,0.0,0.0,0.0,0.0,0.0,0.0,0.0,0.0,4.0113,4.0113,4.0113,4.0113,4.0113,4.0113,4.0113,4.0113,4.0113,4.0113,4.0113,4.0113,4.0113,4.0113,4.0113,4.0113,4.0113,4.0113,4.0113,4.0113,4.0113,4.0113,4.0113,4.0113,4.0113,4.0113,4.0113,0.0,0.0,0.0,0.0,0.0,0.0,0.0,0.0,1.0185,1.0194,1.0149,0.0,0.0,0.0,0.0,0.0,0.0,0.0,1.0113,1.0925,1.1736,1.2484,1.4104,1.5715,1.7345,1.8802,1.9863,2.0503,2.0503,2.0511,2.0429,1.886,1.8537,1.9242,1.7649,1.7385,1.8023,1.6408,1.6181,1.6835,1.6041,1.5585,1.5381,0.0,0.0,0.0,0.0,0.0,0.0,0.0,1.4977,1.5731,1.6462,1.7185,1.7783,1.7783,1.8335,1.891,1.891,2.0039,2.1597,2.3038,2.5101,2.7723,3.1481,3.2341,3.3165,3.622,3.6197,3.6107,3.7618,3.6648,0.0,0.0,0.0,0.0,0.0,0.0,0.0,0.0,0.0,0.0,0.0,0.0,0.0,0.0,0.0,0.0,0.0,4.0113,4.0113,4.0113,4.0113,4.0113,4.0113,4.0113,4.0113,4.0113,4.0113,4.0113,4.0113,4.0113,4.0113,4.0113,4.0113,4.0113,4.0113,4.0113,4.0113,4.0113,4.0113,4.0113,4.0113,4.0113,4.0113,4.0113,0.0,0.0,0.0,0.0,0.0,0.0,0.0,0.0,1.0191,1.0147,1.0125,0.0,0.0,0.0,0.0,0.0,0.0,0.0,1.0113,1.0346,1.1079,1.2446,1.2982,1.3944,1.5488,1.6397,1.8043,2.0503,2.0503,2.0217,1.9638,1.9168,1.9058,1.9315,1.9373,1.9263,1.8875,1.7839,1.7546,1.7679,1.6718,1.6255,1.6088,0.0,0.0,0.0,0.0,0.0,0.0,0.0,0.0,0.0,1.5697,1.6779,1.7783,1.7783,1.8696,1.9575,1.9046,2.1156,2.3763,2.4695,2.7435,3.0548,3.322,3.4269,3.5329,3.7821,3.8159,3.799,3.7922,3.755,0.0,0.0,0.0,0.0,0.0,0.0,0.0,0.0,0.0,0.0,0.0,0.0,0.0,0.0,0.0,0.0,0.0,4.0113,4.0113,4.0113,4.0113,4.0113,4.0113,4.0113,4.0113,4.0113,4.0113,4.0113,4.0113,4.0113,4.0113,4.0113,4.0113,4.0113,4.0113,4.0113,4.0113,4.0113,4.0113,4.0113,4.0113,4.0113,4.0113,4.0113,0.0,0.0,0.0,0.0,0.0,0.0,0.0,0.0,1.0175,1.0121,1.0113,1.0113,0.0,0.0,0.0,1.0113,1.0113,0.0,1.0113,1.0351,1.1116,1.2446,1.2748,1.3567,1.5045,1.6128,1.7289,1.8603,1.8889,1.9006,1.8831,1.9168,1.9646,2.0307,2.0813,2.0556,1.9711,1.8904,1.839,1.8045,1.7432,1.7155,1.7037,0.0,0.0,0.0,0.0,0.0,0.0,0.0,0.0,0.0,1.546,1.6407,1.7422,1.7715,1.8819,2.0103,2.0568,2.2544,2.4948,2.6894,2.9533,3.2462,3.5554,3.6637,3.7415,3.9073,3.9174,3.8937,3.8802,3.8531,0.0,0.0,0.0,0.0,0.0,0.0,0.0,0.0,0.0,0.0,0.0,0.0,0.0,0.0,0.0,0.0,0.0,4.0113,4.0113,4.0113,4.0113,4.0113,4.0113,4.0113,4.0113,4.0113,4.0113,4.0113,4.0113,4.0113,4.0113,4.0113,4.0113,4.0113,4.0113,4.0113,4.0113,4.0113,4.0113,4.0113,4.0113,4.0113,4.0113,4.0113,0.0,0.0,1.0273,1.0228,0.0,0.0,0.0,1.0187,1.017,1.0121,1.0113,1.0113,0.0,0.0,0.0,1.0113,1.0113,1.0113,1.0113,1.0798,1.1585,1.243,1.3208,1.4299,1.579,1.7179,1.7215,1.5821,1.6622,1.7348,1.8016,1.8941,2.0233,2.1702,2.1776,2.129,2.0327,1.9528,1.872,1.8016,1.8052,1.8045,1.7863,1.6943,0.0,0.0,0.0,0.0,0.0,0.0,0.0,0.0,1.5673,1.6214,1.6925,1.7591,1.8899,2.0589,2.2733,2.4,2.5591,2.9296,3.1529,3.3918,3.8058,3.9039,3.9276,3.9977,0.0,3.9309,3.9977,0.0,0.0,0.0,0.0,0.0,0.0,0.0,0.0,0.0,0.0,0.0,0.0,0.0,0.0,0.0,0.0,0.0,0.0,4.0113,4.0113,4.0113,4.0113,4.0113,4.0113,4.0113,4.0113,4.0113,4.0113,4.0113,4.0113,4.0113,4.0113,4.0113,4.0113,4.0113,4.0113,4.0113,4.0113,4.0113,4.0113,4.0113,4.0113,4.0113,4.0113,4.0113,0.0,0.0,1.0229,1.0188,0.0,0.0,1.0194,1.0161,1.0129,1.0115,1.0113,1.0113,1.0113,1.0113,0.0,1.0113,1.0113,1.0113,1.0113,1.0798,1.1554,1.2324,1.4166,1.5662,1.6615,1.6371,1.6371,1.6652,1.7465,1.7612,1.7202,1.9263,2.0437,2.0804,2.1482,2.0968,1.9499,1.8684,1.7906,1.7202,1.7832,1.7585,1.684,1.6659,1.5864,0.0,0.0,0.0,0.0,0.0,0.0,0.0,1.6353,1.6959,1.758,1.7749,1.9283,2.119,2.226,2.4323,2.7013,3.0176,3.3863,3.711,3.8633,3.9469,3.991,4.0079,3.9977,3.991,0.0,0.0,0.0,0.0,0.0,0.0,0.0,0.0,0.0,0.0,0.0,0.0,0.0,0.0,0.0,0.0,0.0,0.0,4.0113,4.0113,4.0113,4.0113,4.0113,4.0113,4.0113,4.0113,4.0113,0.0,4.0113,4.0113,4.0113,4.0113,4.0113,4.0113,4.0113,4.0113,4.0113,4.0113,4.0113,4.0113,4.0113,4.0113,4.0113,4.0113,4.0113,4.0113,0.0,0.0,0.0,0.0,0.0,0.0,0.0,0.0,1.0113,1.0113,1.0113,1.0113,1.0113,1.0113,0.0,0.0,1.0113,1.0103,1.004,1.1088,1.2211,1.33,1.4851,1.571,1.5735,1.571,1.5894,1.6328,1.7135,1.7722,1.8089,1.974,2.0951,2.1722,2.2171,2.1216,1.9279,1.8831,1.7979,1.6982,1.7796,1.7768,1.7227,1.6885,1.6066,1.5061,1.4774,0.0,0.0,0.0,0.0,0.0,0.0,0.0,1.6881,1.758,1.8877,2.0581,2.2767,2.5,2.769,3.1765,3.5351,3.8091,3.8836,3.9571,4.0113,4.0113,4.0113,0.0,0.0,0.0,0.0,0.0,0.0,0.0,0.0,0.0,0.0,0.0,0.0,0.0,0.0,0.0,0.0,0.0,0.0,4.0113,4.0113,4.0113,4.0113,4.0113,4.0113,4.0113,4.0113,4.0113,4.0113,4.0113,4.0113,4.0113,4.0113,4.0113,4.0113,4.0113,4.0113,4.0113,4.0113,4.0113,4.0113,4.0113,4.0113,4.0113,4.0113,4.0113,4.0113,4.0113,0.0,0.0,0.0,0.0,0.0,0.0,0.0,0.0,0.0,1.0113,1.0113,1.0113,1.0113,1.0113,1.0113,0.0,0.0,0.0,1.0013,1.1452,1.3015,1.4652,1.5343,1.5454,1.4934,1.5417,1.5827,1.6114,1.6658,1.7942,1.994,2.0482,2.1538,2.3006,2.2859,2.1584,1.9499,1.9051,1.806,1.6762,1.7429,1.7612,1.7429,1.6872,1.6082,1.5148,1.4655,1.5058,1.5845,1.6124,0.0,0.0,0.0,0.0,1.6115,1.7328,1.8167,1.9452,2.2815,2.5372,2.8299,3.3254,3.6028,3.7787,3.8768,3.9445,3.9943,4.0079,4.0113,0.0,0.0,0.0,0.0,0.0,0.0,0.0,0.0,0.0,0.0,0.0,0.0,0.0,0.0,0.0,0.0,0.0,0.0,4.0113,4.0113,4.0113,4.0113,4.0113,4.0113,4.0113,4.0113,4.0113,4.0113,4.0113,4.0113,4.0113,4.0113,4.0113,4.0113,4.0113,4.0113,4.0113,4.0113,4.0113,4.0113,4.0113,4.0113,4.0154,4.0254,4.0254,4.0254,4.0254,0.0,0.0,0.0,0.0,0.0,0.0,0.0,0.0,0.0,0.0,1.0113,1.0113,1.0113,1.0113,1.0113,1.0113,1.0036,1.0024,1.0063,0.0,0.0,1.5429,1.5643,1.5967,1.6578,1.6004,1.6371,1.7766,1.7202,1.8816,2.2492,2.1914,2.2134,2.2969,2.2281,2.1363,2.0217,1.8119,1.6695,1.5857,1.5974,1.56,1.5044,1.5637,1.5244,1.4455,1.5226,1.5483,1.567,1.7012,1.7517,0.0,0.0,0.0,1.6934,1.7132,1.7558,1.8324,2.0116,2.456,2.9619,3.3546,3.5216,3.6445,3.8531,0.0,3.9309,0.0,0.0,0.0,0.0,0.0,0.0,0.0,0.0,0.0,0.0,0.0,0.0,0.0,0.0,0.0,0.0,0.0,0.0,0.0,4.0113,4.0113,4.0113,4.0113,4.0113,4.0113,4.0113,4.0113,4.0113,4.0113,4.0113,4.0113,4.0113,4.0113,4.0113,4.0113,4.0113,4.0113,4.0113,4.0113,4.0113,4.0113,4.0113,4.0113,4.0113,4.0392,4.0803,4.0803,4.0803,4.0803,0.0,0.0,0.0,0.0,0.0,0.0,0.0,0.0,0.0,0.0,0.0,1.0113,1.0113,1.0113,1.0113,1.0113,1.0029,1.0342,1.1209,1.1838,1.3052,1.494,1.505,1.5191,1.5551,1.5191,1.56,1.6775,1.6408,1.8317,2.2318,2.2428,2.3382,2.4951,2.3712,2.2428,2.107,1.8603,1.7099,1.6328,1.5894,1.6304,1.7069,1.6084,1.6002,1.6271,1.5356,1.5436,1.611,1.6815,1.7561,1.8244,1.8534,0.0,0.0,0.0,1.7154,1.7963,2.1549,2.5083,2.8502,3.1799,3.3829,3.5351,3.6772,3.8091,3.9073,0.0,0.0,0.0,0.0,0.0,0.0,0.0,0.0,0.0,0.0,0.0,0.0,0.0,0.0,0.0,0.0,0.0,0.0,0.0,4.0113,4.0113,4.0113,4.0113,4.0113,4.0113,4.0113,4.0113,4.0113,4.0113,4.0113,4.0113,4.0113,4.0113,4.0113,4.0113,4.0113,4.0113,4.0113,4.0113,4.0113,4.0113,4.0113,4.0113,4.0113,4.0441,4.092,4.092,4.1093,4.1385,0.0,0.0,0.0,0.0,0.0,0.0,0.0,0.0,0.0,0.0,0.0,1.0113,1.0113,0.0,0.0,0.0,1.0013,1.0606,1.2081,1.2138,1.2836,1.442,1.4493,1.4493,1.4493,1.4493,1.4897,1.5717,1.5894,1.8096,2.2106,2.2942,2.4694,2.7152,2.5548,2.3786,2.1959,1.9675,1.8346,1.7752,1.6922,1.77,1.9168,1.7986,1.8317,1.9043,1.6805,1.6666,1.7442,1.7036,1.7583,1.8467,1.8467,1.7418,0.0,0.0,0.0,1.7486,2.1949,2.4335,2.6285,2.9296,3.1732,3.3728,0.0,0.0,0.0,0.0,0.0,0.0,0.0,0.0,0.0,0.0,0.0,0.0,0.0,0.0,0.0,0.0,0.0,0.0,0.0,0.0,0.0,0.0,4.0113,4.0113,4.0113,4.0113,4.0113,4.0113,4.0113,4.0113,4.0113,4.0254,4.0328,4.0294,4.0294,4.0294,4.0294,4.0154,4.0113,4.0113,4.0254,4.0294,4.0328,4.0466,4.0538,4.0538,4.0538,4.0885,4.134,4.134,4.166,4.2021,0.0,0.0,0.0,0.0,0.0,0.0,0.0,0.0,0.0,0.0,0.0,1.0113,1.0113,1.0113,1.0113,1.0113,0.9964,1.0514,1.2027,1.216,1.2863,1.442,1.4493,0.0,1.4493,1.4493,1.4897,1.5717,1.6475,1.8926,2.2969,2.3749,2.5841,2.8803,2.7189,2.5171,2.2822,2.1098,2.0356,2.0254,1.9455,1.9205,1.9536,2.1758,2.2676,2.2529,2.0804,0.0,0.0,0.0,0.0,0.0,0.0,1.7395,1.642,0.0,0.0,0.0,1.8822,2.096,2.3241,2.6184,2.8653,3.1089,0.0,0.0,0.0,0.0,0.0,0.0,0.0,0.0,0.0,0.0,0.0,0.0,0.0,0.0,0.0,0.0,0.0,0.0,0.0,0.0,0.0,0.0,4.0113,4.0113,4.0113,4.0113,4.0113,4.0113,4.0113,4.0113,4.0113,4.0659,4.0908,4.0874,4.0874,4.0874,4.085,4.0319,4.0113,4.0138,4.0648,4.0874,4.092,4.1486,4.1725,4.1725,4.1725,4.2062,4.2616,4.2616,4.2616,4.2655,0.0,0.0,0.0,0.0,0.0,0.0,0.0,0.0,0.0,0.0,0.0,0.0,0.0,1.1685,1.1672,1.1769,1.1609,1.1906,1.2799,1.2888,1.3361,1.4457,1.4493,1.4493,1.4493,1.4493,1.464,1.494,1.5227,1.7172,2.0666,2.2033,2.3566,2.5207,2.6161,2.5841,2.442,2.2244,2.0996,2.0466,2.0181,2.1327,2.3208,2.3052,2.429,2.5805,0.0,0.0,0.0,0.0,0.0,0.0,0.0,1.784,1.642,1.5438,1.601,1.7255,1.8795,2.0496,2.2411,2.4705,2.6962,2.9142,3.1224,0.0,0.0,0.0,0.0,0.0,0.0,0.0,0.0,0.0,0.0,0.0,0.0,0.0,0.0,0.0,0.0,0.0,0.0,0.0,0.0,0.0,0.0,4.0113,4.0113,4.0113,4.0113,4.0113,4.0113,4.0113,4.0113,4.0648,4.092,4.0886,4.1273,4.1473,4.1451,4.1286,4.1173,4.1218,4.181,4.1639,4.0967,4.1538,4.181,4.181,4.181,4.218,4.2693,4.2693,4.2939,4.3214,0.0,0.0,0.0,1.1056,0.0,1.0964,1.0964,1.0964,1.1194,1.1774,0.0,0.0,0.0,0.0,1.2576,1.2591,1.2456,1.2613,1.3277,1.3298,1.366,1.4457,1.4493,1.4493,1.4493,1.4493,1.4493,1.4493,1.4787,1.6261,1.8941,2.0592,2.1951,2.3043,2.441,2.4997,2.4897,2.3281,2.2281,2.1795,2.2345,2.3859,2.5852,2.6429,2.7787,2.9182,0.0,0.0,0.0,0.0,0.0,0.0,0.0,1.8133,1.6145,1.5447,1.634,1.7719,1.8493,1.9954,2.171,2.3764,2.5409,2.7131,2.9551,0.0,0.0,0.0,0.0,0.0,0.0,0.0,0.0,0.0,0.0,0.0,0.0,0.0,0.0,0.0,0.0,0.0,0.0,0.0,0.0,0.0,0.0,0.0,4.0113,4.0113,4.0113,4.0113,4.0113,4.0179,4.0368,4.092,4.1296,4.1495,4.1916,4.2083,4.2083,4.1895,4.181,4.1832,4.2422,4.2262,4.1538,4.2144,4.2366,4.2366,4.2366,4.2619,4.2995,4.2995,4.3196,4.3515,1.2517,1.2702,1.2702,1.2702,1.2702,1.2741,1.2741,1.2741,1.2741,1.2817,0.0,0.0,0.0,0.0,0.0,1.2538,1.2406,1.2618,1.3304,1.3335,1.3697,1.4457,1.4493,1.4493,1.453,1.4493,1.4493,1.453,1.5307,1.6481,1.8052,1.9667,2.1281,2.2822,2.2106,2.262,2.408,2.408,2.4153,2.441,2.5915,2.6638,2.731,3.1935,0.0,0.0,3.1825,3.1017,0.0,2.6696,0.0,0.0,0.0,1.8346,1.579,1.579,1.674,1.7812,0.0,0.0,0.0,0.0,0.0,0.0,0.0,0.0,0.0,0.0,0.0,0.0,0.0,0.0,0.0,0.0,0.0,0.0,0.0,0.0,0.0,0.0,0.0,0.0,0.0,0.0,0.0,0.0,4.0113,4.0113,4.0138,4.0113,4.0113,4.0138,4.0138,4.0368,4.0909,4.1552,4.2103,4.2693,4.2713,4.2713,4.2693,4.2103,4.1853,4.1895,4.2462,4.2713,4.2751,4.3286,4.3515,4.3515,4.3515,4.3515,4.3515,4.3515,4.3515,4.3515,1.2666,1.2702,1.2702,1.2702,1.3195,1.3574,1.3574,1.3574,1.4038,0.0,0.0,0.0,1.6033,1.6096,1.5941,1.5683,1.5167,1.4934,1.5031,1.4499,1.4273,1.4493,1.4493,1.4787,1.5343,1.4787,1.4787,1.538,1.5013,1.5343,1.6371,1.7429,1.8449,1.9483,2.0437,2.1098,2.1538,2.1538,2.3226,2.5878,2.5144,2.731,0.0,0.0,0.0,0.0,0.0,3.4027,3.2669,0.0,2.9402,2.6182,0.0,0.0,1.8177,1.7619,1.8976,2.0366,1.9025,0.0,0.0,0.0,0.0,0.0,0.0,0.0,0.0,0.0,0.0,0.0,0.0,0.0,0.0,0.0,0.0,0.0,0.0,0.0,0.0,0.0,0.0,0.0,0.0,0.0,0.0,0.0,4.0294,4.0279,4.0672,4.0294,4.0303,4.0672,4.0696,4.0967,4.1573,4.216,4.2537,4.2693,4.3105,4.3268,4.3268,4.3105,4.3032,4.3051,4.3214,4.3268,4.3286,4.3445,4.3515,4.3515,4.3515,4.3515,4.3515,4.3515,4.3515,4.3515,1.42,1.4547,1.4778,1.4778,1.5467,1.6042,1.6042,1.6042,1.6503,0.0,0.0,0.0,1.8287,1.8298,1.8031,1.7544,1.707,1.6497,1.576,1.527,1.486,1.453,1.4824,1.5233,1.568,1.5557,1.5557,1.5717,1.5233,1.5086,1.5233,1.6034,1.6658,1.7142,1.8089,1.9043,1.9968,1.93,2.1355,2.5171,2.6282,0.0,0.0,3.333,3.4922,0.0,0.0,0.0,3.4835,3.4835,3.1935,0.0,0.0,2.218,2.0592,1.9447,2.0629,0.0,2.0551,2.1361,0.0,0.0,0.0,0.0,0.0,2.6082,0.0,0.0,0.0,0.0,0.0,0.0,0.0,0.0,0.0,0.0,0.0,0.0,0.0,0.0,0.0,0.0,0.0,3.946,3.9857,4.0695,4.0493,4.0585,4.1251,4.0967,4.0943,4.1251,4.1273,4.1573,4.218,4.2537,4.2808,4.305,4.3339,4.3515,4.3515,4.3515,4.3515,4.3515,4.3515,4.3515,4.3515,4.3515,4.3515,4.3515,4.3515,4.3515,4.3515,4.3515,4.3515,4.3515,0.0,1.7199,1.7738,1.7815,1.8588,1.9165,1.9242,1.928,1.9581,0.0,1.9764,1.9465,2.0119,2.0022,1.961,1.8889,1.8469,1.7619,1.6194,1.5864,1.5417,1.4787,1.538,1.579,1.5974,1.6585,1.6585,1.5974,1.579,1.538,1.4787,1.5417,1.5717,1.5717,1.59,1.7112,1.8985,1.7979,1.9777,2.363,2.7934,3.0136,0.0,0.0,3.7162,3.7,3.8469,3.8065,3.678,3.6523,3.3476,0.0,0.0,2.4961,2.3446,2.1575,2.2235,0.0,2.2547,2.2738,0.0,0.0,0.0,0.0,2.5754,2.6086,0.0,0.0,0.0,0.0,0.0,0.0,0.0,0.0,0.0,0.0,0.0,0.0,0.0,0.0,0.0,0.0,3.858,3.8589,3.9108,4.0362,4.0536,4.0875,4.1633,4.1648,4.1725,4.1895,4.1895,4.22,4.277,4.277,4.305,4.3515,4.3515,4.3515,4.3515,4.3515,4.3515,4.3515,4.3515,4.3515,4.3515,4.3515,4.3515,4.3515,4.3515,4.3515,4.3515,4.3515,4.3515,4.3515,1.743,1.7584,1.793,1.8626,1.9469,2.0273,2.0927,2.1004,2.1274,2.196,2.2204,2.2582,2.3242,2.271,2.2243,2.2104,2.0241,1.8948,1.8618,1.6782,1.5931,1.6395,1.5967,1.6298,1.7619,1.7165,1.7128,1.7619,1.6334,1.5967,1.6431,1.5931,1.5717,1.5753,1.7069,1.7539,1.7568,2.0548,2.3015,2.5007,2.5962,0.0,3.5202,3.6156,3.8028,4.0178,4.0508,4.0435,3.9863,0.0,3.6207,3.4211,0.0,0.0,0.0,2.5301,0.0,2.6686,2.5878,2.6214,2.6548,2.5528,0.0,0.0,0.0,2.5137,0.0,0.0,0.0,0.0,0.0,0.0,0.0,0.0,0.0,0.0,0.0,0.0,0.0,0.0,0.0,0.0,3.8589,3.8589,3.892,3.9681,4.0078,4.0438,4.0834,4.0827,4.1339,4.2482,4.2537,4.2789,4.3321,4.3339,4.341,4.3515,4.3515,4.3515,4.3515,4.3515,4.3515,4.3515,4.3515,4.3515,4.3515,4.3515,4.3515,4.3515,4.3515,4.3515,4.3515,4.3515,4.3515,4.3515,1.8357,1.9007,1.9735,2.0162,2.1316,2.229,2.2609,2.2733,2.3309,2.465,2.5298,2.5579,2.5421,2.4667,2.4043,2.3639,2.2097,2.0629,1.9389,1.8177,1.7326,1.6908,1.6915,1.7289,1.8089,1.8096,1.8096,1.8089,1.7289,1.6915,1.6908,1.6475,1.6738,1.7516,1.7913,1.8566,1.9455,2.1061,2.3162,2.5631,2.8459,0.0,3.6486,3.8065,3.9717,4.1132,4.1535,4.1699,4.1258,3.8447,3.6978,0.0,0.0,3.1408,3.0834,0.0,2.8044,2.8741,0.0,0.0,2.7798,2.7787,0.0,0.0,0.0,0.0,2.5621,0.0,0.0,0.0,0.0,0.0,0.0,0.0,0.0,0.0,0.0,0.0,0.0,0.0,0.0,0.0,3.7607,3.7662,3.823,3.959,4.0291,4.0708,4.0852,4.0833,4.136,4.2468,4.2523,4.2813,4.3515,4.3515,4.3515,4.3515,4.3515,4.3515,4.3515,4.3515,4.3515,4.3515,4.3515,4.3515,4.3515,4.3515,4.3515,4.3515,4.3515,4.3515,4.3515,4.3515,4.3515,4.3515,1.9242,2.0465,2.1543,2.1735,2.3047,2.4082,2.4049,2.417,2.5,2.711,2.8007,2.8307,2.7809,2.7027,2.6403,2.6062,2.4584,2.2905,2.1078,2.0197,1.9198,1.7906,1.8163,1.839,1.8566,1.9051,1.8985,1.8317,1.817,1.7832,1.7348,1.7202,1.7906,1.9279,1.8941,2.0005,2.1996,2.162,2.3602,2.7431,0.0,3.4651,3.5973,3.9334,4.0728,4.1001,4.2139,4.2543,4.2066,3.8998,0.0,3.6523,3.3733,3.306,0.0,0.0,0.0,0.0,0.0,0.0,0.0,0.0,0.0,2.7824,0.0,0.0,0.0,2.5988,0.0,0.0,0.0,0.0,0.0,0.0,0.0,0.0,0.0,0.0,0.0,0.0,0.0,0.0,0.0,3.6076,3.6902,3.9061,3.9643,4.0141,4.0618,4.0765,4.1332,4.2286,4.2286,4.269,4.3515,4.3515,4.3515,4.3515,4.3515,4.3515,4.3515,4.3515,4.3515,4.3515,4.3515,4.3515,4.3515,4.3515,4.3515,4.3515,4.3515,4.3515,4.3515,4.3515,4.3515,4.3515,2.0154,2.0889,2.1735,2.2509,2.3471,2.4274,2.478,2.4889,2.5632,2.7746,2.9126,3.0454,3.1775,3.1201,3.125,3.2596,2.8705,2.6355,2.6806,2.3502,2.1445,2.1262,1.9903,1.9491,2.0217,1.9601,1.9242,1.9168,1.8463,1.8427,1.9022,1.8317,1.8427,1.9352,2.0747,2.1914,2.2933,2.4273,2.7945,0.0,3.4307,3.4124,0.0,3.7441,3.9423,4.0341,4.2543,4.3368,4.2983,0.0,3.957,3.8799,0.0,3.4688,3.5238,0.0,0.0,0.0,0.0,0.0,0.0,0.0,3.1604,0.0,0.0,0.0,2.6833,2.4887,0.0,0.0,0.0,0.0,0.0,0.0,0.0,0.0,0.0,0.0,0.0,0.0,0.0,0.0,0.0,3.3934,3.4386,3.6531,3.6068,3.6655,3.8872,3.9643,4.0744,4.2249,4.2286,4.269,4.3515,4.3515,4.3515,4.3515,4.3515,4.3515,4.3515,4.3515,4.3515,4.3515,4.3515,4.3515,4.3515,4.3515,4.3515,4.3515,4.3515,4.3515,4.3515,4.3515,4.3515,4.3515,2.0385,2.135,2.2329,2.2594,2.3738,2.4654,2.4684,2.7004,2.8882,2.9417,3.1543,3.3243,3.3903,3.2852,0.0,3.3697,0.0,2.9427,0.0,0.0,2.4677,2.3245,2.2061,2.14,2.1253,2.0446,1.9785,1.9315,1.8948,1.8985,1.9315,1.941,2.0181,2.151,2.3171,2.485,2.6492,2.6686,2.8411,0.0,0.0,0.0,0.0,3.9019,4.1699,4.2119,4.3147,4.3515,4.3147,0.0,3.957,0.0,0.0,0.0,0.0,0.0,0.0,0.0,0.0,0.0,0.0,0.0,0.0,0.0,2.72,0.0,2.5695,0.0,0.0,0.0,0.0,0.0,0.0,0.0,0.0,0.0,0.0,0.0,0.0,0.0,0.0,0.0,0.0,0.0,0.0,0.0,3.4504,3.5202,3.7184,3.808,3.946,4.1552,4.1609,4.2213,4.3515,4.3515,4.3515,4.3515,4.3515,4.3515,4.3515,4.3515,4.3515,4.3515,4.3515,4.3515,4.3515,4.3515,4.3515,4.3515,4.3515,4.3515,4.3515,4.3515,4.3515,4.3515,2.1031,2.2136,2.3083,2.2893,2.4058,2.5024,2.514,2.8096,3.0354,3.0502,3.2956,3.4894,3.5518,3.5298,0.0,0.0,3.4798,3.2963,0.0,0.0,2.8018,2.6245,2.4557,0.0,2.3134,2.1832,2.0804,1.9976,1.9976,1.9976,2.0013,2.0592,2.1612,2.3079,2.4924,2.72,2.961,0.0,3.0356,3.2399,3.3109,3.3917,3.5289,4.054,4.2927,4.3515,4.3515,4.3515,4.3184,4.0965,3.9827,0.0,3.8836,0.0,0.0,0.0,0.0,0.0,3.5848,0.0,0.0,0.0,0.0,0.0,0.0,0.0,0.0,0.0,0.0,0.0,0.0,0.0,0.0,0.0,0.0,0.0,0.0,0.0,0.0,0.0,0.0,0.0,0.0,0.0,0.0,0.0,0.0,3.3513,3.5826,3.6721,3.8358,4.1022,4.1095,4.1882,4.3478,4.3515,4.3515,4.3515,4.3515,4.3515,4.3515,4.3515,4.3515,4.3515,4.3515,4.3515,4.3515,4.3515,4.3515,4.3515,4.3515,4.3515,4.3515,4.3515,4.3515,4.3515,2.2479,2.3304,2.401,2.3782,2.4445,2.5429,2.6636,2.721,2.8264,3.0344,0.0,0.0,0.0,0.0,0.0,0.0,0.0,3.7309,3.7199,0.0,3.125,0.0,0.0,2.5668,0.0,2.4143,2.2538,2.1702,2.1702,2.1702,2.1702,2.1739,2.2208,2.3116,2.5501,2.8338,3.136,3.2118,3.5665,4.0581,3.9093,4.0341,4.289,0.0,4.1479,4.3515,4.3515,0.0,0.0,4.1625,4.1022,0.0,0.0,0.0,0.0,0.0,0.0,0.0,0.0,0.0,0.0,3.2865,0.0,0.0,0.0,0.0,2.7247,0.0,0.0,0.0,0.0,0.0,0.0,2.5521,0.0,0.0,0.0,0.0,0.0,0.0,0.0,0.0,0.0,0.0,0.0,0.0,0.0,0.0,3.4821,3.5862,3.7808,4.0985,4.1095,4.1882,4.3478,4.3515,4.3515,4.3515,4.3515,4.3515,4.3515,4.3515,4.3515,4.3515,4.3515,4.3515,4.3515,4.3515,4.3515,4.3515,4.3515,4.3515,4.3515,4.3515,4.3515,4.3515,2.4364,2.5012,2.5094,2.3632,2.4122,2.5481,2.7922,3.0184,0.0,0.0,0.0,0.0,0.0,3.9753,4.1442,0.0,0.0,4.001,3.8395,3.6501,0.0,0.0,0.0,3.0026,0.0,2.742,2.5254,2.3391,2.2868,2.2318,2.1812,2.2354,2.2749,2.3153,2.6638,2.9684,0.0,0.0,0.0,0.0,0.0,4.0634,4.3404,0.0,4.278,4.3515,4.3515,4.3515,0.0,4.2873,4.1992,4.1168,4.1699,4.0598,3.9313,4.0377,4.0487,0.0,0.0,0.0,4.0377,3.5789,0.0,0.0,0.0,0.0,0.0,0.0,0.0,0.0,0.0,0.0,0.0,2.5521,0.0,0.0,0.0,0.0,0.0,0.0,0.0,0.0,0.0,0.0,0.0,0.0,2.884,0.0,0.0,3.5238,3.7294,3.9444,4.0545,4.1625,4.269,4.3204,4.3515,4.3515,4.3515,4.3515,4.3515,4.3515,4.3515,4.3515,4.3515,4.3515,4.3515,4.3515,4.3515,4.3515,4.3515,4.3515,4.3515,4.3515,4.3515,4.3515,2.6,2.6045,2.568,2.4428,2.5261,2.6945,2.9462,0.0,0.0,0.0,3.9386,0.0,4.2103,0.0,4.3387,0.0,4.3571,4.2359,4.012,3.9239,0.0,3.7624,3.5238,0.0,0.0,0.0,2.8594,2.5915,2.5107,2.4006,2.2657,2.3199,2.3419,2.3593,2.7336,3.0491,3.317,3.5371,3.7588,0.0,0.0,4.1625,0.0,0.0,4.3515,4.3515,0.0,4.3515,4.3515,4.3515,4.28,4.2139,4.3167,4.2066,4.0671,4.1919,4.1772,4.1148,4.1095,4.1682,0.0,3.7661,3.5899,0.0,2.9622,0.0,0.0,0.0,0.0,0.0,0.0,0.0,0.0,2.71,2.6146,0.0,0.0,0.0,0.0,0.0,0.0,0.0,0.0,0.0,2.5768,2.688,2.742,0.0,0.0,0.0,3.6413,3.8615,4.0251,4.1499,4.2286,4.3094,4.3515,4.3515,4.3515,4.3515,4.3515,4.3515,4.3515,4.3515,4.3515,4.3515,4.3515,4.3515,4.3515,4.3515,4.3515,4.3515,4.3515,4.3515,4.3515,4.3515,2.7335,2.6609,2.6123,2.6312,2.7853,0.0,0.0,0.0,3.8285,0.0,4.0818,4.4892,4.7976,4.8306,4.7498,4.5443,4.5223,0.0,4.2616,4.1735,0.0,0.0,3.7881,3.6927,3.7713,0.0,0.0,0.0,2.8227,2.6576,2.43,2.4226,2.419,2.4337,2.7519,3.0711,3.3954,3.7257,4.0524,4.3515,4.3515,4.3515,4.3515,4.3515,4.3515,4.3515,4.3515,4.3515,4.3515,4.3515,4.3515,4.3515,4.3515,4.3515,4.3368,4.258,4.291,4.3167,4.1609,4.1772,4.1625,3.8521,3.7639,0.0,0.0,0.0,3.355,0.0,0.0,0.0,0.0,0.0,0.0,2.9843,2.7467,0.0,0.0,0.0,0.0,0.0,0.0,0.0,0.0,0.0,2.3749,2.5264,2.5485,0.0,0.0,0.0,3.5238,3.8432,4.0178,4.1462,4.2249,4.3057,4.3515,4.3515,4.3515,4.3515,4.3515,4.3515,4.3515,4.3515,4.3515,4.3515,4.3515,4.3515,4.3515,4.3515,4.3515,4.3515,4.3515,4.3515,4.3515,4.3515,2.8486,2.9814,3.1084,0.0,3.0845,3.1935,0.0,0.0,0.0,0.0,4.5296,4.7388,4.8233,4.8306,4.8086,4.7535,4.6764,0.0,0.0,0.0,0.0,4.4342,4.2066,4.0855,4.1075,3.6876,0.0,3.2559,0.0,2.6576,2.5952,2.4777,2.419,2.43,2.6943,2.9916,3.3133,3.6413,4.0026,4.3515,4.3515,4.3515,4.3515,0.0,4.3515,4.3515,4.3515,4.3515,4.3515,4.3515,4.3515,4.3515,4.3515,4.3515,4.3478,4.324,4.3314,4.3404,4.2983,4.302,4.2837,4.1405,3.9717,3.7918,0.0,0.0,0.0,0.0,0.0,0.0,0.0,0.0,0.0,0.0,0.0,0.0,0.0,0.0,0.0,0.0,0.0,0.0,0.0,2.419,2.497,2.5374,2.6513,0.0,0.0,0.0,0.0,3.5885,3.9297,4.1205,4.1389,4.28,4.3515,4.3515,4.3515,4.3515,4.3515,4.3515,4.3515,4.3515,4.3515,4.3515,4.3515,4.3515,4.3515,4.3515,4.3515,4.3515,4.3515,4.3515,4.3515,4.3515,3.1166,0.0,0.0,3.5744,0.0,0.0,3.8762,0.0,0.0,4.4158,4.7095,0.0,4.937,4.9407,4.9481,4.9738,4.9187,0.0,0.0,0.0,0.0,4.5406,4.4415,4.3718,4.3351,3.9958,0.0,3.4307,0.0,2.7787,2.6062,2.4777,2.419,2.43,2.709,2.9732,3.2375,3.7074,4.0781,4.3515,4.3515,4.3515,0.0,4.3515,4.3515,4.3515,4.3515,4.3515,4.3515,4.3515,4.3515,4.3515,4.3515,4.3515,4.3515,4.3515,4.3515,4.3515,4.3515,4.3515,4.3404,4.2947,4.1809,4.0377,3.8888,3.8909,3.8836,0.0,0.0,0.0,0.0,0.0,0.0,0.0,0.0,0.0,0.0,0.0,0.0,0.0,0.0,0.0,2.3116,2.3823,2.4337,2.4337,2.5852,0.0,0.0,0.0,0.0,3.4954,3.8637,4.0744,4.1095,4.269,4.3515,4.3515,4.3515,4.3515,4.3515,4.3515,4.3515,4.3515,4.3515,4.3515,4.3515,4.3515,4.3515,4.3515,4.3515,4.3515,4.3515,4.3515,4.3515,4.3515,0.0,0.0,0.0,0.0,0.0,0.0,0.0,4.313,0.0,4.4286,0.0,5.0068,5.0839,5.1022,5.1242,5.1573,0.0,5.0362,4.7663,4.8103,4.7535,4.5278,4.5847,4.5847,4.5021,4.313,0.0,0.0,0.0,2.934,2.5705,2.4677,2.4263,2.4483,2.7372,2.9953,0.0,3.8432,4.1919,4.3515,4.3515,4.3515,4.3515,4.3515,4.3515,4.3515,4.3515,4.3515,4.3515,4.3515,4.3515,4.3515,4.3515,4.3515,4.3515,4.3515,4.3515,4.3515,4.3515,4.3515,4.3515,4.3515,4.3515,4.2964,4.0871,4.0377,4.0377,4.0377,3.8689,3.8212,0.0,0.0,0.0,0.0,0.0,0.0,0.0,0.0,0.0,0.0,0.0,0.0,0.0,2.3336,2.3373,2.3153,2.4566,0.0,0.0,0.0,0.0,3.4784,3.8138,4.0304,4.1095,4.269,4.3515,4.3515,4.3515,4.3515,4.3515,4.3515,4.3515,4.3515,4.3515,4.3515,4.3515,4.3515,4.3515,4.3515,4.3515,4.3515,4.3515,4.3515,4.3515,4.3515,0.0,0.0,0.0,0.0,0.0,4.4121,4.6654,4.6709,4.6985,4.8362,4.8563,4.9334,5.1242,5.227,5.2454,5.1683,5.1206,0.0,0.0,0.0,0.0,4.7719,4.7792,4.748,4.6709,4.315,4.0251,0.0,3.2926,2.9365,2.7321,2.5181,2.4566,2.5227,2.6465,3.0173,3.5642,3.8762,0.0,4.3515,4.3515,4.3515,4.3515,4.3515,4.3515,4.3515,4.3515,4.3515,4.3515,4.3515,4.3515,4.3515,4.3515,4.3515,4.3515,4.3515,4.3515,4.3515,4.3515,4.3515,4.3515,4.3515,4.3515,4.3404,4.2964,4.289,4.289,4.289,4.2523,4.1862,4.0561,0.0,0.0,0.0,0.0,0.0,0.0,0.0,0.0,0.0,0.0,0.0,0.0,0.0,2.5438,0.0,0.0,0.0,0.0,0.0,0.0,0.0,3.7845,0.0,0.0,0.0,4.3515,4.3515,4.3515,4.3515,4.3515,4.3515,4.3515,4.3515,4.3515,4.3515,4.3515,4.3515,4.3515,4.3515,4.3515,4.3515,4.3515,4.3515,4.3515,4.3515,0.0,0.0,0.0,0.0,0.0,0.0,0.0,4.9424,0.0,5.1353,5.0141,4.9591,5.0655,5.2234,5.2983,5.247,5.2197,5.194,5.1683,5.1683,5.1169,5.0068,4.9738,0.0,4.7736,4.5002,4.1992,3.8689,3.4247,3.0613,2.7761,2.5778,2.5044,2.5521,2.8411,3.2632,3.7698,0.0,0.0,4.4158,4.4562,4.4745,4.4745,4.4745,4.4745,4.4745,4.4745,4.4745,4.4599,4.3754,4.3515,4.3515,4.3515,4.3515,4.3515,4.3515,4.3515,4.3515,4.3515,4.3515,4.3515,4.3515,4.3515,4.3515,4.3515,4.3515,4.3515,4.3515,4.3515,4.278,4.0341,3.7206,0.0,0.0,0.0,0.0,0.0,0.0,0.0,0.0,0.0,0.0,0.0,0.0,0.0,0.0,0.0,0.0,0.0,0.0,0.0,0.0,0.0,0.0,0.0,0.0,4.3515,4.3515,4.3515,4.3515,4.3515,4.3515,4.3515,4.3515,4.3515,4.3515,4.3515,4.3515,4.3515,4.3515,4.3515,4.3515,4.3515,4.3515,4.3515,4.3515,0.0,4.4048,0.0,0.0,4.625,0.0,5.0178,5.2564,5.4106,5.3775,5.2234,5.1059,5.0729,5.2197,5.3203,5.3203,5.3203,5.3203,5.3203,5.3203,5.28,5.1977,5.1389,5.0362,4.8857,4.7241,4.4195,0.0,3.645,3.2779,2.8778,2.7174,2.6586,2.7137,3.1458,3.5569,0.0,0.0,4.3351,4.5002,4.5626,4.5883,4.5883,4.5883,4.5883,4.5883,4.5883,4.5883,4.57,4.4415,4.3919,4.3754,4.3754,4.3644,4.3515,4.3515,4.3515,4.3515,4.3515,4.3515,4.3515,4.3515,4.3515,4.3515,4.3515,4.3515,4.3515,4.3515,4.3515,4.278,4.0341,3.8065,0.0,0.0,0.0,0.0,0.0,0.0,0.0,0.0,0.0,0.0,0.0,0.0,0.0,0.0,0.0,0.0,0.0,0.0,0.0,0.0,0.0,3.8469,4.0581,0.0,4.3515,4.3515,4.3515,4.3515,4.3515,4.3515,4.3515,4.3515,4.3515,4.3515,4.3515,4.3515,4.3515,4.3515,4.3515,4.3515,4.3515,4.3515,4.3515,4.3515,0.0,0.0,0.0,0.0,0.0,0.0,5.7079,5.7336,5.7042,5.5574,5.5207,5.4509,5.3078,5.3078,5.3203,5.3203,5.3203,5.3203,5.3203,5.3203,5.3188,5.3057,5.2307,5.1463,5.0582,4.893,4.6434,0.0,0.0,3.6142,3.2106,3.0503,3.054,3.2032,3.4761,0.0,0.0,4.1882,4.3644,4.5773,4.5883,4.5883,4.5883,4.5883,4.5883,4.5883,4.5883,4.5883,4.5883,4.5736,4.5186,4.4599,4.4599,4.4085,4.3515,4.3515,4.3515,4.3515,4.3515,4.3515,4.3515,4.3515,4.3515,4.3515,4.3515,4.3515,4.3515,4.3515,4.3515,4.278,4.0341,4.0855,4.0157,0.0,0.0,0.0,0.0,0.0,0.0,0.0,0.0,0.0,0.0,0.0,0.0,0.0,0.0,0.0,0.0,0.0,0.0,3.2619,0.0,3.797,3.8909,4.1956,4.3515,4.3515,4.3515,4.3515,4.3515,4.3515,4.3515,4.3515,4.3515,4.3515,4.3515,4.3515,4.3515,4.3515,4.3515,4.3515,4.3515,4.3515,4.3515,4.3515,0.0,0.0,0.0,0.0,0.0,0.0,0.0,5.7997,5.7776,5.7116,5.7042,5.6785,5.6161,5.5207,5.4252,5.3277,5.3203,5.3203,5.3203,5.4106,5.4216,5.3261,5.3371,5.2821,5.1536,5.0398,4.8196,0.0,0.0,0.0,3.5495,3.3844,3.3954,3.5642,0.0,4.0451,4.2653,4.4434,4.5718,4.6654,4.7168,4.7352,4.7352,4.7352,4.7352,4.7352,4.7352,4.7352,4.7352,4.7352,4.6471,4.5406,4.5406,4.4856,4.4232,4.4232,4.3864,4.3515,4.3515,4.3515,4.3515,4.3515,4.3515,4.3515,4.3515,4.3515,4.3515,4.3515,4.3515,4.3221,4.2229,4.1405,4.0377,0.0,0.0,0.0,0.0,0.0,0.0,0.0,0.0,0.0,0.0,0.0,0.0,0.0,0.0,2.4824,2.6292,0.0,0.0,3.1091,0.0,3.7896,3.8689,4.1882,4.3515,4.3515,4.3515,4.3515,4.3515,4.3515,4.3515,4.3515,4.3515,4.3515,4.3515,4.3515,4.3515,4.3515,4.3515,4.3515,4.3515,4.3515,4.3515,4.3515,5.0885,0.0,5.7997,0.0,5.7997,5.7997,5.7997,5.7997,5.7997,5.7997,5.7997,5.7997,5.7997,5.6969,5.5831,5.473,5.462,5.462,5.462,5.5684,5.5794,5.4656,5.4693,0.0,5.2747,5.1903,5.0141,4.7352,4.5149,0.0,3.9585,3.8175,3.8395,4.0063,4.1992,4.3791,4.5424,4.7095,4.7957,4.825,4.882,4.904,4.904,4.904,4.8893,4.8673,4.8673,4.8526,4.8306,4.8306,4.7572,4.6544,4.6324,4.57,4.5039,4.5039,4.4635,4.4158,4.3901,4.3864,4.3791,4.3551,4.3515,4.3515,4.3515,4.3515,4.3515,4.3515,4.3515,4.3515,4.3515,4.2119,4.0818,4.0451,0.0,0.0,0.0,0.0,0.0,0.0,0.0,2.8546,0.0,0.0,0.0,0.0,0.0,2.6319,2.71,0.0,0.0,0.0,0.0,0.0,3.9056,4.1992,4.3515,4.3515,4.3515,4.3515,4.3515,4.3515,4.3515,4.3515,4.3515,4.3515,4.3515,4.3515,4.3515,4.3515,4.3515,4.3515,4.3515,4.3515,4.3515,4.3515,5.6921,5.796,5.7997,5.7997,5.7997,5.7997,5.7997,5.7997,5.7997,5.7997,5.7997,5.7997,5.7997,5.796,5.796,5.7923,5.7923,5.7923,5.7923,5.796,5.796,0.0,0.0,5.5207,5.4399,5.3592,5.238,5.0729,0.0,0.0,4.4599,4.3791,4.4268,4.5847,4.6636,4.7976,4.9537,4.9574,5.0031,5.0765,5.0765,5.0765,5.0765,5.0765,5.0288,4.9574,4.9574,4.9003,4.8306,4.8306,4.8306,4.8122,4.7333,4.6544,4.5883,4.5883,4.5883,4.57,4.4874,4.4709,4.4488,4.3681,4.3515,4.3515,4.3515,4.3515,4.3515,4.3515,4.3515,4.3515,4.3515,4.3478,4.2396,3.9239,0.0,0.0,0.0,0.0,0.0,0.0,2.9989,2.8987,2.8987,0.0,0.0,0.0,0.0,3.0467,3.1286,0.0,0.0,3.4821,3.7389,0.0,3.9879,4.2303,4.3515,4.3515,4.3515,4.3515,4.3515,4.3515,4.3515,4.3515,4.3515,4.3515,4.3515,4.3515,4.3515,4.3515,4.3515,4.3515,4.3515,4.3515,4.3515,4.3515,5.7692,5.7997,5.7997,5.7997,5.7997,5.7997,5.7997,5.7997,5.7997,5.7997,5.7997,5.7997,5.7997,5.7997,5.7997,0.0,5.7997,5.7997,0.0,5.7997,5.7997,5.7997,5.6969,5.6051,5.5244,5.495,5.4032,5.2454,0.0,0.0,0.0,4.6911,4.7352,4.8435,4.8673,4.9407,5.0398,5.0398,5.0582,5.0802,5.0802,5.0802,5.0802,5.0802,5.0655,5.0398,5.0398,5.0251,4.9994,4.9994,4.9627,4.9114,4.8893,4.7829,4.6709,4.6709,4.6324,4.5847,4.559,4.5516,4.5333,4.4525,4.4305,4.4158,4.3625,4.3515,4.3515,4.3515,4.3515,4.3515,4.3515,4.3515,4.28,4.0671,4.0765,0.0,0.0,0.0,0.0,0.0,0.0,3.065,0.0,3.0393,0.0,0.0,0.0,0.0,0.0,0.0,0.0,0.0,3.7367,0.0,3.99,4.2303,4.3515,4.3515,4.3515,4.3515,4.3515,4.3515,4.3515,4.3515,4.3515,4.3515,4.3515,4.3515,4.3515,4.3515,4.3515,4.3515,4.3515,4.3515,4.3515,4.3515,5.7997,5.7997,5.7997,5.7997,5.7997,5.7997,5.7997,5.7997,5.7997,5.7997,5.7997,5.7997,5.7997,5.7997,0.0,5.7997,5.7997,5.7997,5.7997,5.7997,5.7997,5.7997,5.7519,5.6859,5.6051,5.6051,0.0,5.4106,5.3298,5.2123,5.0582,5.0288,5.0435,5.0949,5.0949,5.1242,5.172,5.172,5.172,5.172,5.172,5.172,5.172,5.172,5.1499,5.1242,5.1242,5.1059,5.0802,5.0802,5.0472,5.0031,5.0031,4.9334,4.836,4.7736,4.7205,4.6728,4.6434,4.6361,4.6177,4.5369,4.4929,4.4488,4.3681,4.3515,4.3515,4.3515,4.3515,4.3515,4.3515,4.3515,4.2947,4.1352,4.1095,3.9958,3.6743,0.0,0.0,0.0,0.0,0.0,0.0,3.2865,3.3036,0.0,0.0,0.0,0.0,0.0,0.0,3.5312,3.8872,4.0928,4.1258,4.2743,4.3515,4.3515,4.3515,4.3515,4.3515,4.3515,4.3515,4.3515,4.3515,4.3515,4.3515,4.3515,4.3515,4.3515,4.3515,4.3515,4.3515,4.3515,4.3515,4.3515,5.7997,5.7997,5.7997,0.0,5.7997,5.7997,5.7997,5.7997,5.7997,5.7997,5.7997,5.7997,5.7997,5.7997,5.7997,5.7997,0.0,0.0,5.7997,5.7997,5.7997,5.7997,5.7997,5.7666,5.6895,5.6895,5.6492,5.5706,5.4876,5.4473,5.4473,5.3739,5.335,5.335,5.335,5.335,5.335,5.335,5.335,5.3371,5.3314,5.3277,5.3277,5.3203,5.2747,5.2087,5.2087,5.161,5.0986,5.0986,5.0949,5.0875,5.0875,5.0839,5.0472,4.8857,4.8379,4.8233,4.7406,4.7186,4.7003,4.6177,4.5333,4.4525,4.3754,4.3551,4.3515,4.3515,4.3515,4.3515,4.3515,4.3515,4.2947,4.1352,4.1058,3.99,3.6743,0.0,0.0,0.0,0.0,0.0,0.0,3.5532,3.6413,0.0,0.0,0.0,0.0,0.0,3.5973,3.979,4.1442,4.269,4.3515,4.3515,4.3515,4.3515,4.3515,4.3515,4.3515,4.3515,4.3515,4.3515,4.3515,4.3515,4.3515,4.3515,4.3515,4.3515,4.3515,4.3515,4.3515,4.3515,4.3515,4.3515,0.0,0.0,5.7997,5.7997,5.7997,5.7997,5.7997,5.7997,5.7997,5.7997,5.7997,5.7997,5.7997,5.7997,5.7997,5.7997,5.7997,5.7997,5.7997,5.7997,5.7997,5.7997,5.7997,5.7923,5.7703,5.7703,5.7336,5.6528,5.5721,5.5317,5.5317,5.5097,5.5023,5.5023,5.5023,5.5023,5.5023,5.5023,5.5023,5.4987,5.4363,5.4106,5.4069,5.3424,5.3078,5.2931,5.2931,5.2784,5.2616,5.2616,5.2234,5.172,5.172,5.1279,5.0618,4.9591,4.9297,4.9114,4.8269,4.7993,4.781,4.7003,4.5755,4.4654,4.4452,4.3938,4.3515,4.3515,4.3515,4.3515,4.3515,4.3515,4.2947,4.1352,4.0598,3.9276,3.667,3.6831,0.0,0.0,3.678,3.7551,3.7551,3.7918,3.7624,0.0,0.0,0.0,0.0,3.8117,3.8909,3.9863,4.1442,4.269,4.3515,4.3515,4.3515,4.3515,4.3515,4.3515,4.3515,4.3515,4.3515,4.3515,4.3515,4.3515,4.3515,4.3515,4.3515,4.3515,4.3515,4.3515,4.3515,4.3515,4.3515,4.3571,5.7997,5.7997,5.7997,5.7997,5.7997,5.7997,5.7997,5.7997,5.7997,5.7997,5.7997,5.7997,5.7997,5.7997,5.7997,5.7997,5.7997,5.7997,5.7997,5.7997,5.7997,5.7997,5.7997,5.7997,5.7997,5.7997,5.7776,5.7336,5.6895,5.6492,5.6161,5.6161,5.5941,5.5596,5.5596,5.5596,5.5596,5.5596,5.5596,5.5537,5.5097,5.495,5.4913,5.4473,5.4289,5.4252,5.3885,5.3739,5.3702,5.3314,5.2931,5.2564,5.2564,5.227,5.1756,5.0912,5.0455,4.9958,4.9114,4.8893,4.86,4.7406,4.6452,4.5682,4.5333,4.4635,4.4048,4.4048,4.3754,4.3515,4.3515,4.3515,4.2947,4.1352,4.0728,3.9606,3.7199,3.7529,0.0,3.7441,3.8505,3.9386,3.9738,4.012,3.9827,3.8579,3.9585,0.0,3.9166,4.0671,4.1368,4.1001,4.2213,4.3057,4.3515,4.3515,4.3515,4.3515,4.3515,4.3515,4.3515,4.3515,4.3515,4.3515,4.3515,4.3515,4.3515,4.3515,4.3515,4.3551,4.3901,4.4048,4.4085,4.4452,4.4599,4.4672,5.8731,5.8731,5.8731,5.8731,5.8731,5.8731,5.8731,5.8731,5.8731,5.8731,5.8731,5.8547,5.8033,5.7997,5.7997,5.7997,5.7997,5.7997,5.7997,5.7997,5.7997,5.7997,5.7997,5.7997,5.7997,5.7997,5.7997,5.7997,5.7997,5.7666,5.6969,5.6969,5.6638,5.5941,5.5941,5.5941,5.5941,5.5941,5.5941,5.5941,5.5831,5.5757,5.5757,5.5669,5.5596,5.55,5.484,5.4583,5.4473,5.3812,5.3482,5.3408,5.3408,5.3298,5.3078,5.238,5.1683,5.0949,5.0031,4.9684,4.9243,4.7663,4.7186,4.6929,4.625,4.548,4.4892,4.4892,4.4232,4.3681,4.3681,4.3588,4.2947,4.1352,4.1095,4.0267,3.786,0.0,3.9019,3.8909,3.979,4.0708,4.1405,4.1992,4.2066,4.1515,4.2616,4.2763,4.1552,4.2763,4.3167,4.2506,4.313,4.3515,4.3515,4.3515,4.3515,4.3515,4.3515,4.3515,4.3515,4.3515,4.3588,4.3681,4.3681,4.3754,4.3864,4.3864,4.3864,4.3955,4.4599,4.4892,4.4966,4.5663,4.5883,4.592,6.2071,6.2071,6.2071,6.2071,6.2071,6.2071,6.2071,6.2071,6.2071,6.2071,6.2071,6.1043,5.829,5.7997,5.7997,5.7997,5.7997,5.7997,5.7997,5.7997,5.7997,5.7997,5.7997,5.7997,5.7997,5.7997,5.7997,5.7997,5.7997,5.7923,5.7813,5.7813,5.774,5.7629,5.7629,5.7629,5.7629,5.7629,5.7629,5.7556,5.6895,5.6602,5.6528,5.5868,5.5596,5.5596,5.5486,5.539,5.539,5.5244,5.4766,5.4216,5.4216,5.3739,5.3167,5.3078,5.2931,5.2527,5.1022,5.0105,4.9353,4.8379,4.759,4.7076,4.6929,4.6287,4.57,4.57,4.5076,4.4525,4.4525,4.3975,4.2947,4.1352,4.1095,4.0267,3.786,0.0,4.0471,3.979,4.1642,4.3001,4.313,4.2616,4.2543,4.3094,4.2727,4.2653,4.3094,4.3368,4.3441,4.3331,4.3441,4.3515,4.3515,4.3515,4.3515,4.3515,4.3515,4.3515,4.3515,4.3515,4.3864,4.4525,4.4525,4.4892,4.5516,4.5516,4.5516,4.5553,4.5663,4.57,4.5736,4.5847,4.5883,4.5993,6.278,6.278,6.278,6.278,6.278,6.278,6.278,6.278,6.278,6.278,6.278,6.223,6.075,6.0603,6.0603,6.0603,5.8988,5.7997,5.7997,5.7997,5.7997,5.7997,5.7997,5.7997,5.7997,5.7997,5.7997,5.7997,5.7997,5.7997,5.7997,5.7997,5.7997,5.7997,5.7997,5.7997,5.7997,5.7997,5.7997,5.796,5.7593,5.7446,5.7409,5.7042,5.6895,5.6822,5.6381,5.6235,5.6161,5.5757,5.5354,5.506,5.506,5.4803,5.4399,5.3959,5.3225,5.238,5.1646,5.0839,5.0031,4.9187,4.8673,4.8269,4.7846,4.7113,4.6544,4.6544,4.592,4.5223,4.4764,4.4415,4.3608,4.2029,4.1772,0.0,3.9643,4.0781,4.1625,4.1222,4.2543,4.3515,4.3515,4.3167,4.3094,4.3478,4.3167,4.3094,4.3478,4.3515,4.3515,4.3515,4.3515,4.3515,4.3515,4.3515,4.3515,4.3515,4.3938,4.4158,4.4158,4.4599,4.5002,4.5369,4.5369,4.5553,4.5883,4.5883,4.5883,4.5957,4.6397,4.6544,4.6599,4.7021,4.7205,4.7241,6.278,6.278,6.278,6.278,6.278,6.278,6.278,6.278,6.278,6.278,6.278,6.278,6.278,6.278,6.278,6.278,6.0529,5.9134,5.9134,5.9134,5.8767,5.8033,5.7997,5.7997,5.7997,5.7997,5.7997,5.7997,5.7997,5.7997,5.7997,5.7997,5.7997,5.7997,5.7997,5.7997,5.7997,5.7997,5.7997,5.7997,5.7997,5.7997,5.7997,5.7997,5.7997,5.7923,5.7299,5.7079,5.6969,5.6381,5.6014,5.5868,5.5868,5.5757,5.5464,5.484,5.3665,5.2491,5.2087,5.1536,5.0875,5.0068,4.9848,4.9591,4.8783,4.8122,4.7626,4.7406,4.6764,4.5993,4.5351,4.5095,4.4452,4.2837,0.0,4.247,0.0,4.1956,4.2506,4.2323,4.302,4.3515,4.3515,4.3515,4.3515,4.3515,4.3515,4.3515,4.3515,4.3515,4.3571,4.3754,4.3625,4.3571,4.3791,4.3791,4.3864,4.4065,4.4672,4.5002,4.5002,4.5626,4.5993,4.6177,4.6177,4.6287,4.6471,4.6471,4.6471,4.6507,4.7149,4.7369,4.7443,4.8086,4.8306,4.8306,6.278,6.278,6.278,6.278,6.278,6.278,6.278,6.278,6.278,6.278,6.278,6.278,6.278,6.278,6.278,6.278,6.256,6.245,6.245,6.245,6.1117,5.8143,5.7997,5.7997,5.7997,5.7997,5.7997,5.7997,5.7997,5.7997,5.7997,5.7997,5.7997,5.7997,5.7997,5.7997,5.7997,5.7997,5.7997,5.7997,5.7997,5.7997,5.7997,5.7997,5.7997,5.7997,5.7923,5.7923,5.7886,5.785,5.7336,5.6712,5.6712,5.6198,5.5574,5.5537,5.4876,5.3885,5.238,5.194,5.172,5.0912,5.0729,5.0508,4.9684,4.9463,4.9206,4.8379,4.7553,4.7003,4.6929,4.6324,4.5259,4.3644,0.0,0.0,4.1425,4.2433,4.313,4.2396,4.302,4.3515,4.3515,4.3515,4.3515,4.3515,4.3515,4.3515,4.3515,4.3515,4.3828,4.4599,4.3901,4.3864,4.4599,4.4635,4.5002,4.57,4.5773,4.581,4.581,4.5883,4.6324,4.7003,4.7003,4.7406,4.8122,4.8122,4.8122,4.8122,4.8196,4.8233,4.8233,4.8269,4.8306,4.8306,6.278,6.278,6.278,6.278,6.278,6.278,6.278,6.278,6.278,6.278,6.278,6.278,6.278,6.278,6.278,6.278,6.278,6.278,6.278,6.278,6.1374,5.8143,5.8951,5.9024,5.8033,5.851,5.851,5.7997,5.7997,5.7997,5.7997,5.7997,5.7997,5.7997,5.7997,5.7997,5.7997,5.7997,5.8186,5.8439,5.8439,5.8439,5.8439,5.8439,5.826,5.7997,5.7997,5.7997,5.8029,5.8348,5.8054,5.7588,5.7888,5.7574,5.6969,5.6492,5.5757,5.4876,5.3775,5.3115,5.2564,5.1756,5.1536,5.1316,5.0508,5.0325,5.0105,4.926,4.8857,4.8343,4.7296,4.6856,4.6287,4.5149,0.0,4.5112,4.4195,4.4599,4.4856,4.4562,4.4782,4.5002,4.5002,4.5002,4.5002,4.5002,4.5002,4.5002,4.5002,4.5002,4.5112,4.5443,4.5149,4.5149,4.5443,4.5443,4.559,4.592,4.6434,4.6636,4.6636,4.7168,4.7572,4.7846,4.7846,4.7993,4.8306,4.8306,4.8306,4.8306,4.8306,4.8306,4.8306,4.8306,4.8306,4.8306,6.278,6.278,6.278,6.278,6.278,6.278,6.278,6.278,6.278,6.278,6.3385,6.3771,6.3771,6.3215,6.278,6.278,6.278,6.278,6.278,6.278,6.1594,5.8877,5.9795,5.9979,5.9024,5.9245,5.9024,5.84,5.84,5.8253,5.7997,5.8164,5.8142,5.7997,5.8164,5.8142,5.7997,5.7997,5.8209,5.8482,5.8482,5.8482,5.8482,5.8482,5.8282,5.7997,5.7997,5.7997,5.8065,5.8354,5.826,5.8074,5.8549,5.8482,5.8061,5.7381,5.6602,5.5868,5.5317,5.4583,5.3702,5.2637,5.238,5.216,5.1353,5.1169,5.0949,5.0141,4.9978,4.9554,4.8159,4.7902,4.7535,4.6471,4.6287,4.6177,4.592,4.5883,4.5883,4.5883,4.5883,4.5883,4.5883,4.5883,4.5883,4.5883,4.5883,4.5883,4.5883,4.614,4.6287,4.6287,4.6507,4.6654,4.6654,4.6397,4.6397,4.6654,4.7186,4.748,4.748,4.803,4.8306,4.8306,4.8306,4.8306,4.8306,4.8306,4.8306,4.8306,4.8306,4.8306,4.8306,4.8306,4.8306,4.8306,6.283,6.283,6.2805,6.2805,6.278,6.278,6.278,6.2805,6.283,6.283,6.4626,6.5897,6.5897,6.4079,6.2805,6.2805,6.2805,6.2805,6.2805,6.2805,6.2108,6.0493,6.0419,6.0676,6.119,6.0162,5.9501,5.9184,5.9184,5.8804,5.8056,5.8503,5.8461,5.8042,5.8503,5.8439,5.802,5.802,5.802,5.802,5.802,5.802,5.802,5.802,5.802,5.802,5.802,5.802,5.802,5.802,5.802,5.8074,5.8549,5.8713,5.8611,5.8164,5.7446,5.6822,5.6822,5.6198,5.5207,5.3628,5.3203,5.3004,5.2197,5.2013,5.1756,5.0986,5.0802,5.0545,4.9757,4.961,4.904,4.7369,4.7113,4.6819,4.603,4.592,4.592,4.592,4.592,4.592,4.592,4.592,4.592,4.592,4.592,4.592,4.592,4.6672,4.7113,4.7113,4.7883,4.8306,4.8306,4.7516,4.7516,4.8306,4.8306,4.8306,4.8306,4.8306,4.8306,4.8306,4.8306,4.8306,4.8306,4.8306,4.8306,4.8306,4.8306,4.8306,4.8306,4.8306,4.8306,4.8306,6.4971,6.4971,6.4518,6.3049,6.278,6.278,6.278,6.4059,6.4971,6.4971,6.5513,6.5742,6.5253,6.5035,6.459,6.3637,6.3978,6.4158,6.3917,6.3896,6.3605,6.2901,6.2348,6.1814,6.1227,6.108,6.0676,6.0052,6.0052,6.0103,6.0252,5.9748,5.9692,5.9852,5.9057,5.8796,5.8971,5.8632,5.8874,5.9458,5.9458,5.9458,5.9458,5.9458,5.9266,5.899,5.899,5.899,5.9009,5.9354,5.9248,5.9028,5.9139,5.9176,5.9158,5.9009,5.8587,5.8021,5.7427,5.6873,5.6051,5.4436,5.4032,5.3849,5.3041,5.2858,5.2601,5.1793,5.1646,5.1389,5.0582,5.0435,5.0105,4.904,4.8857,4.8563,4.7719,4.7572,4.7572,4.7572,4.7572,4.7572,4.7572,4.7572,4.7572,4.7572,4.7572,4.7572,4.7572,4.7829,4.792,4.792,4.8196,4.8306,4.8306,4.8086,4.8086,4.8306,4.8306,4.8306,4.8306,4.8306,4.8306,4.8306,4.8306,4.8306,4.8306,4.8306,4.8306,4.8306,4.8306,4.8306,4.8306,4.8306,4.8306,4.8306,6.5897,6.5897,6.5513,6.4255,6.4039,6.4039,6.4039,6.5083,6.5897,6.5897,6.5897,6.5755,6.5329,6.5441,6.5284,6.4734,6.4699,6.4628,6.4389,6.4389,6.4294,6.4116,6.3659,6.3186,6.2668,6.2838,6.2417,6.1447,6.1447,6.1454,6.1464,6.1112,6.1035,6.116,6.0525,6.0111,5.9917,5.9628,5.9603,5.9823,5.9823,5.9823,5.9823,5.9823,5.9625,5.9389,5.9389,5.9389,5.9441,5.9744,5.9625,5.9389,5.9389,5.9389,5.9389,5.9389,5.9194,5.8877,5.839,5.7908,5.7248,5.5955,5.5233,5.4656,5.3849,5.3665,5.3445,5.2637,5.2454,5.2234,5.1426,5.1279,5.1022,5.0215,5.0068,4.9884,4.937,4.9297,4.9187,4.8857,4.882,4.8673,4.8343,4.8306,4.8306,4.8306,4.8306,4.8306,4.8306,4.8306,4.8306,4.8306,4.8306,4.8306,4.8306,4.8306,4.8306,4.8306,4.8306,4.8306,4.8306,4.8306,4.8306,4.8306,4.8306,4.8306,4.8325,4.8477,4.8439,4.8325,4.8477,4.8439,4.8306,4.8306,4.8306,4.8306,6.6359,6.609,6.5897,6.5897,6.5897,6.5897,6.5897,6.5897,6.5897,6.5897,6.5897,6.5897,6.5897,6.5344,6.5238,6.5859,6.5073,6.4518,6.4518,6.4518,6.4518,6.4518,6.4518,6.4681,6.4992,6.4926,6.4337,6.3219,6.3219,6.2878,6.2193,6.2541,6.2503,6.215,6.2459,6.1955,6.0942,6.0908,6.0454,5.9753,5.9753,5.9753,5.9753,5.9677,5.9639,5.9639,5.9547,5.9509,5.9509,5.9509,5.9509,5.9509,5.9509,5.9509,5.9509,5.9509,5.9492,5.9458,5.9458,5.9102,5.8607,5.7861,5.6792,5.569,5.4715,5.4509,5.4289,5.3592,5.3371,5.3078,5.2344,5.216,5.183,5.1059,5.0912,5.0875,5.0802,5.0802,5.0545,4.9794,4.9721,4.9407,4.86,4.8526,4.8526,4.8526,4.8526,4.8526,4.8526,4.8526,4.8526,4.8526,4.8526,4.8526,4.8526,4.8526,4.8453,4.8306,4.8306,4.8306,4.8306,4.8306,4.8306,4.8306,4.8344,4.8326,4.8364,4.8796,4.8727,4.8439,4.8813,4.8692,4.8326,4.8326,4.8344,4.8306,6.9821,6.7705,6.5897,6.5897,6.5897,6.5897,6.5897,6.5897,6.5897,6.5897,6.5897,6.5897,6.5897,6.5768,6.5755,6.5897,6.569,6.5556,6.5556,6.5556,6.5556,6.5556,6.5556,6.5622,6.5676,6.4904,6.4387,6.4124,6.4124,6.4211,6.4378,6.3794,6.3694,6.3984,6.3006,6.2639,6.2705,6.233,6.2298,6.245,6.245,6.245,6.2374,6.176,6.1505,6.1428,6.0725,6.0495,6.0495,6.0495,6.0495,6.0495,6.0495,6.0495,6.0495,6.0495,6.0255,5.9946,5.9946,5.9592,5.921,5.9022,5.88,5.7997,5.5828,5.5317,5.528,5.5097,5.4583,5.4106,5.3922,5.3371,5.2674,5.1867,5.172,5.1499,5.0875,5.0802,5.0729,5.0545,5.0545,5.0472,5.0288,5.0251,5.0251,5.0251,5.0251,5.0251,5.0251,5.0251,5.0251,5.0251,5.0251,5.0251,5.0251,5.0251,4.9591,4.8306,4.8306,4.8306,4.8306,4.8306,4.8306,4.8325,4.864,4.8761,4.8796,4.9202,4.9311,4.9249,4.9341,4.9123,4.8761,4.8761,4.8568,4.8306,7.0898,6.9475,6.8282,6.8282,6.8282,6.8282,6.8282,6.7628,6.7398,6.8167,6.759,6.6782,6.5974,6.5897,6.6205,6.7013,6.709,6.709,6.709,6.6705,6.6474,6.6474,6.609,6.5897,6.5897,6.5374,6.5121,6.5121,6.5121,6.523,6.5461,6.5001,6.4959,6.5205,6.4485,6.4076,6.3885,6.3666,6.3462,6.3308,6.3308,6.3308,6.3231,6.282,6.2666,6.2589,6.2166,6.1743,6.1396,6.1396,6.0992,6.0495,6.0734,6.0647,6.0508,6.0746,6.0622,6.0443,6.0443,6.0103,5.9706,5.9706,5.9559,5.8911,5.6928,5.652,5.6325,5.5713,5.5244,5.495,5.495,5.462,5.4069,5.3261,5.3151,5.2858,5.205,5.194,5.1793,5.1426,5.1353,5.1206,5.0839,5.0966,5.1082,5.1082,5.1082,5.1082,5.1082,5.0905,5.0802,5.0802,5.0802,5.0802,5.0802,5.0802,5.0362,4.9481,4.9481,4.9481,4.9481,4.9481,4.958,4.9806,4.9983,5.0185,5.0429,5.0818,5.0633,5.0136,5.032,4.9887,4.9187,4.9187,4.8961,4.8658,7.0898,7.0898,7.0898,7.0898,7.0898,7.0898,7.0898,6.9706,6.9321,7.0706,6.9706,6.8321,6.6898,6.6744,6.7321,6.8706,6.8577,6.8385,6.8385,6.7705,6.7321,6.7321,6.6667,6.6244,6.609,6.609,6.6051,6.5897,6.5897,6.5897,6.5897,6.5897,6.5897,6.5897,6.5897,6.5513,6.482,6.482,6.4397,6.3743,6.3743,6.3743,6.3743,6.3589,6.3512,6.3512,6.3346,6.2858,6.2332,6.2332,6.1569,6.0679,6.0928,6.0751,6.0502,6.0748,6.0781,6.0781,6.0781,6.0508,6.0203,6.0203,5.9916,5.932,5.8203,5.7884,5.7521,5.6372,5.6043,5.5889,5.5816,5.5684,5.5354,5.4693,5.462,5.4363,5.3702,5.3482,5.3172,5.2598,5.2458,5.2149,5.1484,5.1731,5.1942,5.1942,5.1942,5.1942,5.1942,5.1621,5.1408,5.131,5.131,5.1287,5.1206,5.1206,5.1206,5.1206,5.1287,5.1163,5.0905,5.0905,5.112,5.1493,5.1578,5.1785,5.2134,5.2527,5.212,5.1233,5.1522,5.0951,5.0005,4.9797,4.9567,4.9288,7.0898,7.0898,7.0898,7.0898,7.0898,7.0898,7.0898,7.0706,7.0629,7.086,7.0706,7.0475,7.0244,7.0206,7.0321,7.0552,6.9244,6.8385,6.8385,6.8282,6.8244,6.8244,6.8129,6.7705,6.6936,6.6936,6.659,6.5897,6.5897,6.5897,6.5897,6.5897,6.5897,6.5897,6.5897,6.582,6.5705,6.5705,6.5667,6.5551,6.5551,6.5551,6.5474,6.4705,6.4436,6.432,6.3589,6.3243,6.3128,6.3128,6.3014,6.2758,6.2115,6.1873,6.1695,6.1,6.0781,6.0781,6.0781,6.0757,6.0722,6.0722,6.0647,6.0457,5.9892,5.9441,5.897,5.8378,5.7719,5.713,5.6691,5.6051,5.5537,5.5486,5.5427,5.539,5.528,5.4693,5.4312,5.4555,5.4328,5.4117,5.4021,5.4032,5.4065,5.4065,5.4065,5.4065,5.4065,5.4054,5.3798,5.3405,5.3386,5.3212,5.2894,5.2873,5.2873,5.2894,5.3212,5.2661,5.1303,5.1303,5.1527,5.1941,5.2275,5.2475,5.2539,5.2954,5.3014,5.2867,5.2937,5.2629,5.2056,5.1008,5.0613,5.0331,7.0898,7.0898,7.0898,7.0898,7.0898,7.0898,7.0898,7.0898,7.0898,7.0898,7.0898,7.0898,7.0898,7.0898,7.0898,7.0898,7.0206,6.9821,6.9821,6.9398,6.9129,6.9129,6.8667,6.8244,6.7821,6.7821,6.7667,6.7321,6.6359,6.5897,6.5897,6.5897,6.5897,6.5897,6.5897,6.5897,6.5897,6.5897,6.5897,6.5897,6.5897,6.5897,6.5859,6.5474,6.532,6.5282,6.4897,6.4436,6.4051,6.4051,6.3705,6.3243,6.2897,6.2781,6.2589,6.1781,6.1524,6.1396,6.0935,6.0781,6.0781,6.0781,6.0781,6.0746,6.0521,6.0338,5.9962,5.923,5.8821,5.8409,5.7925,5.7582,5.7106,5.6412,5.6271,5.6088,5.5647,5.528,5.5054,5.5023,5.5085,5.4991,5.4522,5.4701,5.4833,5.4833,5.4833,5.4833,5.4833,5.4609,5.4387,5.4187,5.4187,5.4121,5.3924,5.3906,5.3906,5.3924,5.4121,5.3691,5.2733,5.3014,5.3374,5.3722,5.391,5.4129,5.4346,5.4507,5.4318,5.3933,5.3933,5.3514,5.2832,5.2069,5.1382,5.0557]}]]